GFSSE_prec_cloud_003.txt.gz
Cloud_Cover
0 0 0 0 49 100 25 21 5 91 51 1 5 10 20 85 84 39 21 10 100 14 6 47 39 100 100 28 84 12 1 0 0 0 0 0 4 1 35 7 0 0 8
0 0 0 1 27 100 100 100 8 1 0 18 70 84 75 21 15 9 78 94 60 45 71 25 100 99 75 2 93 9 2 0 0 0 0 0 0 43 6 0 0 75 1
0 0 0 1 19 100 100 100 92 5 0 0 46 62 100 4 7 21 10 16 22 100 91 2 97 100 94 91 99 71 0 0 0 0 0 0 0 0 0 3 4 4 17
0 0 0 0 9 100 100 100 95 4 0 5 52 100 100 83 54 38 79 5 4 84 13 0 98 96 12 63 100 44 0 0 0 0 0 0 0 0 2 0 7 9 23
0 0 0 3 32 100 100 100 13 44 5 8 100 32 100 100 100 5 15 0 0 6 0 0 12 100 54 72 100 4 0 0 0 0 19 6 0 0 0 0 0 0 0
0 0 0 3 97 100 15 27 100 100 26 69 100 100 16 100 100 5 2 0 0 0 0 0 0 0 30 89 25 0 0 0 0 0 4 0 0 0 0 0 0 0 0
0 0 0 3 99 99 30 100 13 98 5 6 100 100 100 93 76 88 0 0 0 0 0 0 0 0 61 0 29 0 0 0 0 0 0 0 0 0 4 3 5 5 4
0 0 0 0 16 12 100 100 10 50 50 96 100 98 16 6 0 0 0 0 0 0 1 0 0 0 12 0 5 0 0 0 0 0 0 0 0 0 2 3 3 1 4
0 0 0 4 74 100 100 21 80 58 97 76 92 5 5 3 0 0 0 0 0 20 0 0 0 0 0 0 0 0 0 0 0 0 0 0 0 0 34 26 8 2 40
0 0 0 7 100 100 100 54 100 89 5 5 5 3 0 0 0 0 0 8 0 0 0 0 0 0 0 0 0 0 0 0 0 0 0 0 0 5 13 100 100 5 5
0 0 5 34 100 100 91 95 100 100 5 5 5 1 5 4 0 0 3 2 0 0 0 0 0 0 0 0 0 0 0 0 0 0 0 0 1 12 98 90 19 24 11
0 0 5 100 100 100 100 100 100 100 5 5 5 5 4 0 4 5 0 0 0 0 0 0 0 0 0 0 2 3 3 3 1 0 0 5 44 99 100 16 5 8 52
0 0 0 98 100 100 56 79 13 50 5 5 5 0 3 4 1 0 6 1 2 0 0 0 0 0 0 0 4 5 2 0 0 1 5 63 100 66 5 5 10 5 5
0 0 0 16 100 100 94 39 5 5 5 5 5 5 2 0 0 0 3 9 13 8 13 2 0 0 0 0 0 0 15 22 5 6 36 5 5 5 5 5 5 5 5
5 1 37 48 26 5 5 8 15 55 24 5 5 3 1 0 0 0 0 0 0 0 0 1 0 0 0 0 2 5 42 4 5 12 21 22 5 6 13 6 6 38 17
5 40 31 5 27 73 40 77 81 22 14 7 5 0 0 0 0 0 0 0 0 0 0 0 0 0 0 1 5 4 33 38 22 16 5 5 9 5 6 11 5 5 9
11 5 5 43 100 26 100 100 35 5 2 0 0 0 0 0 0 0 0 0 0 0 0 0 0 0 0 4 5 5 3 18 83 62 62 5 5 5 5 5 5 5 60
5 5 82 87 100 100 100 83 5 1 0 0 0 0 0 0 0 0 0 0 0 2 4 0 0 0 0 0 0 5 46 81 62 55 8 5 5 5 5 5 6 29 100
5 39 100 100 100 58 96 5 0 0 0 0 0 0 0 0 0 0 5 5 5 4 0 0 0 0 0 0 1 3 0 4 4 17 6 5 5 3 1 5 6 53 18
97 100 100 100 26 3 0 0 0 0 0 0 0 0 0 4 5 5 5 1 0 0 0 3 0 0 5 4 0 1 2 2 4 4 5 5 5 3 0 5 26 61 35
9 33 7 5 0 0 0 0 0 0 0 2 5 0 0 0 0 0 0 0 0 0 5 5 3 4 5 5 5 4 4 5 5 5 5 5 4 0 3 5 49 72 67
0 3 0 4 0 0 0 0 0 0 0 0 0 0 0 0 0 0 0 0 5 10 68 80 5 7 5 5 8 30 59 14 4 5 1 0 0 4 2 5 10 5 5
0 0 0 0 0 0 0 1 4 5 5 2 0 0 0 0 0 0 0 5 5 6 5 5 15 22 29 18 33 100 100 27 5 5 4 5 4 0 5 70 45 5 5
0 0 0 0 0 4 5 5 5 5 5 5 5 5 5 5 2 0 1 0 5 5 5 22 81 99 100 100 100 100 98 53 56 75 12 5 5 17 79 94 98 30 5
0 0 0 0 5 0 0 5 5 6 5 5 0 2 5 4 1 5 5 22 11 29 24 56 97 100 100 100 100 100 100 98 55 100 100 5 40 100 53 85 98 86 21
0 5 4 2 5 5 5 5 5 2 5 4 5 5 5 6 6 13 42 45 68 69 56 84 100 100 94 100 100 100 100 100 99 100 98 92 13 69 16 40 86 97 100

GFSSE_prec_cloud_009.txt.gz
Cloud_Cover
0 0 0 49 10 36 96 22 5 0 0 5 28 100 78 36 0 60 100 38 11 23 13 10 12 98 100 100 74 21 0 2 0 0 0 0 1 40 10 1 1 0 10
0 0 0 4 3 41 48 26 0 0 0 44 13 96 100 66 67 0 35 98 81 55 76 56 92 100 100 93 93 1 10 0 0 0 0 0 0 4 0 0 2 28 10
0 0 0 0 3 23 95 25 0 0 4 5 3 50 24 20 87 12 77 85 100 47 96 100 100 100 99 91 100 0 0 0 0 0 0 0 0 0 3 0 0 13 16
0 0 0 0 8 30 42 2 0 1 5 48 42 74 21 97 91 92 74 5 81 100 96 1 96 100 44 76 92 65 0 0 0 0 0 0 0 13 16 0 8 14 20
0 0 0 0 14 24 7 1 0 43 96 87 100 100 100 100 100 97 3 4 4 26 2 0 53 9 0 0 2 61 0 0 0 0 0 0 0 0 0 0 0 0 0
0 0 0 0 11 28 27 13 0 79 98 100 100 100 100 100 100 100 3 87 24 5 0 0 0 1 0 0 0 5 0 0 0 0 0 0 0 0 0 0 0 0 0
1 4 0 0 2 25 0 0 0 79 100 100 100 100 100 83 100 63 5 5 5 5 5 3 0 0 0 0 0 1 0 0 0 0 0 0 0 0 0 0 0 0 0
0 10 8 0 0 0 4 0 4 88 100 100 100 100 100 100 53 27 19 5 5 5 10 2 0 0 0 0 0 1 1 0 0 0 0 0 0 0 0 0 0 0 0
0 8 20 11 0 0 0 1 25 100 100 100 100 100 97 5 5 10 33 5 5 11 12 5 1 0 0 0 0 0 0 0 0 0 0 0 0 0 0 0 0 0 0
1 5 30 26 6 0 0 5 83 90 100 100 100 100 100 100 5 6 5 5 1 4 2 12 2 0 0 0 0 0 0 0 0 0 0 0 0 0 0 0 0 0 0
9 33 40 37 8 0 0 6 97 90 100 100 100 100 99 37 69 46 4 4 5 3 4 5 9 5 0 0 0 0 3 0 0 0 0 0 0 0 0 0 0 0 0
7 16 42 30 10 0 2 19 39 100 100 100 62 39 6 3 7 3 5 5 5 5 5 4 0 2 0 0 0 0 0 1 3 0 0 0 0 0 0 0 5 4 5
5 0 16 28 10 1 0 9 22 12 23 100 93 77 27 5 5 5 10 10 11 7 11 0 0 0 0 0 0 0 0 0 19 1 0 0 0 0 3 2 5 2 5
41 1 0 5 18 9 1 16 5 6 81 100 40 6 5 18 7 10 7 6 16 22 16 15 21 5 0 0 0 0 0 0 0 0 0 0 0 0 5 4 5 0 5
20 1 0 0 0 3 5 5 5 68 100 100 48 5 19 12 14 5 1 6 13 15 25 25 29 22 16 0 0 0 0 0 0 0 0 4 2 5 5 5 5 14 5
1 0 0 4 4 1 0 5 5 18 23 5 5 8 11 100 47 5 1 2 23 29 24 18 10 7 5 6 0 0 0 0 0 0 2 29 5 5 5 5 5 77 8
0 0 0 5 5 0 0 0 1 5 5 13 33 96 100 79 38 1 0 0 0 5 27 64 8 10 13 8 0 0 0 1 2 5 5 40 5 5 5 5 54 42 65
0 0 0 0 0 0 0 0 4 2 5 5 7 100 100 52 22 0 0 4 74 100 100 99 6 1 0 0 0 2 5 5 5 5 25 5 5 5 5 8 74 64 36
0 0 0 0 0 0 0 0 5 4 5 16 35 99 68 17 0 0 0 4 5 43 38 12 5 0 0 0 2 5 5 5 5 5 5 5 5 6 5 5 11 40 82
0 0 0 0 0 0 0 5 5 19 13 83 66 55 8 0 0 0 4 1 4 5 5 5 11 31 23 9 31 14 15 9 5 5 5 5 5 5 22 70 83 99 100
0 0 0 0 0 2 14 62 98 100 82 73 72 5 0 0 0 0 0 0 0 5 13 16 15 19 15 26 100 100 100 43 5 5 5 5 6 32 52 95 80 68 100
0 2 8 10 5 5 8 15 10 14 16 37 15 5 0 0 0 0 1 5 5 27 11 0 2 31 49 46 100 100 100 99 55 5 5 5 5 9 98 86 16 78 100
30 5 15 49 74 51 25 13 9 6 5 4 5 3 0 2 0 0 0 5 4 14 20 29 28 52 72 79 100 100 100 100 99 100 73 81 67 28 41 84 100 100 100
66 5 5 5 14 56 50 5 5 13 8 5 1 0 0 0 2 5 5 12 15 14 36 40 53 100 100 100 100 100 100 100 100 100 100 100 100 100 100 100 100 100 100
5 5 24 19 98 88 26 5 1 0 1 0 0 0 5 2 5 5 5 5 23 66 86 98 72 48 80 99 100 100 100 100 100 100 100 100 100 100 100 100 100 100 100
13 1 2 42 70 18 0 0 0 0 4 17 86 100 100 90 52 83 100 100 87 46 5 5 5 5 5 5 9 5 14 46 94 100 100 100 100 94 100 100 94 100 100

GFSSE_prec_cloud_012.txt.gz
Cloud_Cover
0 0 11 46 97 2 24 43 20 15 0 0 0 0 69 5 3 3 99 98 18 45 0 0 4 100 100 100 100 62 23 3 2 1 0 0 8 100 65 76 1 0 0
0 0 0 11 6 41 100 97 7 0 0 0 0 0 10 75 94 95 62 98 97 99 0 0 0 100 100 100 100 24 0 0 0 0 0 0 0 6 0 4 70 9 10
0 0 0 6 15 4 5 98 4 0 0 0 0 0 69 86 18 12 97 85 100 100 25 60 0 100 100 43 98 100 11 0 0 0 0 0 0 0 0 0 95 74 26
0 0 0 0 0 24 91 23 0 0 0 0 2 2 50 65 51 97 1 6 76 100 97 3 98 100 99 96 100 100 17 0 0 0 0 0 0 28 44 0 17 1 19
0 0 0 0 28 34 32 0 0 0 0 0 2 4 100 12 33 96 83 5 0 6 8 1 94 92 3 26 95 100 16 0 0 0 0 0 0 0 0 0 0 2 0
1 0 0 0 33 10 14 0 0 0 0 0 60 6 100 100 100 100 100 39 4 2 0 0 0 0 5 0 0 1 0 0 0 0 0 0 0 0 0 0 0 0 0
8 1 0 0 8 16 21 16 6 0 0 0 59 100 100 100 100 100 100 39 3 5 5 2 0 0 0 0 0 2 79 4 0 0 0 0 0 0 0 0 0 0 0
5 8 0 0 0 0 12 20 4 0 0 1 93 100 100 100 100 100 99 5 4 0 7 1 0 0 0 0 0 0 75 55 0 0 0 0 0 0 0 0 0 0 0
5 12 22 12 0 0 0 0 0 0 0 4 98 100 17 100 100 100 74 10 2 3 100 99 54 24 3 0 1 0 2 1 0 0 0 0 0 0 0 0 0 0 0
5 3 32 30 10 0 0 0 0 0 0 53 82 100 100 100 70 68 100 5 4 2 95 100 10 9 26 4 0 0 0 0 0 0 0 0 0 0 0 0 0 0 0
5 9 29 42 36 7 0 0 0 0 5 43 98 80 100 92 100 100 37 5 3 1 3 27 47 12 0 0 0 0 0 0 0 9 0 0 0 0 0 0 0 0 0
40 22 72 58 45 32 12 0 0 0 5 24 95 100 100 100 77 12 17 5 5 5 5 0 0 7 3 0 0 0 0 0 14 14 8 0 0 0 0 0 2 0 0
48 100 23 54 29 23 16 5 19 19 5 76 69 43 100 100 98 43 5 5 5 4 14 6 6 11 1 2 1 0 5 1 15 22 9 0 0 0 2 5 4 0 19
19 46 5 21 34 25 22 16 9 26 18 14 5 63 100 74 38 3 16 5 6 8 16 22 32 20 11 2 1 5 5 5 5 0 0 0 0 0 0 0 0 4 39
5 5 7 5 15 22 26 19 7 13 17 8 4 4 84 61 18 27 14 54 11 11 24 22 24 14 16 10 5 5 0 0 0 0 0 0 0 0 0 0 4 5 5
5 18 21 5 4 15 9 12 0 5 0 5 78 99 100 74 15 61 100 29 12 16 9 12 12 12 17 12 5 5 0 0 0 0 0 5 0 0 0 0 5 5 5
0 11 74 24 5 1 5 1 0 0 5 5 5 5 8 5 5 95 100 23 0 6 1 14 16 32 62 36 11 4 0 0 0 0 0 3 5 5 5 5 5 5 5
0 0 5 7 5 0 2 0 0 0 0 0 0 0 5 5 49 28 82 5 5 0 3 3 3 5 31 15 8 1 0 0 0 0 1 0 5 5 5 5 5 8 5
3 0 0 1 2 0 0 0 0 0 0 0 0 0 0 5 5 5 5 5 5 0 0 16 34 89 99 100 100 84 67 33 5 0 5 3 5 5 5 5 5 5 5
0 0 0 0 0 0 0 0 0 0 1 1 5 5 5 4 5 5 5 5 42 53 32 25 92 100 100 81 87 100 100 70 0 2 0 5 5 5 5 5 5 5 5
0 0 0 0 0 0 0 0 0 0 0 5 9 18 26 5 5 5 5 2 0 0 0 3 64 90 83 55 100 95 65 6 6 40 5 5 2 1 1 5 5 7 5
0 0 0 0 3 5 0 0 0 3 5 5 26 21 6 3 2 5 5 4 0 2 8 27 96 98 100 100 100 100 100 62 55 11 5 5 3 5 5 5 5 21 8
2 0 2 47 32 3 1 2 5 5 6 6 5 4 5 0 2 0 1 0 0 8 37 26 42 72 94 70 100 100 100 100 100 45 52 24 80 99 79 49 59 82 87
100 100 100 100 93 25 5 5 35 76 27 5 1 0 0 0 0 0 0 2 5 5 5 5 5 5 9 13 5 27 75 95 100 100 100 100 96 53 74 54 48 63 86
100 100 89 5 21 85 97 56 6 5 5 2 0 0 0 0 1 5 5 5 5 5 5 5 5 5 5 5 5 2 5 5 5 25 43 5 23 26 37 63 34 18 97
22 19 35 83 73 19 5 5 6 5 1 0 0 5 5 5 8 18 9 7 16 40 41 28 17 22 28 36 61 58 9 5 10 29 63 57 51 8 5 5 5 19 19

GFSSE_prec_cloud_018.txt.gz
Cloud_Cover
0 0 0 7 2 2 64 23 86 1 0 0 0 0 0 0 0 0 0 0 2 26 0 0 0 3 96 100 100 93 53 0 1 0 0 0 0 3 2 0 0 0 0
0 0 0 9 89 33 0 65 14 0 0 0 0 0 11 0 0 0 0 8 95 56 0 25 5 1 78 93 84 69 72 3 5 0 0 0 0 0 0 0 0 3 0
0 0 0 15 47 0 16 89 68 0 0 0 0 0 57 74 11 0 54 9 12 23 100 97 6 30 87 100 4 12 100 16 0 1 3 0 0 0 0 0 0 2 20
0 0 0 0 1 0 26 4 0 0 0 0 0 0 100 100 85 0 0 2 5 100 76 1 4 2 0 52 1 100 100 97 0 0 0 0 0 0 0 0 1 62 70
0 0 0 0 0 0 0 44 0 0 0 0 0 0 70 100 55 35 0 17 81 34 5 29 92 97 97 94 7 100 99 99 1 0 0 0 0 0 0 50 0 0 28
0 0 0 0 0 0 2 69 0 0 0 0 0 0 100 74 100 21 3 53 3 2 99 100 100 100 100 6 5 36 96 100 81 0 0 0 0 2 0 0 0 0 0
0 0 0 0 2 0 0 0 0 0 0 0 0 2 55 100 100 96 51 54 7 100 100 100 100 100 100 12 5 0 4 0 0 17 0 0 0 0 0 9 12 0 0
1 0 0 0 0 1 0 0 0 0 0 0 0 99 97 62 16 26 57 9 98 100 100 100 100 100 99 27 2 1 77 100 100 23 0 0 0 0 0 21 7 5 0
18 3 0 0 0 0 0 66 0 0 0 0 0 0 7 0 3 5 5 100 100 100 100 100 100 100 98 100 96 47 0 2 15 5 2 0 0 0 0 9 36 54 36
2 2 0 0 0 37 76 20 11 0 0 0 0 0 0 5 2 1 69 100 100 100 100 89 34 27 100 77 6 0 0 5 5 1 0 0 0 0 0 0 0 1 26
0 0 0 0 0 1 15 24 40 93 0 19 2 0 0 2 5 1 36 100 100 100 100 93 100 100 54 3 0 0 5 5 5 0 0 1 0 0 0 0 0 0 1
0 0 0 5 3 0 12 10 30 4 4 5 3 0 0 5 5 5 100 100 100 100 100 100 100 100 5 2 5 6 10 5 1 0 0 0 0 0 0 0 0 0 0
0 0 0 5 5 5 0 0 2 5 4 5 5 5 4 3 67 25 100 100 100 100 100 100 100 78 60 6 4 5 5 4 0 0 0 0 0 5 0 0 0 0 0
8 5 1 3 5 5 5 0 5 2 3 2 3 5 1 5 90 93 5 100 100 100 100 96 5 2 5 4 2 4 4 3 0 1 3 4 5 5 5 5 5 4 1
57 54 5 50 12 53 5 3 5 5 5 3 5 46 23 52 10 63 51 95 100 100 5 14 16 5 8 14 12 6 8 12 0 0 0 5 5 5 5 4 5 5 5
15 5 5 76 95 99 9 5 5 5 5 4 5 91 95 28 78 70 54 58 39 21 63 26 14 70 5 5 5 5 5 23 23 26 27 3 4 3 4 5 3 0 0
7 85 16 88 79 88 5 9 1 10 2 1 5 5 18 100 79 20 65 95 97 97 11 8 15 45 47 47 42 33 22 20 21 18 34 27 5 3 1 0 0 0 0
9 40 97 77 98 96 78 5 0 0 0 5 2 1 5 72 63 72 57 49 24 6 35 55 74 70 69 83 99 53 60 38 18 23 34 13 18 0 0 0 0 0 0
55 65 5 3 1 24 55 1 0 0 0 0 0 0 5 5 5 7 15 43 52 65 60 41 16 27 23 37 99 36 17 8 6 8 11 13 2 0 0 0 0 0 0
40 13 5 5 5 0 0 0 0 0 19 25 24 35 21 18 10 10 10 3 0 5 5 34 49 7 8 5 1 0 4 4 0 0 0 2 25 54 41 37 31 2 0
86 5 23 5 5 4 0 0 0 0 0 0 0 0 0 0 0 0 0 1 29 54 41 5 5 0 0 0 0 0 0 0 7 0 35 70 3 2 0 20 23 63 82
83 97 89 53 5 46 95 91 100 73 5 0 0 1 4 5 8 33 60 66 65 16 5 4 0 0 0 0 0 0 0 3 4 4 5 5 5 5 5 14 34 24 71
86 73 100 100 90 7 34 7 24 76 12 2 0 5 5 5 5 5 5 5 5 5 4 0 0 0 0 3 0 0 0 0 0 5 5 5 5 0 0 0 5 4 5
33 22 8 80 35 17 42 12 13 2 2 1 0 0 2 0 2 5 5 5 5 0 0 0 0 0 0 0 1 5 2 0 4 1 5 4 5 5 5 5 5 3 0
64 95 96 92 96 100 60 5 5 5 6 5 5 5 5 29 5 0 0 0 0 0 0 0 0 0 0 0 4 5 5 5 0 1 4 0 0 0 2 3 0 5 2
22 16 5 70 38 34 22 38 97 97 27 5 5 5 3 1 0 0 0 1 0 0 2 5 5 5 5 5 3 0 0 2 5 4 4 4 0 0 0 0 1 5 19

GFSSE_prec_cloud_021.txt.gz
Cloud_Cover
0 0 0 54 1 4 35 1 14 0 0 0 0 0 0 0 0 0 14 1 0 3 0 0 0 1 74 78 100 100 94 0 0 0 0 0 0 3 59 0 0 36 0
0 0 0 2 5 3 16 78 0 0 0 0 0 0 0 0 0 0 0 0 86 1 0 0 0 0 18 100 100 92 82 70 0 0 0 0 0 2 1 0 0 20 0
0 0 0 0 7 1 0 79 15 0 0 0 0 0 44 81 25 0 41 88 98 76 0 0 0 3 100 97 93 30 98 100 0 0 0 0 0 0 3 4 0 0 0
1 0 0 0 21 35 4 73 13 0 0 0 0 0 28 49 100 0 0 0 0 0 0 0 0 100 100 5 1 92 99 100 5 0 0 0 0 0 0 0 0 4 15
2 0 0 0 0 37 95 85 0 0 0 0 0 0 6 18 89 83 33 0 0 0 0 4 54 100 3 5 65 92 99 98 64 0 0 0 0 1 0 0 0 0 4
5 0 0 0 0 23 51 0 0 0 0 0 0 0 85 29 57 45 0 0 0 0 4 99 33 16 64 100 80 100 97 61 7 6 9 0 0 0 1 0 0 0 0
0 0 1 4 0 0 99 1 19 0 0 0 0 0 87 100 100 99 12 0 0 0 8 82 3 99 100 100 100 57 100 27 79 5 5 24 5 3 0 0 84 85 10
4 5 5 2 0 0 0 0 0 0 0 0 0 11 0 80 39 49 8 3 0 1 19 31 52 100 100 100 100 100 100 11 5 5 2 2 5 5 3 0 0 0 46
5 5 1 0 0 0 0 0 0 0 0 0 0 0 32 0 0 0 3 5 5 3 23 99 99 100 100 100 100 86 4 52 82 60 5 5 5 5 0 0 0 70 36
5 2 0 0 0 6 0 0 45 9 0 0 0 0 0 0 0 0 5 10 5 6 93 71 100 100 100 98 57 43 100 96 1 0 24 7 5 5 4 3 1 5 85
0 0 0 5 0 2 9 4 0 51 12 7 0 0 0 0 0 0 5 55 5 10 100 100 100 100 92 67 100 100 100 28 0 5 5 5 5 5 5 5 0 0 0
0 0 0 1 5 1 0 0 16 17 16 13 7 7 5 4 0 0 6 6 5 5 100 100 100 100 100 100 60 100 65 26 0 5 40 5 5 4 1 0 0 0 0
0 0 0 0 0 2 0 0 2 4 6 0 0 5 5 5 5 1 5 46 5 57 100 100 100 100 100 100 100 100 17 3 0 5 5 5 5 0 5 2 4 5 5
0 1 4 0 0 1 0 5 1 3 6 0 0 0 5 6 20 3 6 14 70 22 100 100 100 100 100 100 100 45 3 1 5 6 5 4 0 0 0 0 0 0 0
5 2 5 5 4 0 5 5 6 18 6 7 3 3 6 35 100 21 5 21 96 5 39 100 100 100 100 81 69 30 34 34 30 40 6 5 1 0 0 5 5 18 5
1 4 5 5 5 5 100 67 34 25 68 13 16 13 24 14 50 21 75 24 89 94 74 88 55 100 98 61 65 56 44 44 77 77 52 55 18 4 0 0 0 12 73
0 0 1 5 44 77 78 45 39 30 10 26 30 33 24 25 24 32 62 87 44 58 87 100 100 100 100 100 100 100 50 12 5 5 5 5 33 94 39 4 0 0 7
0 0 1 5 65 85 89 37 75 75 42 47 40 32 36 41 43 42 64 100 100 100 100 100 98 79 79 52 12 0 0 2 5 6 32 14 45 7 27 85 7 0 0
0 0 2 4 5 5 2 3 30 14 8 31 32 51 60 67 50 66 100 73 20 32 7 5 0 4 2 0 4 20 81 27 5 4 0 1 0 15 14 1 9 20 5
0 0 5 5 5 84 100 48 38 45 52 49 19 6 5 0 0 0 2 5 5 2 4 2 0 0 4 38 72 79 26 5 0 0 0 0 73 68 45 4 37 49 46
0 0 100 88 8 90 85 66 5 5 2 2 0 3 0 0 0 0 0 0 0 0 0 1 4 41 54 12 9 5 5 0 0 0 0 4 5 5 5 5 5 26 97
2 5 5 96 100 87 96 86 43 41 99 96 8 5 0 0 0 1 5 4 5 12 37 48 61 68 59 27 5 3 0 1 1 0 0 0 5 5 22 5 5 0 0
4 5 52 77 46 96 88 79 100 100 100 76 6 5 4 0 0 0 2 5 5 6 12 5 5 2 4 6 1 0 0 2 5 5 6 56 48 22 7 5 5 4 3
4 5 64 65 64 46 70 68 70 19 5 5 5 4 5 5 5 5 5 4 4 0 0 2 1 0 0 0 0 0 0 0 0 0 5 5 7 52 70 78 31 8 5
5 5 92 100 99 66 5 7 36 5 2 5 5 5 29 37 61 10 22 0 1 0 1 5 5 5 3 0 0 0 4 5 46 5 4 1 0 0 0 5 5 5 1
5 55 61 68 5 5 5 4 0 0 0 0 0 0 0 0 0 1 4 5 25 44 16 4 5 4 0 4 1 0 4 1 2 0 3 3 0 0 0 0 0 0 4

GFSSE_prec_cloud_024.txt.gz
Cloud_Cover
8 5 4 36 3 30 35 5 0 1 0 0 0 0 0 0 0 0 2 0 4 40 6 7 7 0 96 93 100 100 99 3 0 0 0 0 0 0 0 0 0 40 39
8 5 5 4 4 10 99 82 10 0 0 0 0 0 0 0 0 0 0 0 98 29 13 18 17 31 60 98 82 98 83 99 5 0 0 0 0 0 0 0 0 41 38
59 3 2 0 0 0 92 100 60 0 0 0 0 0 2 52 3 0 0 46 50 98 0 0 4 38 92 31 0 23 100 100 42 5 0 0 4 0 0 0 0 0 1
100 92 85 45 22 55 55 100 36 0 0 0 0 0 40 27 33 0 0 0 0 0 0 0 0 0 0 0 0 98 100 100 85 8 99 81 5 0 0 0 0 0 0
100 100 100 89 57 28 1 39 17 0 0 0 0 0 1 52 88 99 16 0 0 0 0 0 0 0 0 0 56 100 100 47 74 35 60 22 5 5 18 0 0 0 0
100 100 100 50 6 5 0 1 0 0 0 0 0 0 1 7 20 45 0 0 0 0 0 0 0 0 0 1 100 100 5 61 91 100 100 69 18 4 1 0 0 0 0
100 99 86 3 0 0 0 0 0 0 0 0 0 0 5 1 34 98 80 0 0 0 0 0 0 0 0 87 13 5 93 100 100 100 100 100 26 5 0 0 0 0 0
100 100 62 5 0 0 0 0 0 0 0 0 0 0 0 3 0 79 7 0 3 0 0 3 5 2 13 8 25 100 100 100 100 100 100 44 2 19 12 1 1 5 3
100 100 40 5 0 0 0 0 0 0 0 0 0 0 0 0 0 0 0 0 5 0 2 5 5 4 3 53 100 100 100 100 100 100 92 81 100 6 1 5 5 5 5
46 38 4 0 0 0 0 0 0 0 0 0 0 0 0 0 0 0 0 0 0 5 5 5 5 5 96 100 100 100 100 100 100 99 98 99 30 2 0 5 5 5 5
100 85 5 2 0 0 0 0 0 0 0 0 0 0 0 0 0 0 0 0 0 4 5 39 5 10 6 97 100 100 100 100 100 81 100 77 2 5 3 20 5 5 5
100 86 3 0 0 0 0 0 0 0 0 0 0 0 0 0 4 0 0 0 0 0 10 92 18 16 100 100 100 100 100 100 100 100 100 44 79 3 3 27 5 4 0
45 5 4 0 0 0 0 0 0 0 0 0 0 5 4 2 4 5 5 5 0 3 2 52 50 8 100 100 100 100 100 100 100 100 100 56 8 0 5 5 5 5 5
6 5 4 0 0 0 0 0 2 22 0 0 0 2 0 0 4 5 5 5 5 5 5 65 31 28 100 100 100 100 100 100 100 100 62 5 0 0 5 5 5 5 70
69 0 0 0 0 0 0 0 0 45 5 2 1 3 5 5 5 5 5 5 10 5 10 74 28 42 100 100 100 100 100 100 100 100 100 100 100 83 29 37 89 26 61
5 2 4 0 0 0 4 1 32 90 82 45 79 57 15 5 5 0 5 42 100 100 98 100 100 100 100 100 100 100 74 67 22 5 2 3 2 4 5 72 71 72 22
5 4 1 0 5 5 3 26 14 100 80 100 91 92 82 2 25 25 26 91 80 100 100 100 100 100 91 35 27 6 9 14 5 2 0 0 2 2 97 100 85 51 6
5 5 5 1 3 2 5 8 71 100 100 96 100 98 100 100 96 14 100 100 100 96 76 31 17 36 27 13 10 5 5 3 0 0 0 0 5 20 98 32 18 48 5
12 5 5 5 5 1 3 8 100 100 94 99 22 100 100 93 45 94 88 17 0 0 5 28 50 67 54 6 5 11 8 0 0 0 5 6 19 22 5 98 18 4 5
7 5 5 3 0 3 5 5 35 64 10 61 63 18 0 0 0 0 0 0 0 0 0 0 0 0 0 0 3 2 2 2 5 5 19 78 76 11 0 6 0 2 4
45 14 40 5 53 36 7 5 8 66 57 66 29 5 0 5 40 30 5 4 0 0 0 0 0 1 4 1 5 10 39 55 40 94 96 26 32 2 0 5 5 5 0
10 3 0 5 8 28 100 82 94 68 95 97 100 100 100 100 85 5 0 0 0 0 0 0 3 2 4 4 6 7 38 72 5 5 5 3 1 5 7 5 5 4 5
0 0 5 5 5 5 5 8 23 11 5 5 5 31 5 5 4 5 4 4 4 5 5 3 5 5 4 3 4 1 5 14 5 7 7 5 5 5 5 5 5 5 5
1 5 5 5 5 5 5 5 5 5 5 5 5 5 5 0 2 2 0 0 0 1 0 1 5 9 5 6 5 5 3 0 1 4 37 35 69 93 89 38 24 32 14
5 5 5 5 5 5 5 5 5 5 1 0 0 0 0 0 0 0 2 0 0 0 0 0 5 5 0 5 5 5 7 17 5 1 2 1 2 3 2 1 5 5 5
5 16 8 5 5 5 12 5 5 5 3 3 0 0 0 0 0 0 2 5 5 5 54 21 5 1 0 1 3 4 5 5 5 5 5 3 1 5 5 5 2 0 0

GFSSE_prec_cloud_027.txt.gz
Cloud_Cover
100 100 100 10 4 43 13 8 0 0 0 0 0 0 0 0 0 2 0 0 3 48 5 38 3 4 100 100 100 99 36 1 5 0 0 0 4 0 2 0 0 0 58
100 100 100 5 2 4 97 80 0 0 0 0 0 0 0 0 0 0 0 0 27 30 0 12 16 84 60 96 26 25 41 100 20 0 3 22 5 0 0 0 0 0 51
100 100 20 2 5 8 66 95 7 0 0 0 0 0 0 3 3 0 0 0 49 0 0 0 0 16 94 92 0 0 0 1 20 0 94 100 6 2 0 1 0 0 0
100 78 62 88 100 100 74 18 2 1 0 0 0 0 25 69 66 0 0 0 0 0 0 0 0 0 0 0 0 0 0 5 5 5 100 100 22 21 92 5 0 0 0
99 100 99 100 100 100 92 74 16 3 0 0 0 0 8 64 88 29 0 0 0 0 0 0 0 0 0 0 0 0 0 0 0 96 100 92 3 5 21 73 3 4 0
100 100 100 100 100 100 100 100 86 4 3 0 0 0 0 2 73 37 0 0 0 0 0 0 0 0 0 0 0 0 0 0 2 100 98 5 57 98 100 100 46 4 0
100 100 95 100 100 100 98 93 15 1 0 0 0 0 0 0 0 40 24 0 0 0 0 0 0 0 0 0 0 0 0 0 96 100 65 27 100 100 100 100 88 3 5
100 100 100 100 100 100 100 5 5 1 0 0 0 0 0 0 0 0 0 0 0 0 2 0 3 1 10 26 11 8 0 3 100 100 97 100 100 100 100 100 10 10 16
100 100 100 100 100 98 6 15 5 0 0 0 0 0 0 0 0 0 0 0 0 0 0 0 5 0 2 5 7 5 4 100 98 97 100 100 100 100 100 100 76 18 32
100 100 100 100 100 100 99 19 4 0 0 0 0 0 0 0 0 0 0 0 0 0 0 0 2 0 5 5 30 5 5 13 100 84 100 100 100 100 90 6 5 94 2
100 100 100 100 100 100 100 58 2 1 0 0 0 0 0 0 0 0 0 0 0 0 0 0 3 3 88 88 40 38 68 96 100 100 100 100 100 100 97 79 22 5 7
32 46 10 52 78 19 36 16 4 0 0 0 0 0 0 1 0 0 2 3 0 0 0 0 0 0 5 78 31 82 86 100 100 100 100 100 100 100 100 100 33 5 8
100 76 69 40 5 10 6 5 0 0 0 0 0 0 0 2 1 1 0 5 4 2 0 0 0 2 0 7 86 38 100 100 100 100 100 100 100 100 92 16 79 44 2
38 5 22 5 5 49 63 4 1 1 0 0 0 2 3 8 44 6 4 5 5 5 5 5 2 23 20 95 86 74 66 100 100 100 100 100 100 100 100 100 55 12 3
5 5 5 38 37 99 30 5 0 2 32 14 5 5 0 3 4 5 5 5 5 16 41 68 100 100 100 71 93 78 89 100 100 100 100 100 100 100 97 12 5 0 1
23 66 24 62 100 63 50 2 0 10 100 100 82 100 46 3 4 5 48 54 100 100 100 100 100 100 100 58 34 39 93 100 100 100 100 82 100 36 5 5 5 100 82
45 100 23 100 100 100 100 4 4 100 100 100 100 100 100 49 5 56 63 96 100 100 100 100 92 19 5 5 5 16 93 10 34 78 100 99 67 8 5 0 0 14 3
53 14 6 6 8 41 5 5 32 100 100 100 100 100 100 100 100 100 100 100 100 97 35 0 0 0 0 5 5 5 5 5 5 4 3 3 5 5 5 0 3 2 86
100 94 33 66 5 5 76 5 80 100 100 100 100 100 100 96 77 82 73 35 0 0 0 0 0 0 0 0 2 5 5 5 4 5 0 0 1 0 0 4 9 21 47
99 100 100 100 100 61 64 15 11 100 100 100 100 90 82 14 9 8 3 0 4 3 1 0 0 0 0 0 0 0 0 0 0 0 0 1 0 3 4 5 5 5 52
100 100 100 100 100 60 37 5 5 5 41 8 13 78 96 64 88 71 93 64 20 5 2 0 0 0 0 0 0 0 0 2 3 1 5 4 5 5 5 5 5 5 5
96 92 78 11 71 37 5 5 5 5 5 12 5 10 12 47 24 16 5 5 5 1 5 4 0 0 0 0 0 0 3 2 1 0 2 0 0 4 4 5 5 5 7
48 74 71 97 69 28 5 5 5 5 1 2 1 2 5 33 65 45 5 2 0 0 0 0 0 0 0 0 0 0 0 2 28 52 8 21 5 5 9 9 9 22 17
91 20 16 53 4 5 5 5 5 1 0 5 5 3 4 1 4 0 0 0 0 0 0 0 0 0 0 0 2 0 0 0 0 1 47 88 99 100 84 97 100 100 91
6 5 17 5 2 3 5 1 5 3 55 92 54 0 5 1 0 0 0 0 0 4 5 5 4 5 0 0 0 0 0 0 0 0 0 0 0 3 24 95 100 100 100
8 5 5 2 4 0 5 5 57 51 5 0 0 0 0 0 0 0 0 0 5 5 5 5 5 5 5 0 0 0 0 0 0 0 0 0 1 2 5 6 4 3 3

GFSSE_prec_cloud_030.txt.gz
Cloud_Cover
78 20 92 100 100 100 98 5 1 0 0 0 0 0 0 0 7 88 0 0 4 20 54 11 0 2 98 100 100 99 3 0 0 0 0 0 1 0 0 0 0 0 0
9 54 98 100 100 100 69 5 4 0 0 0 0 0 0 0 0 0 0 0 0 0 1 1 17 3 81 50 37 0 0 0 0 0 0 0 5 4 0 0 0 0 0
42 44 96 100 100 100 98 5 3 5 0 0 0 0 0 0 3 0 0 0 0 0 0 0 0 11 27 2 0 0 0 0 0 0 0 0 5 8 0 80 5 1 0
50 100 99 100 89 72 11 8 100 9 5 3 0 0 18 95 39 0 0 0 0 0 0 0 0 0 0 0 0 0 0 0 0 0 0 0 4 28 5 100 89 5 4
5 48 100 72 100 44 5 100 99 98 81 92 9 9 10 74 44 31 0 0 0 0 0 0 0 0 0 0 0 0 0 0 0 0 0 4 5 5 93 100 20 4 5
5 16 100 99 98 62 100 100 100 100 21 43 99 72 5 16 10 0 0 0 0 0 0 0 0 0 0 0 0 0 0 0 0 0 0 0 5 5 100 100 13 38 55
5 5 96 100 65 86 100 100 100 100 66 99 14 2 1 1 71 6 0 0 0 0 0 0 0 0 5 0 0 0 4 8 4 5 3 3 4 13 100 41 10 100 100
77 10 85 100 100 100 100 100 100 100 100 100 19 4 5 3 29 0 0 0 0 0 0 0 1 0 5 69 63 96 21 96 5 5 3 5 5 68 89 99 93 100 100
100 100 50 100 100 100 100 100 100 100 97 49 22 57 5 2 2 0 0 0 0 0 0 0 0 0 5 5 100 5 5 83 40 6 5 5 9 100 100 94 100 100 100
96 100 100 100 100 100 100 100 100 100 100 100 32 20 5 1 3 0 0 0 0 0 0 0 0 0 0 4 5 5 5 19 57 65 5 21 100 100 100 100 100 100 100
100 97 100 100 100 100 100 100 100 100 100 100 91 35 12 2 0 0 0 0 0 0 0 0 0 0 0 3 4 19 96 88 85 39 5 5 28 15 55 100 100 100 100
67 100 38 100 90 98 100 100 62 46 71 15 40 5 2 0 0 0 3 5 5 5 5 5 5 1 0 0 5 3 1 100 100 69 67 100 67 95 100 100 100 100 100
100 100 87 82 26 56 56 100 73 37 20 10 4 3 0 4 5 5 5 2 2 3 5 5 5 5 4 3 4 82 16 8 100 100 100 100 80 100 100 100 100 100 100
99 94 95 37 83 42 11 19 79 24 19 14 11 5 2 0 1 1 3 7 10 68 100 100 99 100 100 100 72 27 43 19 3 39 26 100 100 100 100 100 100 100 100
5 8 53 24 66 8 5 5 36 8 21 18 61 16 5 0 3 1 59 77 100 100 93 100 100 100 100 100 100 32 42 5 40 12 15 5 27 86 100 100 100 100 100
24 50 5 18 62 5 10 8 5 6 24 78 100 91 89 85 42 42 11 11 20 100 100 100 100 100 100 39 24 14 10 5 5 5 17 5 7 53 84 100 81 51 100
100 100 100 5 35 76 97 95 98 97 100 100 100 100 100 100 56 73 58 88 99 100 100 100 100 16 5 5 5 5 18 7 5 5 4 5 5 5 6 8 65 100 60
83 100 33 5 64 57 100 98 56 100 100 100 100 100 100 100 100 100 100 100 100 93 33 0 0 0 0 0 0 0 0 0 0 0 0 1 4 5 5 5 5 5 6
100 100 100 14 100 68 100 62 74 100 100 100 100 100 100 100 94 78 51 6 5 5 5 5 1 0 0 0 0 0 0 0 0 0 0 0 0 0 0 0 0 1 1
100 98 82 84 100 100 100 80 75 100 100 100 100 100 98 12 5 6 7 5 28 52 57 5 5 5 5 4 4 2 0 0 0 0 0 0 0 0 0 0 0 0 0
100 100 100 100 100 100 100 100 100 100 100 100 100 69 3 5 5 0 15 60 62 8 5 5 5 8 16 3 0 0 0 0 0 0 0 0 0 0 2 5 5 3 5
25 92 84 100 100 100 100 100 100 94 43 100 70 1 0 0 0 0 3 0 0 2 0 0 0 0 0 0 0 0 0 2 5 4 5 5 0 0 0 0 0 3 4
5 5 77 64 51 100 100 100 50 41 53 59 1 0 5 5 2 0 0 0 0 0 0 0 0 0 0 0 0 0 0 0 1 36 30 6 2 0 0 0 0 0 0
34 22 56 56 59 63 82 73 5 28 40 0 2 5 5 5 0 0 0 0 0 0 0 0 0 0 2 5 3 0 0 0 0 0 1 2 0 5 5 5 5 5 1
68 95 22 5 49 90 77 55 5 5 3 5 4 4 5 0 0 0 0 0 0 0 0 0 0 0 2 0 0 0 0 0 0 0 0 0 0 0 0 3 5 4 0
43 12 31 80 66 5 8 5 5 5 5 5 2 0 0 0 0 0 0 0 0 0 0 0 5 5 4 3 0 0 0 0 0 0 0 0 0 0 0 5 5 1 0

GFSSE_prec_cloud_033.txt.gz
Cloud_Cover
4 12 5 5 100 81 99 100 100 100 8 0 0 0 0 2 64 51 0 0 0 0 87 4 0 0 67 33 100 0 0 0 0 0 0 0 0 0 1 0 0 0 0
4 17 0 7 55 6 100 100 100 100 5 3 3 0 0 0 17 0 0 0 0 0 14 48 10 57 98 99 42 4 0 0 0 0 0 0 0 0 0 0 0 3 5
12 18 3 0 5 36 100 96 86 100 85 5 2 0 0 0 0 0 0 0 0 0 0 0 0 0 44 5 0 0 0 0 0 0 0 0 0 0 0 0 2 5 4
52 20 3 4 0 56 28 100 77 8 27 5 0 1 6 78 19 0 0 0 0 0 0 0 0 0 0 0 0 0 0 0 0 0 0 0 0 0 0 0 1 5 5
48 9 0 0 6 20 91 89 100 64 31 39 5 10 32 99 81 38 38 45 7 0 0 0 0 0 0 0 0 0 0 4 14 0 0 0 0 0 0 80 100 17 5
74 5 5 4 0 19 100 99 81 100 100 97 6 8 44 100 100 5 0 0 0 0 0 0 0 0 0 0 0 0 2 0 0 0 0 0 3 4 1 0 52 6 5
100 99 33 5 5 12 5 76 100 100 100 100 100 100 49 86 100 47 4 3 0 0 0 0 0 0 0 0 2 2 5 1 0 1 0 5 6 5 5 4 5 87 96
100 100 100 100 52 23 5 15 100 100 100 94 84 82 77 100 98 18 5 5 1 0 3 0 0 0 0 4 63 80 92 6 4 5 51 80 70 24 50 94 24 39 40
48 100 100 100 100 98 5 13 60 100 100 100 100 100 96 80 90 100 29 5 5 4 2 0 0 0 0 0 1 5 4 5 33 20 30 100 100 89 58 93 15 24 43
90 100 100 100 100 100 100 100 99 100 100 100 100 100 100 100 100 100 41 5 5 0 0 0 0 0 0 0 0 0 0 0 1 0 9 10 5 87 100 69 6 70 100
98 100 66 74 94 100 100 100 100 100 100 100 100 100 100 42 39 40 4 5 1 0 0 0 3 2 4 0 0 0 0 4 0 1 90 22 72 47 27 100 89 100 100
73 69 91 71 60 44 54 13 23 98 100 100 88 26 15 26 59 27 6 4 0 4 5 5 42 64 56 53 54 71 33 3 1 2 13 93 100 100 94 47 53 82 100
96 98 87 98 63 45 40 31 41 32 42 38 34 92 74 42 74 5 5 5 5 5 5 5 32 22 17 31 100 27 84 64 47 82 61 7 5 100 100 100 100 100 100
100 100 100 100 100 87 92 41 36 35 97 35 8 11 33 10 5 5 5 5 3 4 2 1 16 92 100 100 96 100 28 97 100 100 100 87 32 5 28 99 100 100 100
97 100 99 52 87 83 100 35 62 25 30 18 14 36 21 51 15 13 0 2 0 1 99 100 100 100 100 100 97 4 5 4 31 85 100 100 98 100 41 11 31 65 100
100 100 100 42 25 88 98 98 74 15 13 80 98 100 100 100 100 100 71 42 68 100 100 100 100 100 95 18 36 5 0 5 5 0 1 25 58 83 6 22 8 11 5
75 100 100 61 27 33 71 98 79 37 100 98 100 100 100 100 100 99 100 97 57 62 100 100 74 0 5 4 5 3 0 4 0 0 0 0 0 1 2 4 5 5 5
1 26 5 34 33 86 100 100 36 100 100 100 100 90 100 100 100 100 100 100 57 28 0 1 5 5 2 5 5 5 5 2 0 0 0 0 0 0 0 0 0 0 0
0 86 5 5 56 100 100 84 80 100 100 100 100 100 100 100 100 100 83 5 5 1 2 2 2 5 5 5 5 1 1 0 0 0 0 0 0 0 0 0 0 0 0
0 1 22 29 5 77 100 100 100 100 100 100 100 100 100 100 73 87 9 5 0 0 0 2 3 5 4 2 0 0 0 0 0 0 0 0 0 0 0 0 1 4 4
0 0 32 56 29 72 94 100 100 100 100 100 100 100 100 100 100 52 5 5 0 0 0 0 0 0 0 0 0 0 0 0 0 0 0 3 2 0 0 0 5 5 92
0 0 0 44 100 97 100 100 100 100 100 100 100 100 100 99 75 6 5 2 0 0 0 0 0 0 0 0 0 0 0 1 0 2 4 1 0 0 0 0 0 0 0
0 0 0 7 68 96 100 100 100 100 100 100 100 100 90 73 10 5 3 0 0 0 0 0 0 0 0 0 0 0 0 0 0 1 0 0 0 0 0 0 0 0 0
0 0 0 5 24 56 100 100 100 100 100 100 99 31 68 24 28 5 0 0 0 0 0 0 0 0 0 0 0 0 0 0 0 0 0 0 4 4 5 5 5 5 5
0 0 4 5 27 64 58 81 100 100 72 71 59 73 89 19 5 0 0 0 0 0 0 0 0 0 0 0 0 0 0 0 0 0 0 0 0 5 5 5 5 5 5
0 0 5 15 80 73 46 80 65 54 48 54 90 74 5 5 0 0 0 0 0 0 0 0 0 0 0 0 4 0 0 0 0 0 0 0 0 0 1 4 5 4 5

GFSSE_prec_cloud_036.txt.gz
Cloud_Cover
2 3 0 61 8 0 0 0 8 100 100 100 91 10 10 21 63 20 3 0 0 0 36 3 0 0 24 91 87 38 0 0 0 0 0 0 0 0 0 8 0 0 2
0 9 0 6 24 32 10 0 5 5 44 100 100 7 20 19 52 13 0 0 0 0 24 12 9 100 89 100 100 22 0 0 0 0 0 0 0 0 0 0 7 0 4
4 35 0 0 48 0 0 0 0 5 44 18 5 5 5 5 4 0 0 0 0 0 0 0 11 99 96 100 2 0 0 0 0 0 0 0 0 0 0 0 0 0 0
8 20 0 0 0 0 0 0 0 2 61 17 5 4 4 26 0 5 4 4 2 3 0 0 4 4 2 2 0 0 0 0 0 0 0 0 0 0 0 0 1 14 2
50 14 0 0 0 0 0 0 0 0 1 15 7 5 100 100 22 5 1 3 0 0 4 0 0 0 0 0 0 0 0 0 0 0 0 0 0 0 0 0 48 100 24
90 35 5 1 0 0 82 0 0 2 0 0 5 14 100 100 92 5 5 5 5 16 5 2 0 0 0 0 0 0 0 0 0 0 0 0 0 0 0 0 5 5 4
74 45 100 45 1 0 55 1 2 9 4 5 5 5 67 98 95 11 31 15 16 5 5 8 5 2 0 1 23 33 22 1 0 0 0 1 0 4 5 5 11 97 35
98 35 20 100 59 5 5 8 5 4 0 0 1 4 11 91 100 97 95 58 6 4 70 100 28 4 0 0 16 21 43 0 0 1 50 7 3 28 49 100 100 100 100
100 93 25 36 100 100 100 99 15 6 51 5 4 0 65 100 100 100 96 55 79 100 62 20 5 1 0 0 0 0 0 0 0 8 1 13 19 100 100 100 100 100 100
100 100 100 99 47 98 100 100 100 74 74 100 87 69 99 100 100 100 100 100 100 69 32 5 3 0 0 0 0 0 0 0 0 0 0 11 1 6 13 2 66 99 52
100 100 100 100 68 40 45 100 97 38 93 98 100 5 12 41 100 100 100 100 59 54 49 5 3 0 0 0 0 0 0 2 2 0 2 2 1 3 25 84 87 82 100
94 100 100 100 100 100 98 100 59 18 25 5 30 25 50 12 80 99 75 74 5 5 5 5 5 4 5 4 5 5 5 5 5 5 5 5 5 5 5 5 100 100 100
100 100 100 100 100 100 100 100 100 63 34 7 5 29 6 7 15 13 49 66 7 3 2 5 5 5 40 1 17 25 25 5 5 5 1 5 12 7 66 5 21 8 100
100 100 100 100 100 100 100 100 100 100 56 47 6 8 5 42 48 71 65 5 5 5 5 6 42 92 100 100 100 88 5 5 5 5 5 5 71 98 100 96 6 56 90
48 86 96 100 100 100 99 100 100 100 100 59 14 23 69 92 72 15 5 5 5 33 85 100 100 100 100 96 24 8 5 5 3 0 0 0 0 0 1 2 5 5 5
0 0 1 100 100 96 100 90 87 100 100 81 100 100 100 100 100 98 100 100 100 100 100 100 100 81 3 0 0 0 0 0 4 5 4 0 0 0 0 0 0 0 3
0 0 0 0 0 5 6 70 59 100 100 100 100 100 100 100 100 100 100 100 92 83 100 48 10 5 2 2 0 0 0 4 0 0 0 0 0 0 0 0 0 0 0
0 0 0 0 0 0 2 8 19 15 78 100 100 100 100 100 100 100 100 100 100 8 68 57 18 5 2 0 0 0 0 0 0 0 0 0 0 0 0 0 0 0 0
0 0 0 0 0 0 0 5 5 28 100 100 100 100 100 100 100 100 100 100 54 71 81 87 6 5 5 1 0 0 0 0 0 0 0 0 0 0 0 0 0 0 0
0 0 0 0 0 0 2 5 14 24 100 100 100 100 100 100 100 100 100 100 24 58 100 30 5 5 12 0 0 0 0 0 0 0 0 0 0 0 0 0 4 4 1
0 0 0 0 0 0 0 4 5 5 56 100 100 100 100 100 100 87 88 74 98 100 84 5 5 60 3 0 0 0 0 0 0 0 0 0 0 0 0 0 0 0 0
0 0 0 0 0 0 0 0 5 27 100 100 100 100 100 100 100 97 100 100 97 49 11 24 49 5 0 0 0 0 0 0 0 0 0 0 0 0 0 0 0 0 0
0 0 0 0 0 0 0 0 4 100 100 100 100 100 100 100 94 100 78 56 54 75 46 54 8 0 0 0 0 0 0 0 0 0 1 1 0 0 0 0 0 0 0
0 0 0 0 0 0 0 4 5 58 100 100 100 100 100 100 100 83 58 32 61 73 49 6 5 0 0 0 0 0 0 0 0 0 0 0 0 0 0 2 0 0 0
2 3 0 0 0 0 0 5 76 40 90 100 100 100 40 15 15 50 52 68 88 49 5 5 0 0 0 0 0 0 0 0 0 0 0 0 0 5 0 4 5 5 5
0 0 0 0 0 0 0 14 68 83 100 100 100 65 8 34 68 35 50 72 16 5 5 0 0 0 0 0 0 0 0 0 0 0 0 0 0 0 0 1 4 5 2

GFSSE_prec_cloud_039.txt.gz
Cloud_Cover
0 0 0 98 100 0 0 0 0 6 4 93 100 96 98 53 64 5 5 3 5 1 46 2 2 0 13 10 63 99 0 0 0 0 0 0 0 0 0 0 0 0 0
4 0 0 31 75 0 0 0 0 1 0 6 15 36 100 100 99 100 26 4 4 0 97 32 37 45 99 92 100 99 0 0 0 0 0 0 0 0 0 0 0 0 0
5 3 0 0 0 75 0 0 0 0 0 0 3 5 99 31 22 5 1 6 9 2 6 5 93 100 100 100 88 18 0 4 0 0 0 0 0 0 0 0 0 0 0
37 5 4 0 0 0 0 0 0 0 0 0 0 1 8 74 5 5 5 21 71 1 3 3 9 98 31 46 0 0 0 0 0 0 0 0 0 0 0 0 0 0 0
23 63 4 0 0 0 0 0 0 0 0 0 0 5 96 1 4 5 5 31 7 5 3 5 5 4 2 0 0 0 0 0 0 0 0 0 0 0 0 0 0 4 35
100 37 5 5 3 0 0 0 0 0 0 0 0 26 75 36 79 0 0 1 5 5 3 0 2 2 0 0 16 0 1 0 0 0 0 0 0 0 0 5 6 9 3
100 100 64 42 0 0 1 0 0 1 2 0 0 0 74 100 100 11 0 6 30 13 4 3 4 2 0 8 28 57 70 11 10 0 0 0 0 2 14 0 3 5 81
100 100 100 83 5 5 5 41 6 11 0 0 0 0 0 99 92 84 6 7 99 100 49 85 15 6 12 67 19 21 30 0 0 0 0 0 0 0 70 100 4 5 36
100 100 100 100 95 47 9 12 55 8 5 0 0 0 5 91 88 96 51 4 81 100 100 100 100 100 84 7 1 5 5 0 0 0 0 0 0 0 10 11 4 86 100
100 100 100 100 100 100 100 26 7 57 100 81 25 56 8 6 72 93 89 15 7 44 88 100 98 85 7 5 5 4 0 0 0 0 0 0 0 0 1 0 0 0 48
99 86 100 100 100 100 100 100 100 41 9 99 100 100 100 40 23 29 51 5 5 5 19 33 60 68 18 10 6 2 0 0 4 0 0 0 0 1 6 8 3 3 2
100 100 96 100 100 100 100 100 100 100 88 36 16 57 63 64 19 5 5 5 5 5 5 5 44 12 47 5 5 4 2 5 5 58 16 4 2 5 2 4 5 5 22
16 100 100 100 100 100 100 100 100 100 100 97 42 30 11 33 9 64 33 6 49 10 6 24 76 16 6 17 22 62 19 0 3 0 4 3 5 0 0 0 0 5 5
0 0 90 99 100 100 100 100 98 100 98 98 64 29 5 15 65 39 14 77 84 82 48 43 60 99 100 100 100 48 5 0 0 0 2 1 0 0 0 0 0 0 0
0 0 0 81 100 100 100 100 91 86 100 100 81 12 13 53 51 52 66 6 9 48 69 100 100 100 28 40 5 4 5 0 0 0 0 0 0 0 0 0 0 0 0
0 0 0 0 57 96 100 100 96 52 47 38 66 93 100 100 100 98 100 100 100 100 100 90 19 14 30 23 5 5 5 4 0 0 0 0 0 0 0 0 0 0 0
0 0 0 0 0 56 80 55 80 99 18 45 99 100 100 100 100 100 100 100 100 86 38 15 11 54 94 99 73 5 16 5 3 4 0 0 0 0 0 0 0 0 0
0 0 0 0 0 5 18 22 27 6 9 89 100 100 100 100 100 100 100 100 89 85 42 6 96 100 92 99 6 25 5 5 0 5 0 0 0 0 0 0 0 0 0
0 5 0 0 0 0 28 19 1 0 5 17 84 100 100 79 100 100 100 100 100 85 52 84 100 100 85 87 6 5 5 5 4 3 0 0 0 0 0 0 0 0 0
0 0 5 0 0 7 28 0 0 18 28 50 95 100 100 66 99 100 100 100 100 100 100 100 100 100 99 32 5 5 5 4 5 0 0 0 0 0 0 0 0 0 0
0 0 0 0 7 0 0 1 7 12 50 74 81 100 100 85 100 100 100 100 100 100 100 100 100 100 98 14 5 5 5 5 3 0 0 0 0 0 0 0 0 0 0
0 0 0 0 0 0 0 0 0 0 69 61 73 95 100 95 100 100 100 100 100 100 100 100 81 68 28 12 47 50 7 5 0 0 0 0 0 0 0 0 0 0 0
0 0 0 0 0 0 0 0 0 31 88 100 98 100 100 100 100 100 100 100 100 100 86 28 21 52 75 99 70 48 7 5 0 0 0 0 0 0 0 0 0 0 0
0 0 0 0 0 0 0 0 0 0 12 66 92 100 100 100 100 98 56 100 100 86 64 37 15 51 55 47 16 5 5 0 0 5 1 0 0 0 0 0 0 1 0
0 0 0 0 0 0 0 0 0 0 18 35 100 100 100 100 92 26 60 94 100 100 98 35 38 5 5 5 5 5 5 0 0 0 5 0 4 5 5 5 5 9 10
0 0 0 0 0 0 0 0 0 0 18 72 100 100 100 100 14 56 88 100 100 100 29 16 13 5 5 5 5 5 3 0 0 0 0 0 0 0 4 5 92 60 2

GFSSE_prec_cloud_042.txt.gz
Cloud_Cover
6 3 5 8 84 34 1 0 0 0 8 5 13 13 17 45 40 8 5 5 5 44 7 0 0 3 36 14 61 84 0 0 0 0 0 0 0 5 0 0 0 0 0
5 2 0 52 75 24 0 0 2 11 2 5 7 0 5 12 10 100 72 19 5 22 44 39 91 0 93 80 89 90 0 0 0 0 0 0 0 0 0 1 0 0 0
5 5 4 91 85 1 0 0 0 0 0 0 1 0 4 23 9 5 17 5 5 4 8 44 100 100 100 100 100 78 0 0 0 0 0 0 0 0 0 0 0 0 0
11 5 24 3 1 0 0 0 0 0 0 0 0 0 0 1 0 4 54 5 5 4 4 6 100 98 100 61 8 0 0 0 0 0 0 0 0 0 0 0 15 2 0
36 75 6 0 54 6 0 0 0 0 0 0 0 0 0 0 0 0 1 5 4 0 0 4 5 26 58 4 0 0 0 0 1 0 2 0 0 0 0 0 0 2 33
64 16 94 57 0 0 0 0 0 0 0 0 0 0 0 0 0 0 0 0 0 5 0 0 2 5 5 5 5 4 0 0 3 16 15 2 0 0 0 0 0 0 3
38 75 29 8 78 9 0 0 0 0 0 0 0 0 0 0 0 0 0 0 0 0 5 5 4 5 27 97 97 58 78 100 30 32 17 12 10 0 67 74 1 0 24
84 46 57 19 5 5 5 5 0 0 0 0 0 0 0 0 0 0 0 0 0 0 0 14 5 4 99 100 58 100 100 100 48 16 8 9 0 0 8 93 6 5 2
41 100 99 93 100 100 100 98 83 3 1 5 5 2 3 4 5 0 0 0 0 62 97 99 95 76 33 43 33 75 54 76 26 18 15 9 0 0 1 23 6 7 8
2 5 84 100 100 100 100 100 100 92 6 5 38 100 100 100 74 7 4 5 21 100 97 89 17 77 5 5 5 5 5 5 35 17 20 9 0 0 13 1 9 5 5
0 2 6 32 100 100 100 100 100 100 100 100 67 36 26 15 30 13 68 100 100 95 42 47 5 5 4 5 5 5 5 44 43 26 37 5 1 2 5 3 0 1 1
0 0 4 6 48 91 100 100 100 100 100 100 100 100 100 100 96 99 37 47 100 85 89 99 20 5 10 57 77 14 28 22 23 15 15 2 0 1 0 0 0 0 0
0 0 0 4 46 56 82 89 100 100 100 100 100 100 100 100 100 95 43 7 5 21 18 25 16 28 38 67 65 50 8 15 23 5 5 4 0 0 0 0 0 0 0
0 0 4 2 67 99 95 69 90 100 100 97 94 99 100 100 100 100 80 63 37 9 12 22 29 14 100 78 73 61 8 12 38 36 5 5 0 2 0 0 0 0 0
0 0 0 0 1 12 100 100 100 90 100 100 96 50 38 56 63 48 94 71 27 82 89 43 10 76 65 98 99 55 52 5 91 5 27 5 5 5 3 0 0 0 0
0 0 0 0 0 1 100 100 98 100 100 100 98 64 20 23 64 50 77 91 100 100 100 96 65 55 85 100 78 34 38 33 17 64 9 15 5 5 5 0 0 0 0
0 0 0 0 0 0 10 100 62 24 64 100 86 29 82 75 57 77 91 100 90 100 100 100 71 89 97 92 100 40 21 30 74 89 62 34 6 6 6 5 1 0 0
0 0 0 0 0 0 0 14 12 21 47 72 14 69 100 73 91 89 96 100 72 68 100 100 100 100 100 100 100 100 100 82 100 71 75 88 5 35 5 5 1 0 0
0 0 0 0 0 0 0 0 13 32 43 71 48 29 38 94 79 85 85 91 81 5 10 83 100 100 100 97 100 100 100 100 100 78 69 58 53 8 5 5 4 0 0
0 0 0 0 0 0 0 0 18 80 92 97 52 2 30 66 70 35 69 47 6 5 53 80 100 97 100 100 100 100 100 100 100 94 45 74 42 82 6 5 2 0 0
0 0 0 0 0 0 0 0 28 76 55 15 6 16 52 66 40 13 87 41 5 7 22 100 100 100 100 100 96 100 100 100 96 94 99 64 28 22 5 5 0 0 0
0 0 0 0 0 0 0 0 7 17 59 78 100 90 100 100 100 100 65 6 96 100 100 100 100 100 100 100 100 96 63 92 93 60 44 20 43 5 5 0 0 0 0
0 0 0 0 0 0 0 3 17 8 70 100 100 100 90 94 100 100 95 100 57 42 45 98 92 98 100 98 93 72 74 65 27 5 5 5 5 4 3 0 0 0 0
0 0 0 0 0 0 0 0 0 0 21 98 100 100 100 97 99 80 26 13 59 69 77 100 96 64 63 85 96 83 63 25 18 36 4 1 5 0 0 0 0 0 0
0 0 0 0 0 0 0 0 0 1 61 88 100 100 100 98 100 63 34 55 99 42 69 100 83 52 85 84 42 60 5 6 5 5 7 5 5 5 0 0 4 5 3
0 0 0 0 0 0 0 0 0 16 5 54 100 100 100 100 100 46 5 12 9 32 32 100 58 62 26 44 7 5 5 6 5 5 5 10 5 5 5 5 1 0 0

GFSSE_prec_cloud_045.txt.gz
Cloud_Cover
32 4 5 5 31 100 13 5 5 9 14 19 7 16 0 4 0 0 2 4 5 4 4 5 2 5 22 53 16 82 2 1 0 0 0 0 0 0 0 0 0 0 0
5 5 0 5 10 7 1 5 5 6 9 19 14 18 18 14 0 4 51 94 91 51 51 56 36 5 49 94 81 67 0 0 0 0 0 0 0 0 0 16 0 0 0
2 2 3 0 4 1 0 3 19 2 5 5 14 9 30 30 0 3 44 12 35 85 6 96 47 25 100 100 100 81 0 0 0 0 0 0 0 0 0 0 0 0 0
5 5 32 2 0 0 0 9 10 0 0 0 4 2 31 6 0 0 5 3 5 4 0 95 100 100 100 100 70 3 4 2 0 27 3 0 0 1 0 0 1 0 0
5 5 5 3 0 2 0 0 0 0 0 0 0 0 0 0 0 0 0 0 0 0 0 2 71 43 97 43 5 1 0 0 41 34 5 5 6 5 5 5 0 0 1
5 5 5 5 7 12 0 0 0 0 0 0 0 0 0 0 0 0 0 0 0 0 0 0 0 1 1 0 0 0 0 2 98 63 14 17 45 5 10 7 0 0 0
5 13 9 2 5 5 2 5 0 0 0 0 0 2 2 5 0 0 0 0 0 0 0 0 0 0 0 0 5 5 1 5 64 93 96 28 20 5 5 98 91 6 1
4 8 16 5 5 5 5 5 5 2 1 0 0 1 3 0 9 0 5 3 2 0 3 3 2 0 5 4 85 99 8 5 6 32 27 21 5 5 5 88 19 13 24
53 30 14 45 59 87 25 31 76 63 34 5 5 5 5 4 9 5 5 5 5 5 58 50 13 5 58 100 97 12 5 5 8 26 12 66 5 5 5 20 11 5 4
5 5 5 30 68 38 99 100 100 100 56 81 61 58 8 5 11 96 5 5 7 81 64 81 54 88 100 100 88 5 5 5 34 100 100 54 5 5 11 5 5 5 0
5 1 0 12 92 100 75 35 92 100 100 100 100 100 100 99 78 8 12 8 5 78 92 83 34 94 100 98 66 80 44 94 99 99 96 13 40 5 6 28 5 5 3
0 0 0 3 16 45 100 88 81 97 100 100 100 100 100 100 100 100 98 78 55 58 100 100 100 22 7 99 79 71 23 29 13 21 30 43 8 5 11 35 5 5 6
0 0 0 0 10 16 100 77 92 100 87 100 100 100 100 100 100 100 100 100 100 100 100 100 93 96 95 15 5 5 5 13 5 5 12 83 37 98 22 20 17 5 5
0 0 0 0 0 6 37 90 100 98 100 100 35 88 100 100 100 100 100 100 100 100 100 100 100 100 39 7 16 80 32 7 17 42 100 98 87 95 99 40 82 22 5
0 0 0 0 0 2 9 17 50 100 98 93 81 4 77 82 95 91 99 99 100 95 100 98 100 100 99 49 70 45 6 21 7 14 99 94 88 88 74 82 7 7 5
0 0 0 0 0 0 6 98 9 35 99 100 100 10 12 35 66 100 100 96 94 52 27 54 86 87 48 37 30 19 42 38 25 61 100 98 99 89 100 100 44 74 12
0 0 0 0 0 0 0 96 98 15 100 100 100 31 26 8 72 99 100 98 51 72 56 27 74 89 93 76 20 88 99 100 100 98 90 100 100 100 100 100 100 80 37
0 0 0 0 0 0 0 26 100 3 100 100 100 95 4 5 0 98 88 97 32 59 25 5 5 5 3 5 5 78 85 90 100 100 100 100 100 100 100 100 100 91 47
0 0 0 0 0 0 0 3 10 1 96 100 100 98 13 7 0 4 99 58 89 11 5 5 5 5 0 4 5 84 97 100 100 100 100 100 100 100 100 100 89 97 87
0 0 0 0 0 0 0 0 0 0 100 100 100 100 77 20 0 4 25 97 100 35 5 5 5 5 4 4 5 82 100 100 100 99 100 100 100 100 87 96 95 84 46
0 0 0 0 0 0 0 0 0 20 90 100 100 100 45 18 0 0 3 100 88 89 84 53 5 5 5 6 22 92 100 94 99 100 100 100 100 67 72 80 66 61 46
0 0 0 0 0 0 0 0 0 90 94 100 100 92 34 5 27 14 46 100 95 92 94 78 100 43 5 5 10 6 32 86 67 89 63 8 63 83 55 5 8 7 5
4 0 0 0 0 0 0 0 12 14 21 68 100 74 58 77 100 100 100 100 100 100 100 96 89 68 51 43 74 31 5 5 46 40 12 6 9 13 5 5 5 5 3
5 5 0 0 0 0 0 0 0 0 0 22 89 100 100 100 98 100 100 74 100 100 100 100 41 12 5 56 93 27 5 7 30 50 5 4 5 2 0 2 3 1 3
0 0 0 0 0 0 0 0 0 0 0 45 100 100 100 80 100 100 100 99 100 100 99 72 5 5 7 5 40 40 5 42 10 5 5 0 2 4 5 5 1 0 0
0 0 0 2 0 0 0 0 0 0 0 38 100 100 100 99 100 100 100 97 98 94 57 4 5 5 5 5 5 20 46 6 5 5 0 0 0 2 2 4 1 4 3

GFSSE_prec_cloud_048.txt.gz
Cloud_Cover
10 9 97 40 8 5 5 5 9 12 56 29 97 15 17 0 0 0 3 16 8 14 15 47 56 5 46 61 16 10 2 1 3 0 0 0 0 0 0 0 0 16 0
15 5 5 5 10 5 5 5 5 5 14 11 25 20 23 5 3 0 0 0 0 19 17 97 2 4 23 44 71 0 0 2 0 0 0 0 0 0 0 0 0 0 0
1 0 4 5 0 3 1 5 9 5 3 7 15 20 31 4 0 0 0 0 0 3 63 87 99 95 81 68 100 60 0 0 2 0 0 0 0 5 8 0 5 5 5
5 0 0 1 0 0 1 12 0 0 0 6 7 5 98 0 0 0 0 0 0 2 19 82 10 80 100 100 92 0 0 0 0 0 4 3 0 5 8 5 4 4 9
3 17 0 0 0 0 4 10 0 0 0 2 0 9 0 0 0 0 0 0 0 0 1 17 63 88 100 90 6 0 0 0 2 0 21 3 2 0 5 5 56 3 0
0 7 0 1 0 0 0 0 0 0 0 0 0 0 0 0 0 0 0 0 0 0 0 0 0 0 0 0 0 0 0 0 0 99 96 20 2 5 5 100 89 1 0
0 0 2 5 5 0 0 0 0 0 0 0 0 0 2 0 0 0 0 0 0 0 0 0 0 0 0 0 0 0 0 1 5 32 37 5 5 52 5 98 99 20 24
4 5 5 5 5 4 2 3 3 0 0 0 0 0 5 5 5 1 0 0 0 0 0 0 0 0 3 5 5 5 5 17 30 100 68 44 9 5 10 94 14 15 5
5 3 5 3 5 5 4 5 5 5 5 4 0 3 5 5 19 13 3 4 4 4 3 4 4 5 5 5 5 24 47 5 70 100 47 100 9 5 7 13 5 6 10
3 5 5 5 5 0 1 5 0 0 5 5 6 5 5 53 31 7 5 5 5 5 5 5 5 5 5 5 6 14 82 31 69 100 100 100 6 19 6 5 6 5 5
0 0 0 4 5 1 0 5 5 4 1 4 11 99 100 100 100 100 86 50 51 18 16 18 11 40 35 12 34 100 76 85 97 88 33 45 10 8 48 55 6 78 48
0 0 0 0 5 91 57 5 5 5 5 4 0 18 92 100 100 100 100 100 100 100 100 100 100 100 100 100 100 98 97 38 42 63 5 17 47 80 56 51 59 100 38
0 0 0 19 0 0 63 75 59 47 32 5 5 3 0 6 19 93 100 100 100 100 100 100 100 100 100 100 100 97 99 71 45 75 57 5 5 6 23 75 99 90 72
0 0 0 2 31 0 0 93 86 62 100 78 49 5 0 0 0 2 57 97 100 100 100 100 100 100 100 100 100 100 100 82 81 33 77 6 71 59 83 70 100 100 85
1 0 0 2 35 99 5 0 71 84 98 100 100 0 0 0 0 1 5 4 66 78 86 100 100 100 100 100 69 46 11 10 85 12 77 66 5 5 98 100 100 100 54
0 15 0 0 0 0 33 39 25 76 24 100 100 22 0 0 4 4 5 5 5 5 34 50 64 80 18 18 5 5 5 5 5 5 64 80 51 75 100 100 100 100 75
0 0 0 0 0 0 0 0 6 99 5 82 100 100 0 1 4 7 3 5 5 5 5 5 7 22 42 8 5 4 0 0 0 2 5 71 100 100 100 100 100 100 100
0 0 0 0 0 0 0 0 0 0 78 11 100 100 0 6 4 4 5 5 4 74 7 5 5 5 5 5 5 5 5 0 5 5 8 31 100 100 100 100 100 100 100
0 0 0 0 0 0 0 0 0 0 8 70 99 100 91 0 1 3 5 5 5 24 90 31 5 5 5 5 5 5 5 0 17 5 10 67 99 98 100 99 87 100 100
0 0 0 0 0 0 0 0 0 0 0 91 100 100 100 13 0 0 0 0 0 2 5 42 32 5 12 5 23 48 7 5 5 69 100 95 99 54 86 100 100 100 100
5 0 4 0 0 0 0 0 0 0 38 100 100 100 89 28 4 2 1 0 0 0 0 5 72 100 40 68 59 79 77 8 5 88 100 16 5 10 5 36 22 24 5
1 5 58 64 5 13 0 0 0 1 14 54 70 97 100 93 1 4 5 5 8 69 100 99 90 99 55 20 5 5 26 80 37 55 100 56 5 5 5 5 5 5 5
5 24 43 16 10 5 0 0 0 0 54 10 3 79 50 90 5 4 33 100 100 100 100 99 95 100 99 88 78 11 12 7 5 100 100 73 5 5 5 5 5 5 4
0 1 47 46 5 0 5 0 0 0 1 0 0 0 16 100 41 91 89 71 100 100 100 100 100 100 100 90 68 55 5 5 5 18 6 5 71 5 0 0 0 0 0
0 0 1 5 46 1 0 0 0 0 0 8 53 24 100 100 100 100 100 79 100 100 100 100 100 100 96 94 49 5 5 5 0 4 5 44 5 0 0 0 0 0 0
0 3 5 0 4 11 1 0 0 0 0 0 44 96 100 100 100 100 100 66 74 100 100 100 100 100 84 50 5 4 0 0 0 2 5 6 2 0 0 0 0 0 0

GFSSE_prec_cloud_051.txt.gz
Cloud_Cover
56 19 7 5 5 5 5 20 22 79 100 100 99 16 0 0 0 5 5 0 0 4 100 97 95 100 100 95 17 5 4 0 0 0 0 0 0 0 0 0 0 0 0
22 22 5 7 26 22 78 6 5 0 12 71 100 100 34 2 4 0 0 0 2 3 99 48 6 9 40 88 66 4 1 0 0 0 0 0 0 0 0 0 0 0 0
7 17 5 5 5 5 5 11 5 5 15 4 18 15 76 0 0 0 0 0 0 52 96 6 60 21 77 85 61 5 5 0 0 0 0 0 0 0 0 0 0 0 0
5 20 5 1 1 2 0 7 11 10 4 5 11 10 98 0 0 0 0 0 0 7 100 99 38 47 100 90 5 5 0 0 0 0 0 0 0 0 0 0 0 0 11
4 13 4 0 0 0 5 13 0 0 2 2 0 66 1 0 0 0 0 0 0 0 57 20 0 4 74 11 5 0 0 0 0 0 4 4 0 0 25 4 0 0 0
4 1 0 0 0 0 4 0 0 0 0 0 2 0 0 0 0 0 0 0 0 0 0 0 0 0 0 0 0 0 0 0 0 59 98 9 5 5 5 100 91 6 1
0 0 0 0 0 4 5 0 0 0 0 0 0 0 0 0 0 0 0 0 0 0 0 0 0 0 0 0 0 0 4 1 1 29 30 5 3 4 7 44 34 9 2
1 2 0 0 0 1 2 0 0 0 0 0 0 2 0 0 0 0 0 0 0 0 0 0 0 0 0 0 0 0 4 4 4 93 69 89 32 25 6 13 5 12 11
0 0 2 2 0 0 0 0 3 0 0 0 0 0 1 4 1 1 0 0 0 5 4 4 0 0 0 0 3 5 5 5 5 100 78 99 98 5 5 5 5 10 5
0 0 5 5 0 0 0 0 0 1 0 0 0 0 0 4 5 9 5 8 2 0 5 5 5 5 5 7 5 5 5 6 58 100 100 83 98 5 5 5 5 8 43
0 0 0 0 0 0 2 0 0 4 4 5 0 0 0 0 1 4 9 40 74 50 10 42 32 64 39 21 63 87 94 94 95 41 74 99 80 31 5 5 16 16 33
0 0 0 0 0 0 0 0 3 4 5 5 5 0 0 0 0 0 0 1 68 100 99 100 100 100 100 100 98 100 100 98 78 100 100 100 38 59 72 25 51 5 12
0 0 0 0 0 0 0 0 3 0 3 5 5 5 4 4 3 0 13 0 0 0 7 19 63 100 100 100 100 100 100 100 100 96 98 98 98 73 49 46 5 5 11
0 0 0 0 0 0 0 0 0 0 0 3 3 5 5 5 1 0 1 0 0 0 0 0 4 24 55 100 100 100 100 100 100 96 98 100 100 16 36 5 5 5 5
0 0 0 0 0 0 0 0 25 98 87 27 0 0 5 5 5 0 0 0 0 1 4 4 4 3 4 13 63 47 33 14 35 9 4 5 5 1 2 5 5 47 95
0 0 0 0 0 0 0 0 0 0 1 94 42 2 5 5 4 0 0 4 0 0 3 6 5 5 2 0 0 1 4 20 42 18 5 0 0 0 0 5 6 71 100
0 0 0 0 0 0 0 0 0 0 1 12 80 42 4 4 0 0 0 3 3 2 0 1 5 5 5 4 0 0 0 2 2 5 5 0 5 5 7 9 98 44 100
0 0 0 0 0 0 0 0 0 0 7 6 2 74 32 0 0 0 0 1 4 4 0 0 0 5 5 5 5 5 5 5 5 5 5 1 5 96 100 100 89 57 63
0 0 0 0 0 0 0 0 0 0 0 0 0 14 100 0 0 0 0 0 0 1 0 0 0 7 80 42 5 5 5 5 5 5 5 5 5 100 98 100 100 47 78
0 0 0 11 0 0 0 0 0 0 0 0 0 12 63 10 0 0 0 0 0 0 0 0 0 0 3 5 5 45 7 5 5 5 5 5 5 55 99 100 99 46 18
0 0 0 0 0 0 0 0 0 0 0 0 0 63 0 0 0 0 0 0 1 0 3 0 0 5 5 5 48 47 42 44 17 63 56 44 41 21 7 64 100 100 55
5 5 2 0 0 0 0 0 1 5 8 4 5 98 99 8 0 0 0 4 2 0 1 5 5 19 41 99 100 98 100 100 80 100 100 24 5 5 10 81 70 35 6
56 23 5 4 0 0 0 0 0 4 21 25 14 22 98 7 0 3 1 0 3 5 5 33 99 86 100 100 95 68 80 81 96 91 59 14 4 5 5 5 5 5 5
5 5 5 5 5 4 5 1 0 2 8 69 6 3 11 9 2 84 88 6 8 35 32 35 100 100 100 100 100 100 68 20 68 90 88 94 5 5 5 5 5 5 0
4 5 1 0 5 5 5 5 0 0 15 87 20 5 91 42 38 54 90 100 100 100 98 34 59 98 100 100 100 100 100 55 50 61 88 32 5 5 1 5 1 0 0
5 3 0 0 5 0 0 0 0 0 4 1 45 7 20 47 59 67 85 100 100 100 100 73 100 89 97 100 100 100 100 100 96 88 75 49 27 72 13 1 0 4 5

GFSSE_prec_cloud_054.txt.gz
Cloud_Cover
35 6 32 17 5 5 39 68 71 8 40 100 60 8 5 5 5 5 5 5 3 7 5 4 3 34 47 39 58 71 83 90 53 16 5 1 1 0 0 0 0 0 0
22 5 5 22 10 29 5 8 36 80 100 100 100 12 6 5 5 0 3 16 12 2 83 4 0 16 13 11 5 5 4 1 0 0 2 5 0 0 0 0 0 0 0
38 73 5 3 5 8 53 40 55 69 28 24 70 98 85 22 0 3 0 0 0 100 12 0 0 46 83 54 1 0 0 0 3 5 5 0 0 0 0 0 0 0 0
16 7 8 5 0 1 5 18 5 5 6 10 13 17 8 21 0 0 0 0 3 100 100 45 90 90 100 11 0 0 0 2 5 5 5 1 0 0 0 0 0 0 3
18 18 14 8 0 0 2 18 6 8 2 5 9 82 0 5 0 0 0 0 34 100 100 100 62 69 2 0 0 0 0 0 0 2 5 0 0 1 89 1 0 0 0
40 23 5 4 0 0 20 21 52 48 16 4 19 1 0 0 0 0 0 0 13 66 47 4 0 0 0 0 0 0 0 0 0 0 10 0 0 0 10 100 95 0 7
36 2 1 0 0 0 14 10 1 0 0 0 11 0 0 0 0 0 0 0 0 7 28 0 0 0 0 0 0 0 0 0 0 17 7 0 1 3 48 8 6 20 13
28 9 5 0 0 0 2 0 0 0 0 0 0 0 0 0 0 0 0 0 0 0 0 0 0 0 0 0 0 0 0 0 1 50 45 87 27 32 5 81 98 27 11
0 0 6 1 0 2 3 1 0 0 0 0 0 0 0 0 0 0 0 0 0 0 0 0 0 0 0 0 3 3 5 5 5 9 69 95 27 43 99 81 79 87 51
4 3 18 5 3 4 3 0 0 0 0 0 0 0 0 0 0 0 0 0 0 0 0 0 4 5 5 5 5 5 5 5 19 66 75 45 10 26 98 55 21 48 68
26 35 38 14 2 2 5 0 1 0 0 0 0 2 0 0 0 0 0 0 0 0 0 5 4 5 5 60 82 54 74 74 99 81 98 100 100 100 70 27 57 51 92
43 66 45 20 8 1 4 2 1 0 0 1 0 5 5 2 0 0 0 0 0 0 0 0 2 3 16 20 73 86 99 91 100 90 88 88 100 100 100 94 77 100 43
8 29 30 15 0 0 1 17 11 20 8 0 0 5 5 4 13 4 12 0 3 0 0 0 0 0 0 0 4 73 100 100 100 100 100 100 100 100 100 100 81 18 6
0 0 0 0 0 0 0 29 23 14 4 1 0 0 2 0 26 22 24 16 6 1 0 0 0 0 0 0 0 0 5 87 100 100 100 95 43 6 54 18 5 5 4
0 0 0 0 0 0 3 13 19 14 0 0 0 0 0 0 2 5 9 11 9 0 0 0 5 5 5 4 0 0 1 4 5 5 5 5 0 1 4 4 3 0 0
0 0 0 0 0 0 4 7 2 0 0 0 0 0 0 0 0 5 5 0 0 0 2 2 0 2 5 5 5 2 0 0 0 0 0 0 0 0 0 0 0 4 0
1 0 0 0 0 0 0 0 0 0 0 0 0 0 0 0 0 2 3 0 0 0 5 4 2 0 0 0 5 5 3 5 5 5 5 5 5 5 5 0 1 5 95
5 6 2 5 0 1 4 5 4 0 0 0 0 0 0 0 0 0 0 0 0 0 0 0 0 0 0 0 0 27 5 5 5 5 5 5 5 5 5 5 0 5 78
5 94 65 5 5 3 0 4 3 4 5 2 0 0 0 0 0 0 0 0 0 0 0 0 0 0 0 0 0 4 4 16 89 16 5 5 42 40 5 5 5 5 46
5 5 27 48 5 5 5 5 5 5 18 5 5 6 5 4 2 0 0 0 0 0 0 0 0 0 0 0 4 5 5 48 54 74 74 46 6 52 41 56 74 9 5
5 4 4 8 52 5 2 2 20 5 9 99 95 98 14 7 1 0 0 4 0 0 0 0 0 0 0 5 5 25 65 78 82 99 100 100 100 100 98 100 100 93 11
90 5 5 1 1 4 1 0 0 0 5 5 93 100 100 100 86 57 5 6 5 5 5 0 1 3 5 5 5 6 39 89 98 73 100 100 100 97 100 100 80 96 39
73 34 5 5 5 11 13 9 62 49 56 73 69 80 100 70 54 29 5 8 26 65 65 30 14 5 34 6 5 36 96 100 94 100 100 100 100 100 100 100 100 64 48
85 80 61 82 74 18 34 11 24 14 14 14 5 5 21 13 5 35 18 56 100 100 83 54 57 54 82 22 13 5 80 100 100 100 100 100 72 85 87 85 69 42 66
100 100 100 100 100 91 47 72 7 5 10 32 16 5 5 51 93 93 100 100 100 100 98 100 100 98 100 51 65 57 60 86 100 100 100 100 100 100 100 100 62 10 6
100 100 100 100 100 74 60 10 4 7 24 76 25 13 5 4 4 10 100 100 100 100 82 100 100 100 100 49 100 43 68 76 96 97 100 100 100 100 100 59 7 46 67

GFSSE_prec_cloud_057.txt.gz
Cloud_Cover
37 9 41 49 7 7 89 90 63 76 80 98 97 86 26 5 6 40 5 5 5 5 5 5 10 3 5 2 0 0 0 14 7 11 3 7 5 5 1 2 0 0 0
23 69 30 40 25 78 100 86 6 16 77 96 100 68 10 5 5 5 6 10 5 5 33 5 26 60 3 0 0 0 0 0 4 5 5 5 0 0 0 0 0 0 0
12 24 38 23 98 30 46 18 12 10 100 100 86 15 14 5 5 5 1 17 4 7 97 3 10 19 96 20 0 0 0 0 0 0 0 0 0 0 0 0 0 0 0
66 7 11 11 5 17 5 5 12 87 80 79 96 100 100 13 5 0 0 0 37 25 54 0 17 77 91 6 0 0 0 0 0 0 0 0 0 5 0 0 4 5 2
22 6 5 5 46 5 6 2 1 4 9 12 20 53 47 50 8 1 0 0 100 71 80 29 98 100 60 0 0 0 0 0 0 0 0 0 0 30 91 0 0 0 0
46 19 0 5 5 0 1 13 10 14 27 85 13 52 21 18 0 0 0 0 100 68 100 98 20 10 0 0 0 0 0 0 0 0 0 0 0 0 7 98 0 18 28
79 30 4 0 1 0 0 0 6 100 5 10 32 3 0 0 0 0 0 0 37 87 30 0 0 0 0 0 0 0 0 0 0 0 0 0 6 42 38 10 5 13 10
89 39 1 3 1 2 100 5 19 58 4 41 18 7 0 0 0 0 0 0 9 26 13 0 0 0 0 0 0 0 0 0 0 0 3 0 0 1 5 8 9 54 30
55 39 18 1 0 0 10 5 5 8 1 13 0 0 0 0 0 0 0 0 0 9 10 0 0 0 0 0 3 5 4 5 3 5 5 5 25 5 5 12 77 61 94
48 34 50 28 1 0 0 0 1 4 2 0 0 0 0 0 0 0 0 0 0 0 0 0 0 0 0 0 1 5 5 5 6 39 30 57 26 72 82 98 100 100 97
76 43 58 43 8 0 2 0 2 4 0 0 0 0 0 0 0 0 0 0 0 0 0 0 0 0 0 0 0 5 39 63 81 40 100 100 100 100 100 84 100 100 97
100 97 100 41 14 4 26 4 4 0 0 0 0 2 1 0 0 4 0 0 0 0 0 0 0 0 0 0 0 0 10 14 35 82 73 91 100 100 100 98 91 97 100
97 100 100 44 13 5 5 11 11 13 10 4 0 0 4 0 16 13 9 2 2 0 0 0 0 0 0 0 0 0 0 0 0 0 4 3 32 100 96 43 84 92 27
81 100 97 39 37 15 0 21 7 3 9 18 5 0 6 10 43 28 28 12 14 7 4 0 0 0 0 0 3 5 0 0 0 0 5 4 5 14 6 5 5 5 3
87 64 42 37 32 26 15 26 30 11 0 0 0 0 6 4 39 30 24 24 18 4 1 0 0 0 0 0 0 3 5 5 5 2 0 0 0 0 2 2 0 0 0
5 18 22 33 9 15 15 23 37 26 1 0 0 0 0 0 14 28 26 26 17 5 0 0 0 3 0 0 0 0 1 5 5 1 4 0 4 5 0 4 2 1 0
1 0 0 13 1 4 8 31 22 11 2 0 0 0 0 0 0 1 8 13 2 1 0 0 0 0 0 0 0 0 0 0 5 5 5 5 0 5 5 5 5 5 5
5 5 1 0 4 2 9 38 32 3 5 2 3 5 3 1 0 0 0 0 0 0 0 0 0 0 0 0 0 0 0 0 0 0 2 5 5 5 5 5 5 5 5
48 6 5 5 5 5 5 27 34 6 23 5 5 5 4 5 4 0 0 0 0 0 0 1 1 0 0 0 0 0 0 2 4 5 5 5 5 5 5 5 5 5 5
17 53 19 5 5 3 2 42 68 71 31 5 5 20 5 5 5 4 2 4 5 3 3 1 2 0 0 0 0 2 2 5 5 5 66 52 8 39 64 74 28 8 8
22 5 5 7 14 4 8 92 100 100 61 33 50 67 48 12 13 55 0 5 32 22 5 78 9 11 4 2 3 5 4 0 2 14 5 18 34 60 31 64 44 62 99
59 17 10 5 6 40 6 11 17 34 44 23 67 86 54 51 6 10 16 5 9 14 5 16 58 57 24 4 1 5 5 3 5 5 5 5 5 51 100 85 83 72 100
100 84 83 18 5 7 64 100 79 76 96 91 72 21 92 68 5 39 18 9 24 49 59 86 100 91 91 5 18 11 0 4 5 5 5 5 5 6 54 91 100 89 85
100 87 35 32 41 73 94 100 95 9 9 20 17 4 5 5 5 5 5 15 97 100 100 100 100 100 53 69 95 54 5 9 9 5 5 5 5 66 54 62 71 87 78
98 100 100 100 89 12 38 65 41 5 49 92 100 33 17 6 7 5 37 67 33 100 100 100 100 100 100 100 100 100 100 43 60 67 100 26 5 7 100 99 100 100 99
100 100 100 100 100 100 100 98 87 100 100 100 100 100 79 47 6 22 15 65 97 89 100 100 100 100 100 100 100 100 100 57 46 5 29 44 5 5 5 5 14 16 68

GFSSE_prec_cloud_060.txt.gz
Cloud_Cover
5 7 69 73 82 86 44 98 74 91 100 100 100 94 72 13 5 5 13 2 5 5 5 6 5 5 5 4 2 0 0 0 0 0 0 0 0 0 0 0 0 0 0
7 7 33 6 5 57 56 7 13 12 51 100 100 33 5 6 6 8 8 18 9 5 5 18 13 50 5 1 0 1 0 0 0 0 0 0 0 0 0 0 0 0 0
6 5 5 5 5 5 5 5 18 55 99 99 100 96 6 10 5 11 15 13 5 3 7 8 91 21 51 0 0 0 0 0 0 0 0 0 0 0 0 0 0 0 0
6 5 5 5 25 8 67 67 73 100 100 100 100 100 96 20 5 12 5 5 5 55 7 0 14 100 55 0 0 0 0 0 0 0 0 0 12 10 0 0 0 0 0
9 5 5 15 5 25 81 42 5 46 100 100 100 100 100 84 5 5 4 3 77 31 0 0 59 53 47 0 0 0 0 0 0 0 0 0 0 44 2 0 0 0 0
44 9 5 9 59 8 13 35 18 95 86 54 14 96 100 28 0 0 0 47 85 15 26 97 91 24 0 0 0 0 0 0 0 0 0 0 0 25 83 1 85 60 55
85 23 8 6 40 2 2 30 22 20 39 97 20 4 79 4 0 0 0 28 97 14 100 40 0 0 0 0 0 0 0 0 0 0 0 0 27 64 14 6 4 4 7
100 42 1 0 0 2 86 68 41 57 2 25 28 15 15 0 0 0 0 3 60 62 28 11 0 0 0 0 0 0 0 0 0 0 0 0 6 6 0 3 4 5 27
100 45 14 2 3 0 14 4 18 100 20 14 6 2 0 0 0 0 0 0 27 24 4 0 0 0 0 0 0 0 0 0 0 5 5 1 68 20 23 39 95 72 99
100 54 42 24 8 0 9 4 3 26 12 99 1 0 0 0 0 0 0 0 8 15 0 0 0 0 0 0 0 0 0 0 0 1 0 3 5 5 9 5 96 100 100
100 86 81 55 27 7 0 3 3 3 0 29 3 0 0 0 0 0 0 0 0 0 0 0 0 0 0 0 0 0 0 0 0 0 0 5 2 3 12 20 33 75 84
100 100 100 80 39 13 0 10 10 3 2 2 0 0 2 2 1 0 3 2 0 0 0 0 0 0 0 0 0 0 0 0 0 0 0 0 0 24 22 10 5 4 4
100 100 100 98 36 10 10 24 44 18 13 5 5 2 1 6 15 16 4 2 5 2 3 4 2 0 0 0 0 0 0 0 0 0 0 0 0 19 17 0 0 0 0
100 100 100 96 38 16 17 26 22 19 21 24 8 5 13 18 28 36 30 7 10 18 5 9 0 0 0 0 0 0 0 0 0 0 0 0 0 44 9 0 0 0 0
100 100 100 99 54 29 23 28 28 16 12 9 15 6 12 10 26 38 30 23 20 18 5 7 0 0 0 0 0 0 0 0 0 0 0 0 0 0 0 0 0 0 0
80 100 100 100 70 34 17 38 31 5 2 4 6 1 6 6 16 42 37 32 22 14 6 5 0 0 1 0 0 0 0 0 0 0 2 5 2 0 0 0 0 0 1
44 16 63 99 66 46 37 40 36 23 0 0 0 0 0 0 0 20 39 38 25 17 5 5 0 0 0 0 0 0 0 0 0 0 0 0 0 0 2 5 0 2 5
33 3 7 32 65 54 50 47 48 40 21 4 1 0 2 1 5 8 35 28 19 16 2 0 0 0 0 0 0 0 0 0 0 0 0 1 5 2 1 0 0 3 5
47 6 5 5 21 49 49 47 58 56 39 85 47 5 5 5 5 5 5 8 2 4 3 4 1 1 5 5 4 1 1 0 2 5 5 4 5 5 5 5 5 5 5
6 62 5 56 25 26 44 76 100 100 84 59 91 97 100 78 38 40 18 6 4 5 4 3 4 0 0 5 5 4 5 5 4 3 0 4 5 5 5 5 5 5 5
98 100 69 73 49 32 97 100 100 100 100 100 99 94 100 71 11 5 5 21 83 28 5 4 2 0 0 0 5 5 5 5 5 4 2 4 5 0 0 0 5 5 5
100 100 96 99 100 94 54 75 80 70 100 100 100 98 97 26 17 95 59 64 75 89 78 5 5 5 8 10 11 38 5 5 5 2 5 5 5 5 5 3 0 3 5
100 100 100 100 100 100 100 100 100 100 100 100 100 99 21 8 6 74 57 47 94 98 88 27 89 24 72 47 96 59 16 41 64 10 5 5 5 5 5 5 2 0 1
100 100 100 100 96 98 100 100 100 100 97 100 72 61 67 48 15 5 5 44 56 87 70 85 98 100 100 100 100 100 99 99 99 100 90 58 5 5 5 5 5 5 0
100 100 100 100 100 100 100 100 100 100 100 100 100 100 81 46 87 37 7 69 100 100 70 92 100 95 61 100 100 100 100 100 100 100 100 100 100 100 100 71 5 5 2
100 100 100 100 100 73 82 62 98 100 100 100 100 100 100 100 99 86 90 82 98 100 100 100 99 98 99 100 94 100 100 100 100 100 100 100 100 100 100 100 85 23 5

GFSSE_prec_cloud_063.txt.gz
Cloud_Cover
5 5 5 10 48 31 13 23 23 87 70 100 100 72 71 91 81 65 45 5 16 61 31 18 11 7 1 2 0 1 0 0 0 0 0 0 0 0 0 0 0 0 0
5 5 7 5 75 63 9 5 5 10 73 100 100 100 100 9 5 5 5 5 5 5 16 10 5 5 0 0 0 0 0 0 0 0 0 0 0 0 0 0 0 0 0
4 6 12 5 5 43 99 35 23 97 56 100 100 100 28 16 20 38 19 9 5 0 1 85 42 90 11 0 0 0 0 0 0 0 0 0 0 0 0 0 1 0 0
8 15 31 5 5 26 71 7 46 24 91 64 100 88 79 10 5 16 9 5 5 5 4 14 99 14 9 0 0 0 0 0 0 0 0 0 0 0 0 0 0 0 0
28 5 25 4 5 5 5 5 5 87 100 100 100 100 100 10 0 4 2 5 5 8 0 0 48 49 17 0 0 0 0 0 0 0 0 0 0 4 13 7 1 0 13
55 14 5 28 44 26 81 5 5 18 100 100 100 100 100 99 4 3 2 98 5 2 0 2 64 84 0 0 0 0 0 0 0 0 0 0 9 27 99 24 11 83 68
65 14 8 5 5 5 5 4 93 100 100 98 74 72 100 46 0 1 0 71 30 1 46 99 42 0 0 0 0 0 0 0 0 0 0 0 58 8 11 0 3 9 79
97 47 38 3 5 4 3 14 100 100 86 100 8 7 100 4 0 0 12 100 42 2 97 6 0 0 0 0 0 0 0 0 0 0 0 0 2 0 0 2 8 43 50
100 60 44 19 3 4 5 100 100 86 43 100 6 0 0 0 0 0 0 61 96 89 5 0 0 0 0 0 0 0 0 0 0 0 0 1 0 0 0 1 74 38 98
78 56 34 8 5 5 1 3 18 98 40 4 100 66 0 0 0 0 0 1 95 26 1 0 0 0 7 0 0 0 0 0 0 0 0 0 0 0 4 10 9 83 46
100 85 40 29 2 0 0 0 3 94 18 99 100 39 0 0 0 0 0 0 0 1 0 0 0 6 0 0 0 0 0 0 0 0 0 0 0 10 20 14 62 21 0
100 100 99 77 41 30 13 11 5 0 60 4 30 3 0 0 0 3 0 0 0 0 0 0 3 0 0 0 0 0 0 0 0 0 0 0 0 28 62 12 22 0 0
100 100 100 100 74 43 29 5 0 12 58 5 4 5 1 0 2 4 0 0 2 0 0 8 15 0 0 0 0 0 0 0 0 0 0 0 9 23 0 0 0 0 0
100 100 100 100 98 43 7 4 5 61 64 67 4 5 5 4 24 32 5 5 5 5 8 34 3 0 0 0 0 0 0 0 0 0 0 0 0 35 0 0 0 0 0
100 100 100 100 100 56 20 1 4 71 70 7 4 5 5 5 20 44 37 4 4 2 0 20 1 0 0 0 0 0 0 0 0 0 0 0 0 0 0 0 0 0 0
87 100 100 100 100 80 35 9 2 4 5 5 4 5 3 0 0 18 45 44 0 0 0 0 5 0 0 0 0 0 0 0 0 0 0 0 0 0 0 0 0 0 0
63 12 41 100 100 97 56 26 5 5 2 0 0 4 3 0 0 0 1 55 18 0 0 3 4 3 0 0 0 0 0 0 0 0 0 0 0 0 0 0 0 0 0
6 60 11 43 100 100 81 60 44 38 4 2 0 0 0 0 2 3 5 19 28 6 1 4 0 1 1 3 0 0 0 0 0 0 0 0 0 0 0 0 5 5 5
3 5 5 31 69 100 100 99 87 84 51 28 68 6 5 5 5 32 60 5 16 34 11 5 5 5 5 5 5 0 0 1 0 0 0 0 0 2 3 2 5 5 5
5 5 5 6 17 72 100 100 100 100 100 88 59 91 48 61 90 100 69 5 10 37 11 18 5 5 5 5 4 1 0 4 4 0 0 0 0 0 5 5 1 1 1
100 96 46 8 54 56 100 100 100 100 100 100 100 88 83 97 100 100 88 94 48 63 42 7 5 67 93 8 5 5 5 5 5 5 0 2 0 0 5 5 4 2 0
100 100 100 100 100 80 76 100 100 100 100 100 100 100 89 53 71 97 100 100 100 100 100 98 34 24 26 5 31 8 17 5 80 5 5 5 5 5 11 5 5 5 5
100 100 100 100 98 73 70 100 100 96 97 100 100 100 100 71 100 95 99 100 100 100 100 91 75 46 57 31 100 75 39 42 51 80 46 27 28 46 15 31 16 5 5
100 100 100 100 100 100 100 100 100 100 100 100 100 100 100 100 100 100 100 100 100 100 100 100 100 100 100 100 95 56 88 100 100 100 100 99 92 98 96 98 50 99 42
98 100 100 100 100 100 100 100 100 100 100 100 100 100 100 100 100 100 100 95 100 62 98 100 100 100 100 100 100 100 100 100 100 100 100 100 100 100 100 100 100 95 100
16 79 100 100 96 100 100 100 100 100 100 100 100 100 100 100 100 100 100 100 100 100 100 100 97 100 100 100 100 98 100 100 100 100 100 100 100 100 100 100 100 100 71

GFSSE_prec_cloud_066.txt.gz
Cloud_Cover
0 7 4 3 5 68 100 98 100 100 55 94 100 100 100 100 26 97 68 84 22 14 46 96 5 5 5 5 5 5 0 0 5 5 0 0 0 0 0 0 0 0 19
1 5 5 5 5 5 6 5 5 90 6 10 99 80 80 50 100 94 100 100 24 6 13 7 63 71 5 5 1 0 0 0 0 0 0 0 0 0 0 0 0 0 0
5 8 4 5 5 5 4 5 5 5 23 95 100 100 80 83 51 100 100 53 30 4 15 17 81 5 4 0 0 0 0 0 0 0 0 0 0 0 0 0 0 0 0
5 10 14 5 5 34 84 7 5 44 38 100 99 100 100 88 72 26 30 55 3 5 4 65 26 13 3 0 0 0 0 0 0 0 0 0 0 0 0 0 0 0 0
4 6 71 5 6 10 35 25 62 92 85 99 100 100 100 32 15 5 1 0 0 0 1 82 49 80 0 0 0 0 0 0 0 0 0 2 0 8 6 0 3 16 0
5 14 28 5 5 5 5 5 5 42 100 98 100 100 100 27 11 0 0 3 1 0 0 56 29 99 0 0 0 0 0 0 0 1 70 22 82 68 24 0 13 61 51
2 33 30 5 5 5 78 5 14 91 77 26 99 100 100 20 5 0 0 0 0 0 2 88 100 0 0 0 0 0 0 0 1 21 85 52 69 44 3 3 15 24 26
19 96 97 17 5 20 82 33 90 100 96 100 100 5 100 1 0 0 0 90 16 39 60 99 22 0 0 0 0 0 0 0 4 5 56 95 1 0 0 9 17 76 15
25 57 100 52 0 38 75 5 100 100 48 100 100 2 88 0 0 0 8 96 13 67 96 28 23 0 0 0 0 0 0 0 19 8 33 93 0 0 3 21 16 15 100
80 3 93 99 83 45 8 5 74 93 96 100 100 97 0 0 0 0 66 99 100 49 4 0 0 0 0 0 0 0 0 0 26 24 47 48 0 5 9 19 10 77 21
100 16 14 22 5 5 3 31 77 35 1 74 100 100 0 0 0 4 5 22 89 17 0 0 4 6 2 4 1 0 0 7 9 12 28 4 0 21 21 9 6 22 2
100 91 35 23 6 3 5 5 10 5 0 0 56 93 0 0 0 0 0 0 2 0 0 0 3 2 5 3 1 0 2 0 5 0 5 0 2 38 22 7 0 0 0
100 100 100 66 30 13 4 4 5 5 2 1 5 5 0 0 0 0 0 0 5 4 0 0 5 0 0 0 0 0 0 0 0 0 0 0 14 36 0 0 0 0 0
100 100 100 50 72 5 4 0 0 0 0 3 12 5 0 4 4 0 0 0 3 2 0 0 0 0 0 0 0 0 0 0 0 0 0 0 20 11 0 0 0 0 0
85 100 100 100 100 9 26 17 0 5 5 5 36 12 5 4 1 9 9 0 0 0 0 0 0 0 0 0 0 0 0 0 0 0 0 0 5 0 0 0 0 0 0
100 100 100 98 100 86 53 50 5 5 5 35 76 58 5 4 5 5 63 74 6 0 0 0 0 0 3 2 0 0 0 0 0 0 0 1 6 0 0 0 0 0 0
5 14 15 95 100 100 35 54 39 12 42 5 43 6 5 3 4 5 4 52 97 0 0 0 0 0 4 3 0 0 0 0 0 0 0 0 0 0 0 0 0 0 0
14 6 10 24 69 100 100 60 60 56 9 5 5 5 2 3 5 4 5 6 19 74 2 1 5 5 5 5 5 3 0 0 0 0 4 0 0 0 0 0 0 0 0
21 78 46 8 10 36 100 100 75 51 28 7 4 4 5 5 4 5 5 5 5 100 45 5 11 48 64 5 4 5 3 4 3 4 5 5 5 5 5 0 0 0 5
44 13 78 100 100 75 100 100 100 100 88 24 14 5 5 5 5 5 5 5 4 80 98 63 45 69 60 12 5 16 27 6 5 5 5 5 5 5 5 4 0 2 0
100 78 64 5 5 5 30 100 100 100 100 100 99 34 32 7 7 5 5 5 5 8 100 100 100 100 100 100 100 100 100 52 28 5 6 5 5 5 7 5 4 3 5
100 100 100 22 57 29 7 46 20 75 100 100 100 100 100 83 30 15 85 91 98 70 77 99 100 100 100 100 100 100 100 100 58 10 26 33 46 50 74 81 84 10 6
100 100 100 69 91 16 8 5 30 68 100 100 100 100 100 100 100 100 89 100 100 82 12 25 100 100 100 100 100 100 100 100 100 100 21 61 78 96 100 100 91 100 100
100 100 100 100 100 96 84 26 57 90 83 100 100 100 100 100 100 100 100 100 100 100 100 80 99 100 100 100 100 100 99 73 98 67 86 50 44 100 100 100 100 100 94
100 100 100 100 100 100 100 100 100 100 100 93 100 100 100 100 100 100 100 100 100 100 100 100 100 100 100 82 100 100 100 100 96 96 82 100 100 100 100 100 100 100 100
98 100 100 100 100 100 100 100 100 100 100 100 100 100 100 100 100 100 100 100 100 100 100 100 100 100 100 100 100 100 100 100 100 100 100 100 100 100 100 100 100 100 100

GFSSE_prec_cloud_069.txt.gz
Cloud_Cover
0 18 0 0 9 23 100 100 100 100 36 16 100 100 100 100 100 100 100 100 100 74 85 92 57 5 4 5 4 3 5 5 0 0 0 0 0 0 0 0 0 10 25
0 7 0 0 0 0 6 91 95 100 100 100 100 100 100 100 100 100 100 54 52 29 59 94 52 5 5 1 0 0 4 0 0 0 0 0 0 0 0 0 0 0 0
0 12 0 0 0 7 0 0 15 100 100 46 100 97 91 6 5 37 60 72 32 54 89 52 19 5 5 0 0 0 0 0 0 0 0 0 0 0 0 0 0 0 0
0 7 5 2 0 0 0 0 0 2 41 84 100 100 83 38 56 50 5 5 5 4 82 53 10 5 0 0 0 0 0 0 0 0 10 0 0 0 0 0 0 0 0
1 5 3 3 5 4 5 5 4 20 100 99 100 100 100 39 32 46 20 5 5 5 6 96 41 65 0 0 0 0 0 0 0 1 23 19 67 4 11 0 18 6 2
5 6 18 5 22 5 5 5 5 38 60 100 100 100 100 90 100 67 7 5 5 3 3 39 90 98 0 0 0 0 0 0 0 22 96 93 14 74 25 0 88 19 56
5 8 5 1 4 5 5 9 18 94 100 100 100 100 100 45 31 8 2 4 0 0 1 20 89 2 0 0 0 0 0 0 41 100 67 49 28 0 0 12 13 56 51
9 5 31 22 5 10 44 5 63 95 100 100 99 52 100 5 4 0 1 1 54 4 31 79 91 0 0 0 0 0 0 0 19 16 100 82 0 1 4 8 18 100 100
26 81 100 18 5 50 89 18 100 100 100 100 100 7 5 2 0 0 0 66 39 26 66 35 0 0 0 0 0 0 0 0 50 12 81 33 4 5 18 62 14 1 76
17 22 100 97 45 21 87 99 100 100 100 100 100 100 0 0 0 0 14 66 2 62 70 2 0 0 0 0 0 0 0 0 58 8 71 6 0 13 25 0 0 1 9
5 15 14 92 94 34 12 14 26 100 100 100 100 100 0 0 0 0 0 46 100 58 1 0 0 0 0 0 0 0 0 20 37 41 67 0 2 21 23 0 0 2 0
43 15 20 12 9 1 6 12 23 94 60 17 28 19 0 0 0 0 0 0 82 94 0 0 1 0 0 0 0 0 0 20 31 27 18 0 8 46 6 0 0 0 0
100 36 4 2 4 1 7 4 4 10 1 5 13 16 1 2 0 0 0 0 6 1 3 0 2 3 3 14 1 3 14 21 10 0 0 0 8 26 3 0 0 0 0
100 100 15 6 5 6 4 0 0 3 5 4 5 14 6 5 4 0 0 0 0 0 0 0 4 2 12 5 5 0 0 0 0 0 0 0 5 3 0 0 0 0 0
17 97 100 66 22 7 9 24 1 2 2 0 2 4 4 5 5 4 2 0 0 0 4 2 9 25 7 7 3 0 0 0 0 0 0 0 0 0 0 0 0 0 5
10 19 100 100 100 58 38 48 32 16 5 6 14 20 5 5 5 5 22 9 0 0 5 0 8 17 4 6 4 0 0 3 3 4 5 0 26 0 0 0 2 3 5
73 72 78 100 100 99 83 76 77 59 50 84 26 5 5 5 5 5 8 40 56 0 0 0 1 1 0 0 5 5 5 5 5 5 5 5 6 93 1 5 5 5 5
26 35 54 80 42 95 89 57 99 65 13 82 40 5 5 5 5 5 5 8 14 74 0 0 0 5 0 5 9 5 5 5 21 47 5 5 5 4 5 5 5 5 5
97 80 72 43 39 85 80 79 66 39 21 26 20 8 5 5 5 5 5 5 6 5 80 3 0 1 6 11 10 67 79 33 14 100 54 65 81 84 5 5 5 5 5
93 100 100 100 94 100 55 98 100 80 52 34 16 9 5 5 5 4 0 0 2 31 39 55 8 53 100 74 36 91 100 100 100 100 100 100 99 48 30 15 39 11 6
100 100 89 91 99 74 15 38 74 100 72 27 5 9 17 5 5 5 10 6 5 5 38 95 76 95 66 58 59 92 85 100 100 100 100 100 100 89 100 100 74 56 70
100 100 100 75 65 53 52 97 94 91 100 100 100 15 9 13 5 10 25 46 46 80 100 100 100 90 100 44 66 74 100 100 100 100 100 100 100 99 81 67 40 100 90
100 100 100 100 100 100 94 19 95 96 89 88 99 100 100 66 62 32 9 100 100 100 100 100 100 100 100 100 100 84 100 100 99 100 100 100 87 96 74 72 100 100 100
100 100 100 100 100 100 85 83 8 8 8 25 6 36 70 100 100 100 100 99 100 100 100 100 100 100 99 100 98 100 100 99 100 100 100 100 100 100 98 100 95 100 100
100 100 100 100 100 100 100 56 16 5 5 9 7 5 5 40 66 99 100 100 100 100 100 100 100 100 100 100 100 100 100 100 100 100 100 100 100 100 100 100 100 100 100
100 100 100 100 100 100 100 100 76 67 42 61 90 100 93 78 25 92 100 100 100 100 100 100 100 100 100 100 100 100 100 100 100 100 100 100 100 100 100 100 100 100 100

GFSSE_prec_cloud_072.txt.gz
Cloud_Cover
3 0 0 0 0 5 56 100 100 100 100 47 10 15 29 98 100 100 100 100 100 100 100 100 91 11 5 5 3 5 5 5 0 0 0 0 0 0 0 0 0 11 30
0 9 0 0 0 1 38 85 76 100 100 100 100 75 67 99 100 100 100 100 100 100 100 82 27 6 74 13 5 5 1 4 0 0 0 0 0 0 0 0 0 0 0
0 2 0 0 0 0 0 4 59 100 100 100 100 100 100 46 98 100 100 100 74 96 94 5 5 19 5 0 5 1 0 0 0 0 0 0 0 0 0 0 0 0 0
0 0 1 2 0 0 0 0 0 5 90 100 100 100 100 100 100 100 97 96 69 19 92 11 5 4 0 4 3 0 0 0 0 0 13 0 0 0 0 0 0 0 0
0 0 0 1 0 0 0 0 0 0 100 100 100 100 100 84 34 2 4 5 5 5 85 56 7 2 4 0 0 0 0 0 42 6 18 0 1 16 9 54 33 47 19
1 4 0 0 0 0 0 0 1 2 100 73 100 100 100 73 30 10 5 5 5 6 91 55 98 5 1 0 0 0 0 0 100 15 0 27 18 11 19 40 21 48 56
2 0 0 0 0 0 5 0 31 33 87 95 100 100 98 20 5 5 17 13 42 47 40 52 100 1 0 0 0 0 0 8 86 50 24 24 27 1 75 15 13 98 93
0 0 3 23 5 5 5 2 8 100 94 100 94 57 5 5 5 5 28 33 25 28 24 55 95 0 0 0 0 0 0 0 71 72 100 30 0 7 23 95 97 100 100
2 2 3 5 5 5 6 36 15 100 69 94 96 38 5 5 5 5 13 98 6 12 64 34 0 0 0 0 0 0 0 0 77 11 68 7 0 8 16 88 2 4 7
1 5 5 5 5 100 100 100 66 100 100 100 50 96 0 0 0 0 0 14 2 0 7 0 0 0 0 0 0 0 0 0 1 3 90 0 0 14 32 0 0 0 0
10 5 100 93 19 73 63 76 100 100 99 100 100 70 0 0 0 0 0 0 20 3 18 0 0 0 0 0 0 0 0 0 98 93 14 0 0 20 12 0 0 0 0
36 90 1 47 26 10 5 5 2 34 100 100 100 27 4 2 0 2 0 1 100 100 0 0 0 0 0 0 0 0 0 0 51 0 0 0 0 30 17 0 0 0 0
0 90 98 7 20 20 3 5 5 5 7 5 1 5 0 0 0 0 0 0 0 25 0 0 0 0 0 0 0 0 0 9 0 0 0 0 2 25 1 0 0 0 0
1 5 29 91 60 20 0 0 1 0 2 0 0 4 0 0 1 1 0 0 0 0 0 0 0 0 0 0 0 0 0 0 0 0 0 0 0 16 0 4 0 0 0
7 5 0 0 83 33 3 0 0 0 1 3 0 1 5 5 5 5 5 5 3 0 0 0 0 0 0 0 0 0 0 0 0 0 0 0 2 3 4 5 4 3 0
11 5 5 5 5 17 44 0 0 0 0 0 0 5 9 8 5 5 5 5 5 4 0 0 0 7 0 0 0 3 0 0 0 0 5 5 5 5 5 5 5 1 1
0 0 0 5 5 5 5 88 30 0 1 5 5 33 9 5 5 5 5 5 5 5 4 5 1 0 0 0 0 0 0 2 5 5 5 5 5 5 5 5 5 73 87
5 8 4 5 17 26 5 10 25 45 57 74 8 7 18 7 5 5 5 5 4 5 1 0 0 0 0 0 0 7 5 5 7 5 5 34 98 100 100 100 100 97 33
31 100 100 94 68 75 98 99 100 98 29 10 22 18 52 5 7 5 5 2 4 4 0 0 0 2 5 5 5 10 5 17 18 90 85 5 98 86 100 100 65 73 50
24 67 94 92 98 65 59 25 54 62 100 98 15 10 36 20 5 5 5 5 0 3 5 4 5 5 5 7 5 20 92 44 100 100 100 76 10 44 100 100 80 100 100
100 100 99 100 100 100 87 98 48 92 65 72 98 100 18 5 7 5 5 5 5 5 1 5 5 5 5 5 23 65 74 100 100 100 99 100 96 74 100 100 100 100 100
100 100 99 100 100 87 63 89 30 47 100 100 100 99 25 5 6 5 5 5 5 5 5 15 5 63 98 30 7 22 44 70 100 100 100 100 100 100 75 98 100 100 100
100 100 98 100 100 100 93 100 100 100 100 100 100 97 41 8 5 5 5 5 39 16 17 28 70 100 99 100 89 44 89 94 100 100 100 100 100 100 100 100 100 100 100
100 100 100 100 100 100 100 100 100 100 100 100 20 6 13 50 5 5 12 11 61 99 85 100 98 100 100 100 99 100 100 100 100 100 100 100 100 100 100 100 100 100 100
100 100 100 100 100 100 100 100 100 62 98 98 43 16 5 5 5 5 2 9 96 84 73 75 97 100 100 100 100 100 100 100 100 100 100 100 100 100 100 100 100 100 100
100 100 100 100 100 100 100 92 97 98 13 47 92 41 5 5 7 69 74 99 94 100 100 100 100 100 76 100 100 100 100 100 100 100 100 100 100 100 100 100 100 100 100

GFSSE_prec_cloud_075.txt.gz
Cloud_Cover
39 23 0 0 2 8 5 34 100 100 82 100 100 100 10 5 8 5 46 100 100 100 100 100 100 46 44 5 7 41 4 5 4 0 4 0 0 0 0 0 0 28 33
22 33 0 0 0 0 0 0 22 100 100 93 23 100 100 37 62 79 78 100 100 100 100 100 100 100 91 73 5 33 5 4 0 4 0 0 0 0 0 0 0 0 0
30 28 5 0 0 0 0 0 0 37 99 100 100 100 100 100 100 100 21 80 100 100 100 100 100 5 9 5 5 5 3 0 0 0 0 0 0 0 0 0 0 0 0
20 27 33 0 0 0 0 0 0 0 49 84 61 100 100 100 100 100 100 80 70 74 98 100 98 51 23 19 4 5 0 0 0 0 0 0 0 0 10 10 1 18 4
5 12 28 0 3 0 0 0 0 0 13 48 86 97 100 100 100 100 99 100 46 19 8 24 5 4 5 5 5 5 3 0 5 0 0 2 0 67 100 90 100 64 44
0 0 1 0 3 0 0 0 0 45 55 7 94 100 100 87 99 24 7 68 100 78 40 99 5 26 5 5 5 5 5 32 0 0 6 25 15 100 100 100 88 74 24
0 4 1 0 2 0 0 0 0 49 94 69 47 9 100 28 5 5 5 12 99 13 28 98 94 43 5 5 5 5 0 33 0 0 0 42 12 45 100 10 4 100 100
3 17 8 0 0 0 0 0 0 0 97 41 5 5 21 5 5 5 5 5 5 26 26 58 5 5 5 5 5 1 0 0 0 0 0 0 0 23 86 22 0 32 96
0 14 40 15 0 0 0 1 6 28 61 50 2 5 5 5 5 5 14 40 13 12 43 5 5 5 5 5 0 0 0 0 0 0 0 0 0 78 4 15 0 0 5
11 18 33 19 5 1 54 28 59 45 0 12 31 0 0 0 0 5 96 22 5 4 63 0 1 3 0 0 0 0 0 0 0 0 0 0 0 49 18 0 0 0 0
35 0 0 0 1 100 100 100 100 100 77 98 8 3 0 0 0 0 0 0 0 0 0 0 0 0 0 0 0 0 0 0 0 0 0 0 0 33 12 0 0 0 0
2 0 0 0 0 78 62 24 24 39 34 3 0 0 0 0 0 0 0 0 0 0 0 0 0 0 0 0 0 0 0 0 0 0 0 0 0 27 16 0 0 0 0
0 0 4 5 5 5 5 5 5 5 5 5 4 3 0 0 0 0 0 0 0 5 0 0 0 6 0 0 0 0 0 0 0 0 0 0 0 0 5 0 0 0 4
0 4 8 4 5 19 46 6 5 5 5 5 5 5 5 5 4 2 9 1 2 3 5 4 21 0 0 0 0 0 0 0 0 0 0 0 0 2 0 0 0 0 4
71 1 5 5 61 8 56 55 21 5 5 5 5 5 5 3 0 0 0 0 1 4 5 5 6 2 0 0 0 0 0 0 0 0 0 0 0 0 0 0 0 5 5
18 10 3 5 6 47 5 22 20 18 5 5 5 4 5 5 4 5 3 32 9 5 5 5 5 3 0 1 0 0 0 0 0 0 0 0 0 0 0 5 5 5 5
3 1 4 5 3 5 5 5 5 5 5 5 5 5 0 0 0 0 61 10 5 5 5 5 4 3 5 5 1 0 5 0 0 0 5 5 2 5 5 5 5 5 49
1 0 5 2 4 5 5 5 5 9 5 4 5 0 0 0 5 5 37 5 5 9 5 5 5 5 5 5 0 3 0 2 3 2 5 10 25 68 5 5 5 34 45
5 1 0 0 0 4 5 5 5 74 34 0 0 4 2 5 5 5 22 27 91 17 5 5 5 2 0 0 0 0 0 4 5 5 5 53 68 45 59 26 21 96 70
6 5 3 0 0 0 4 4 5 4 57 99 27 93 17 8 76 92 93 90 26 9 5 5 5 0 0 0 0 0 0 2 5 14 79 53 70 100 100 100 98 86 100
5 39 94 71 5 17 5 5 5 51 95 100 100 100 58 20 12 49 100 67 5 5 5 5 5 3 4 3 0 1 1 5 15 68 81 95 100 100 100 100 100 100 100
100 100 100 72 94 76 5 5 65 78 100 94 98 100 90 77 100 100 96 30 31 6 5 5 5 5 9 47 18 26 20 30 97 96 90 100 100 100 100 100 100 100 100
100 100 100 100 69 95 75 30 52 84 100 100 100 95 100 100 100 100 97 100 93 65 5 5 5 5 5 24 23 13 20 6 34 89 100 100 100 100 100 100 100 100 100
100 100 100 100 100 100 100 100 100 100 100 100 100 100 100 100 96 99 100 100 29 5 5 5 54 46 91 90 96 100 100 100 74 66 100 100 100 100 100 100 100 100 100
100 100 100 100 62 39 66 49 93 100 100 100 100 98 6 65 100 77 96 29 47 81 25 27 45 78 58 62 100 100 100 100 100 100 100 100 100 100 100 100 100 100 100
100 100 100 100 89 78 46 52 80 98 100 100 100 100 90 38 26 85 26 72 92 41 22 84 98 100 100 100 100 100 100 92 100 100 100 100 100 100 100 100 100 100 100

GFSSE_prec_cloud_078.txt.gz
Cloud_Cover
22 22 0 0 0 0 18 48 98 100 99 92 100 100 100 87 81 21 5 5 4 5 7 99 100 100 100 100 100 95 65 5 2 0 0 0 0 0 11 10 10 20 12
32 31 0 0 0 0 0 19 4 64 100 100 96 90 52 100 100 100 61 5 20 5 5 36 99 100 88 100 76 5 42 5 6 6 0 2 0 0 0 0 0 0 0
38 26 7 0 0 0 0 4 5 3 2 89 100 100 22 6 24 91 100 100 100 20 5 33 84 96 80 84 68 5 5 5 2 0 0 0 0 0 0 0 0 0 0
24 36 31 0 0 0 0 0 0 0 0 0 0 100 100 100 82 85 88 100 100 12 58 29 22 21 18 6 4 5 3 0 0 0 0 0 0 18 9 9 39 45 2
48 30 5 0 0 0 0 0 0 0 0 0 0 2 5 79 44 100 100 100 100 100 72 100 70 18 17 9 4 3 0 2 0 0 1 0 100 94 56 76 41 63 54
46 25 3 0 0 0 0 0 6 4 6 0 0 22 0 0 46 12 16 70 100 100 100 82 19 58 86 5 2 5 5 4 0 2 7 3 100 93 99 77 99 8 77
67 35 13 0 0 1 0 0 0 60 0 0 0 2 32 39 5 5 27 15 23 9 21 61 5 3 5 2 5 5 0 0 0 0 33 23 0 70 98 4 46 100 100
37 46 17 4 0 1 0 0 0 0 0 0 0 8 99 5 5 22 83 36 29 72 5 36 5 5 5 5 5 0 0 0 0 0 0 0 0 17 11 2 1 36 76
18 44 32 20 0 0 0 0 0 0 0 0 4 8 7 8 17 9 5 45 13 5 19 5 6 5 5 2 0 0 0 0 0 0 0 0 0 65 14 0 0 9 13
52 52 59 30 20 6 5 19 1 0 0 0 5 5 5 5 5 5 4 14 1 4 6 4 2 0 0 0 0 0 0 0 0 0 0 0 0 44 5 1 0 3 0
95 98 87 55 29 10 19 0 36 0 0 0 1 0 0 0 0 2 0 9 0 32 1 0 0 0 0 0 0 0 0 0 0 0 0 0 0 8 4 0 0 0 0
96 79 53 36 12 2 98 77 49 2 0 0 0 0 0 0 0 0 0 0 0 0 0 0 0 0 0 0 0 0 0 0 0 0 0 0 0 4 5 0 0 0 0
7 9 42 6 5 0 36 6 2 1 1 0 3 0 0 0 0 0 1 8 3 0 0 0 0 1 0 0 0 1 0 0 0 0 0 0 1 1 0 0 0 0 0
1 2 5 14 5 4 2 0 0 1 6 16 5 5 0 0 1 0 11 6 8 6 3 1 22 5 2 0 4 0 0 0 0 3 5 5 5 5 4 0 0 0 0
5 5 5 16 5 5 5 2 0 0 0 0 5 5 5 5 5 2 4 7 6 6 5 11 17 14 5 5 0 0 1 0 5 5 8 5 2 0 0 0 0 4 5
5 5 28 100 47 5 5 5 1 5 5 5 5 5 5 5 5 5 2 3 10 7 5 1 5 6 5 4 4 4 3 5 5 5 3 0 0 0 0 0 5 5 5
5 5 5 5 30 8 5 1 4 5 5 5 5 5 5 5 5 5 5 0 0 4 0 0 2 4 5 5 5 5 3 5 5 0 0 3 0 0 0 1 5 5 99
5 4 5 43 93 100 81 34 10 5 6 5 5 5 5 26 14 5 5 5 4 4 5 5 5 14 5 4 0 2 5 0 0 0 0 8 3 0 2 5 98 92 100
19 56 5 5 21 40 20 14 27 48 8 5 5 5 5 5 5 5 5 5 5 5 10 6 96 6 5 4 5 5 0 0 1 5 2 2 4 3 10 47 100 100 100
5 40 100 64 53 63 90 90 62 6 5 34 20 8 5 5 5 10 12 34 53 80 98 100 100 89 31 5 17 5 5 5 5 5 3 5 6 73 100 100 100 100 100
80 5 5 78 92 76 100 96 78 48 5 5 5 5 5 5 6 63 49 63 84 100 100 100 97 57 95 44 8 5 5 10 9 5 5 74 100 100 100 100 100 100 100
100 100 52 51 94 96 88 100 74 55 43 35 19 19 5 5 53 80 100 92 99 100 94 52 100 100 94 12 61 90 87 25 38 14 53 75 98 100 91 100 100 100 100
100 100 100 90 15 5 29 93 100 99 100 95 96 97 72 100 100 83 72 81 100 71 88 90 41 84 100 100 100 75 80 29 7 5 17 25 5 30 69 100 100 100 100
100 100 100 100 99 45 23 8 60 99 100 100 99 100 100 100 100 100 100 100 100 100 73 79 100 100 100 100 31 66 33 5 38 25 5 5 35 64 97 100 100 100 100
100 100 100 100 100 100 100 100 44 34 72 100 100 100 100 100 100 100 100 99 100 61 61 100 100 100 100 100 98 99 58 83 100 100 100 100 21 32 95 100 100 100 100
100 100 100 100 100 100 100 100 100 100 75 18 6 6 28 49 54 50 42 46 95 100 100 100 100 100 96 76 100 100 100 100 78 100 51 95 100 100 100 100 100 100 100

GFSSE_prec_cloud_081.txt.gz
Cloud_Cover
55 87 92 1 15 20 8 32 18 72 50 100 100 84 17 95 40 71 81 75 41 79 5 0 4 4 12 93 54 59 34 43 11 5 5 2 4 42 78 7 0 0 0
19 30 5 6 5 5 0 4 1 5 80 99 100 100 100 100 100 100 67 100 97 99 5 77 54 5 5 7 8 5 5 21 5 2 3 0 0 5 2 0 0 0 0
45 31 11 0 0 0 4 6 9 0 3 91 6 94 100 96 20 11 5 5 5 92 92 100 48 5 5 5 26 10 5 8 45 5 0 5 5 0 0 0 0 0 0
38 36 29 0 0 0 0 0 0 1 2 5 5 91 9 79 85 6 26 11 5 6 100 91 51 13 23 6 74 84 37 58 33 4 5 6 16 12 26 43 21 18 15
33 28 25 0 0 0 0 0 0 0 0 2 0 0 8 4 1 1 17 82 100 98 100 100 100 100 95 56 59 65 13 5 5 4 17 100 55 82 32 21 89 58 21
53 24 3 0 0 0 0 0 1 43 5 39 0 1 12 1 0 0 0 0 4 6 8 54 10 72 74 27 10 6 5 5 5 0 3 53 0 89 100 84 91 81 26
72 26 24 0 0 0 0 0 4 4 76 45 58 0 0 0 0 0 0 0 0 3 5 5 60 5 5 27 14 5 5 5 4 0 0 0 0 49 64 5 30 100 100
100 47 16 6 0 0 0 0 5 20 33 0 0 0 0 0 0 0 0 4 3 5 6 52 97 46 5 6 5 5 5 4 0 0 0 0 0 11 2 0 2 13 87
88 56 54 34 2 2 0 0 0 0 0 0 0 4 32 0 0 0 3 5 9 5 82 73 47 16 5 2 1 2 1 0 0 0 0 0 0 12 5 10 12 7 8
95 77 78 44 17 6 1 0 0 0 0 0 0 3 0 0 0 0 5 5 5 5 5 5 5 0 0 0 0 0 0 0 0 0 0 0 0 8 15 0 1 5 2
100 100 74 55 36 20 3 4 0 0 0 0 0 0 0 0 0 5 10 51 13 2 2 0 0 0 0 0 0 0 0 0 0 0 0 0 0 12 1 0 5 0 0
80 100 100 87 48 49 5 2 0 0 0 0 0 0 0 4 5 0 16 27 14 0 0 0 0 0 0 0 0 0 0 0 0 0 0 0 0 7 0 5 1 0 0
97 100 100 96 68 36 9 24 4 0 1 0 0 0 0 0 0 0 18 14 5 2 1 0 0 1 0 0 0 0 0 0 0 0 0 0 4 0 2 1 0 0 0
82 85 98 43 31 6 21 48 5 5 10 14 0 5 5 5 0 0 8 14 21 14 5 4 16 3 0 3 1 0 0 0 0 0 0 5 0 1 5 0 0 0 0
34 23 10 6 10 46 32 51 57 12 8 2 5 3 0 5 4 0 3 16 24 17 7 12 13 17 5 4 0 4 1 2 4 2 7 0 0 4 2 0 0 0 0
90 47 9 5 5 5 44 74 74 66 28 12 9 4 3 3 0 0 4 11 13 14 6 5 11 13 8 1 2 3 5 5 0 0 4 0 0 0 0 0 0 3 3
25 71 52 5 5 6 7 75 68 70 52 49 25 8 5 5 4 0 0 8 5 12 5 4 1 4 0 0 2 5 5 5 3 5 5 5 4 5 0 0 0 5 13
100 100 100 82 7 49 83 77 84 88 79 90 92 72 30 5 5 3 4 5 5 5 8 6 5 5 2 5 7 12 30 5 11 5 5 4 13 5 2 5 5 5 90
54 100 100 100 100 89 83 100 100 100 100 100 87 70 49 64 34 5 37 8 11 5 5 5 5 5 6 61 9 14 5 74 14 5 2 5 5 7 6 5 5 13 24
15 81 98 100 100 100 100 100 100 100 100 100 100 100 76 61 49 42 56 25 5 14 14 22 6 14 86 20 5 9 69 9 5 15 12 6 5 6 19 5 5 5 67
88 88 5 85 100 100 100 100 100 100 100 100 96 93 100 100 97 63 22 5 5 5 5 67 96 100 84 29 35 5 41 13 45 5 7 100 19 48 6 95 100 94 85
100 100 100 100 99 81 68 75 88 93 100 100 95 99 100 100 18 15 17 37 9 18 86 100 100 100 100 77 100 100 100 84 88 18 60 12 52 5 22 52 30 62 99
100 100 100 100 100 100 95 28 70 100 100 100 100 100 100 100 100 100 100 95 100 100 100 100 100 100 100 69 47 89 100 100 90 64 11 44 5 4 5 5 7 32 25
100 100 100 100 100 100 100 100 100 100 100 100 100 100 100 100 100 100 100 100 100 100 100 99 100 63 74 100 100 100 100 100 100 98 100 32 21 59 96 100 100 97 71
82 100 100 100 100 100 100 100 100 100 100 100 100 100 100 100 100 100 100 100 100 100 100 100 100 100 77 97 76 82 89 48 100 100 100 87 46 23 44 45 87 94 81
91 100 100 100 100 100 100 100 100 100 100 100 100 100 100 100 100 100 100 100 100 100 100 100 100 98 83 99 100 100 100 100 100 100 100 55 94 47 15 90 78 100 86

GFSSE_prec_cloud_084.txt.gz
Cloud_Cover
21 15 18 100 90 35 3 39 10 4 14 32 5 5 5 72 96 6 5 5 89 75 26 10 15 7 33 5 5 5 5 5 5 5 8 5 46 100 54 5 5 0 0
40 16 5 46 100 70 5 0 92 5 3 55 58 8 40 69 100 100 100 32 35 5 5 2 5 6 77 5 5 4 5 5 5 17 66 19 5 5 5 0 0 0 0
66 30 8 5 7 54 7 2 3 61 48 38 10 5 3 16 90 98 86 60 22 7 1 0 5 6 8 10 5 5 6 82 64 86 16 19 5 5 2 0 0 0 0
65 37 30 0 5 5 33 37 30 5 5 5 8 4 4 4 39 44 61 94 50 26 5 5 19 38 80 100 100 97 99 87 5 14 5 4 39 80 98 4 65 38 5
37 27 25 5 4 5 5 64 6 5 5 5 5 4 7 5 0 1 14 56 2 1 1 0 13 27 89 37 30 23 5 5 5 60 100 100 100 54 34 28 0 2 3
67 30 5 1 5 5 0 0 1 5 3 5 0 0 14 2 4 11 21 0 0 0 0 1 1 10 8 5 6 5 11 8 5 5 56 29 4 16 100 57 10 14 45
92 26 5 0 0 0 0 0 0 17 17 10 26 20 8 0 0 1 5 0 0 0 0 0 5 5 10 5 6 82 8 5 5 4 3 1 0 17 3 6 2 13 81
31 28 16 0 0 0 0 0 0 0 95 100 100 70 4 0 0 0 21 1 0 0 4 4 21 8 5 5 27 18 5 5 4 0 0 0 0 8 0 0 0 0 91
64 21 50 21 1 0 0 0 0 0 7 0 1 0 0 1 0 0 4 38 0 3 5 15 5 5 5 5 5 4 0 0 0 0 0 0 0 5 5 6 0 0 1
82 79 90 56 40 24 4 0 0 0 0 0 0 0 5 0 0 0 0 65 1 3 5 5 5 5 5 0 0 0 0 0 0 0 0 0 0 0 13 0 0 0 0
100 100 100 84 39 24 4 5 4 1 0 0 0 0 0 0 4 0 0 27 62 1 5 5 4 2 0 0 0 0 0 0 0 0 0 0 0 0 0 0 0 0 0
100 100 100 96 46 21 5 5 5 3 1 0 0 0 0 0 3 5 5 87 75 5 2 0 0 0 0 0 0 0 0 0 0 0 0 0 0 2 0 0 0 0 0
100 100 100 100 50 12 5 21 38 5 7 3 0 0 0 4 0 16 20 53 15 2 0 0 0 1 0 0 0 0 0 0 0 0 0 0 0 28 0 0 1 1 0
100 100 100 99 76 23 5 51 26 5 10 14 5 1 0 16 5 2 26 22 18 22 7 0 12 0 2 2 0 0 0 0 5 0 0 0 0 4 5 5 5 0 1
100 79 100 100 91 51 56 69 81 58 92 65 6 7 4 5 9 5 6 15 24 22 8 4 5 8 2 0 0 1 2 2 0 2 0 0 0 5 6 5 4 3 3
100 100 100 99 40 24 56 66 83 84 100 90 44 5 5 4 2 9 3 5 21 26 15 3 5 9 6 0 1 5 5 3 4 5 4 3 5 6 15 5 5 5 5
100 100 100 56 25 6 34 34 47 58 52 20 46 22 34 13 37 13 6 6 8 15 3 7 4 3 8 0 3 5 5 5 5 5 5 5 5 5 5 5 5 5 2
100 100 100 100 100 97 42 86 86 91 33 64 89 85 43 67 59 67 27 5 5 7 13 14 12 11 12 5 5 5 5 5 5 5 5 9 5 6 5 3 4 5 5
100 100 100 100 100 100 100 100 100 100 88 100 92 24 25 63 38 14 5 6 67 62 31 8 7 5 5 5 5 5 5 18 5 5 5 5 5 5 15 5 5 5 5
100 100 100 100 100 100 100 100 100 100 100 100 100 100 100 100 100 100 97 100 100 96 73 19 5 5 5 5 42 7 7 13 23 5 5 5 5 5 22 5 14 5 5
100 100 100 100 100 100 100 100 100 100 100 100 100 100 100 100 100 100 100 100 100 87 52 49 14 13 5 5 5 5 66 100 28 6 7 5 5 56 45 38 9 5 5
100 100 100 100 100 100 100 100 100 100 100 100 100 100 100 100 100 100 100 94 20 89 100 11 5 17 18 9 93 100 100 100 100 49 80 13 100 92 64 20 5 18 63
100 100 100 100 100 100 100 100 100 100 100 100 100 100 100 100 100 100 86 98 88 72 25 20 21 93 100 100 100 96 100 100 100 100 98 99 83 39 5 5 29 16 72
100 100 100 100 100 100 100 100 100 100 100 100 100 100 100 100 100 100 100 97 100 86 93 98 100 100 100 100 100 100 73 92 100 97 100 100 82 12 95 100 55 86 97
100 100 100 100 100 100 100 100 100 100 100 100 100 100 100 100 100 100 100 100 100 100 100 100 100 100 100 100 100 98 96 92 100 100 100 100 93 100 29 6 92 51 99
91 100 100 100 100 100 100 100 100 100 100 100 100 100 100 100 100 100 100 100 100 100 100 100 100 100 100 100 100 100 100 100 100 100 100 100 98 63 60 75 5 37 82

GFSSE_prec_cloud_087.txt.gz
Cloud_Cover
50 61 29 86 6 5 42 20 1 3 0 6 83 1 0 4 3 5 5 33 96 100 46 81 59 21 12 6 5 5 5 5 4 7 5 7 53 23 5 5 5 5 5
6 18 5 6 5 23 47 93 5 2 0 33 96 3 0 5 4 4 25 92 100 100 99 56 65 5 5 5 4 5 17 5 97 17 5 70 16 5 5 5 5 4 2
12 37 24 4 5 1 83 100 66 8 0 2 4 6 6 0 9 5 5 6 66 72 29 16 35 17 7 3 5 60 98 100 94 5 5 5 7 5 5 5 5 0 0
24 38 35 5 5 4 8 92 95 97 8 1 0 5 5 2 6 5 5 0 0 1 0 0 1 5 0 12 9 73 27 5 5 4 25 68 72 14 22 52 17 29 0
61 46 32 5 5 5 5 66 44 62 39 9 5 5 12 6 18 5 1 0 0 0 0 0 0 1 1 5 1 96 8 5 98 100 100 18 9 20 12 10 4 0 27
74 34 16 0 3 5 1 69 4 32 6 9 5 5 6 13 8 32 0 0 0 0 0 0 0 0 0 3 9 4 5 5 6 56 5 5 21 57 24 0 0 15 14
89 39 34 0 0 0 0 0 1 22 11 12 5 9 6 3 1 11 0 0 0 0 0 0 4 2 5 5 1 5 5 5 5 5 4 0 8 0 0 0 0 0 0
84 42 36 1 0 0 0 0 0 15 92 98 83 99 24 0 0 23 8 0 0 0 2 1 5 5 5 5 5 5 5 5 4 0 0 0 0 0 0 0 0 1 0
52 5 36 11 0 1 0 0 0 0 100 100 90 13 0 0 0 13 19 3 0 3 5 5 5 5 5 5 5 2 1 0 0 0 0 0 0 1 1 5 5 0 0
51 23 2 19 33 30 5 1 0 0 0 0 0 0 0 0 0 5 51 79 5 5 1 0 0 5 5 5 4 0 0 0 0 0 0 0 3 0 0 2 5 0 0
43 44 29 50 36 27 28 5 1 0 0 0 0 0 0 0 5 5 9 100 99 6 0 0 5 5 1 5 0 0 0 0 0 0 0 0 1 2 5 5 5 1 0
88 100 100 98 39 37 30 3 5 3 3 0 0 0 0 0 0 4 6 65 78 5 4 1 2 1 0 0 0 0 0 0 0 0 0 0 1 5 5 3 5 5 5
100 100 100 100 70 55 44 5 5 2 5 2 5 3 0 0 0 0 0 98 94 7 5 5 2 0 0 0 0 0 0 0 0 0 0 0 5 5 5 5 5 5 5
100 100 100 100 92 61 21 5 5 7 5 5 5 5 5 0 0 0 0 3 16 13 4 0 0 0 0 0 0 0 0 0 0 0 0 0 3 8 12 5 5 5 5
100 100 100 100 88 71 22 5 15 6 18 5 5 16 9 2 1 2 0 4 10 15 0 0 0 0 0 0 0 0 0 0 0 0 0 0 5 5 8 6 5 5 5
100 100 100 100 98 82 29 7 5 19 34 78 8 21 29 67 38 5 5 5 5 6 1 5 0 0 0 0 0 0 1 4 1 1 0 4 4 1 5 6 19 6 5
100 100 100 100 100 71 31 40 5 91 75 74 47 13 5 5 22 14 5 5 5 5 5 5 5 0 0 4 5 5 5 5 5 2 5 5 5 5 5 5 6 18 10
100 100 100 100 100 100 100 34 64 81 57 71 43 8 5 7 54 47 6 6 5 7 5 5 1 6 6 7 10 6 6 5 5 5 5 5 17 46 5 5 5 5 10
100 100 100 100 100 100 100 100 94 32 94 100 80 12 22 47 51 30 38 64 36 39 74 40 51 100 99 100 10 34 6 5 5 5 5 52 16 5 28 5 5 10 5
100 100 100 100 100 100 100 100 100 100 92 41 42 63 91 100 56 10 41 86 99 100 100 100 100 100 100 90 69 20 51 12 5 16 6 5 5 5 5 5 4 7 32
100 100 100 100 100 86 100 100 100 100 100 100 100 100 100 100 100 60 98 100 100 100 100 100 100 100 100 47 97 97 43 15 90 5 5 8 5 5 5 5 5 37 26
100 100 100 100 100 100 100 100 100 100 100 100 100 100 100 100 100 100 100 100 100 100 100 100 100 100 99 100 97 87 91 76 6 7 11 5 6 6 5 8 52 99 75
100 100 100 100 100 100 100 100 100 100 100 100 100 100 100 100 100 100 100 100 100 100 100 100 100 100 100 100 100 94 99 95 100 100 100 100 88 100 61 71 61 84 100
100 100 100 100 100 100 100 100 100 100 100 100 100 100 100 100 100 100 100 100 100 100 100 92 68 99 100 93 100 35 94 100 100 100 100 100 100 100 100 100 100 46 32
98 98 100 100 100 100 100 100 100 100 100 100 100 100 100 100 100 100 100 100 100 100 100 100 100 100 64 99 100 99 98 100 100 99 100 100 100 100 100 100 100 100 78
100 100 100 100 100 100 100 100 100 100 100 100 100 100 100 100 100 100 100 100 100 100 100 100 100 96 100 100 100 100 100 100 100 100 100 100 100 100 100 100 100 100 20

GFSSE_prec_cloud_090.txt.gz
Cloud_Cover
21 67 20 7 5 5 2 0 5 16 2 7 2 2 5 5 4 1 5 10 23 29 55 93 63 100 16 5 10 25 5 17 5 19 8 49 16 5 3 5 5 5 7
5 20 8 7 5 15 0 4 5 37 8 1 2 1 1 2 3 1 3 5 6 16 97 5 55 17 5 5 27 6 5 41 41 81 41 7 4 4 4 2 5 5 0
5 84 5 26 6 5 87 74 4 0 13 5 1 0 0 0 1 4 2 4 5 5 6 21 1 4 0 2 0 1 41 8 17 5 40 77 17 18 34 7 5 0 0
1 88 26 6 5 5 5 57 27 2 52 98 81 5 5 0 0 0 3 5 5 5 5 5 0 0 0 0 0 0 4 4 34 48 71 100 58 100 13 5 6 0 27
4 100 54 2 4 5 5 5 5 3 33 89 53 79 7 11 4 1 2 4 5 5 5 0 0 0 0 0 0 0 0 7 4 6 26 28 23 8 9 43 31 23 7
1 88 18 0 0 0 5 5 2 3 5 3 5 5 55 29 12 5 5 5 5 5 0 0 0 0 5 6 11 5 5 5 86 56 65 5 4 0 0 0 26 35 16
2 41 13 0 4 0 5 6 5 0 38 26 0 4 12 7 57 5 4 0 0 0 1 0 0 0 0 4 6 5 5 5 63 7 0 0 0 0 0 0 0 0 0
62 98 76 15 0 0 0 0 2 13 95 98 43 1 7 13 45 5 4 0 0 0 0 0 0 0 9 5 5 5 4 5 4 2 0 0 0 0 0 0 0 0 4
97 100 47 17 0 12 0 0 0 0 100 11 89 2 2 1 1 53 0 0 0 4 3 2 1 4 4 6 5 5 5 0 2 0 0 0 0 0 0 0 0 1 5
99 100 93 86 74 42 22 4 0 0 24 13 0 0 0 0 0 43 36 21 5 5 5 5 1 3 0 0 2 0 0 5 5 0 1 0 1 0 0 0 0 5 5
100 100 100 80 98 92 100 35 5 2 0 0 0 0 0 0 0 5 82 100 48 4 5 5 5 0 0 0 0 0 0 0 0 0 9 1 12 0 0 0 0 5 4
100 100 90 88 100 77 100 59 74 32 1 0 0 0 0 0 0 0 26 100 100 62 3 3 0 0 0 0 1 0 0 0 0 0 17 0 6 7 0 0 4 1 1
100 100 99 89 100 89 86 100 100 63 20 4 0 0 0 0 0 4 5 100 100 20 63 18 17 8 0 3 5 3 0 0 0 0 0 0 0 0 0 0 0 0 5
100 100 100 100 95 79 92 88 91 51 31 5 5 5 3 1 0 0 0 6 73 97 100 70 31 27 3 0 0 0 0 0 0 3 0 4 3 5 28 0 0 5 5
100 100 100 98 90 72 100 100 86 55 10 6 19 41 5 5 5 5 2 4 4 8 1 2 0 2 4 0 0 0 0 5 5 4 5 3 5 2 3 22 10 7 5
100 100 100 100 99 56 65 86 85 54 74 53 18 37 22 42 5 5 6 5 5 4 3 4 5 4 5 5 3 5 5 5 5 5 5 8 5 0 4 5 20 10 5
100 100 100 83 100 54 100 97 75 74 58 54 70 49 33 65 81 64 73 83 38 5 54 49 64 38 8 6 54 7 5 98 35 23 30 5 5 8 5 5 5 8 21
100 100 100 100 100 100 100 100 80 71 27 21 59 47 49 54 77 99 100 92 52 16 69 81 81 86 81 47 89 100 100 89 99 48 5 5 5 5 5 5 5 5 24
100 100 100 100 100 100 100 100 100 100 100 68 36 80 22 64 60 73 78 98 100 100 96 80 44 28 96 100 100 100 100 98 60 93 5 5 5 5 5 5 5 5 5
100 99 100 100 100 100 100 100 100 100 100 100 100 88 66 85 99 93 41 87 96 87 65 92 81 100 100 100 100 100 100 80 100 15 93 8 5 5 5 5 6 5 5
100 100 88 100 100 100 100 100 100 100 100 100 100 100 100 100 95 39 71 97 100 66 72 100 100 100 100 100 100 100 100 100 63 98 5 5 5 5 5 5 5 5 39
100 100 96 47 79 100 100 100 100 100 100 100 100 100 100 100 100 100 100 100 100 100 100 100 100 100 100 100 100 100 100 100 100 33 18 5 5 6 26 6 8 40 72
100 100 54 86 100 100 100 100 100 100 100 100 100 100 100 100 100 100 100 100 100 100 100 100 100 100 100 100 100 100 100 100 99 100 100 84 16 72 48 89 86 100 75
100 100 100 98 100 100 100 100 100 100 100 100 100 100 100 100 100 100 100 100 100 100 100 100 100 100 100 100 100 100 100 100 100 100 100 100 100 100 100 100 100 100 100
32 95 94 100 100 100 100 100 100 100 100 100 100 100 100 100 100 100 100 100 100 100 100 100 100 100 100 100 100 100 100 100 100 100 100 100 76 100 100 100 100 100 97
70 100 100 100 100 100 100 100 100 100 100 100 100 100 100 100 100 100 100 100 100 100 100 100 100 100 100 100 100 100 100 100 100 100 100 100 100 100 100 100 100 98 58

GFSSE_prec_cloud_093.txt.gz
Cloud_Cover
21 11 5 5 8 5 5 5 2 4 74 78 2 5 5 5 16 20 30 39 18 16 42 100 68 7 5 5 5 7 7 5 32 34 38 100 86 6 5 5 5 5 8
2 4 0 4 5 3 5 46 4 3 5 5 5 1 0 4 5 0 5 2 3 7 5 3 4 2 5 3 2 0 0 4 24 92 67 100 55 20 10 5 5 4 2
3 5 0 1 5 1 0 4 5 5 0 0 4 5 5 3 5 5 5 5 2 5 4 3 2 5 5 5 3 0 3 2 5 95 100 55 10 42 12 10 6 21 6
2 6 11 0 2 5 2 23 13 5 17 2 3 5 5 5 3 4 17 0 0 4 0 3 1 5 5 3 0 0 0 0 0 100 100 92 15 72 54 14 20 32 13
6 2 8 5 2 8 4 4 2 5 44 39 79 4 4 35 24 49 58 73 5 5 5 0 5 5 12 2 8 3 0 4 0 5 44 12 31 9 63 93 96 36 9
8 4 19 1 1 0 1 5 4 0 1 7 59 23 1 15 8 20 60 59 5 41 18 5 7 6 11 9 12 0 0 31 91 14 9 6 5 5 0 6 0 9 48
16 98 0 0 0 0 0 0 0 0 0 0 5 5 24 24 28 5 5 5 5 5 5 4 3 1 4 7 6 2 5 5 5 8 5 5 5 0 0 0 0 8 6
24 80 30 16 2 0 0 0 0 0 0 10 1 6 13 90 5 5 5 4 4 4 4 5 3 1 2 3 2 5 5 5 5 5 5 5 5 0 0 0 0 0 0
51 84 67 36 2 0 0 3 0 14 7 0 0 0 0 3 88 2 4 0 0 2 0 0 0 0 0 0 0 4 0 5 2 7 20 1 0 0 0 0 0 0 2
84 100 100 65 36 29 29 6 5 0 0 0 0 0 0 0 56 11 0 0 0 0 0 0 0 0 5 0 2 0 0 0 19 23 5 0 0 0 0 0 0 0 0
100 100 100 100 96 79 70 30 34 6 0 2 0 0 0 0 2 16 28 1 0 0 2 5 5 3 5 0 0 0 0 12 9 11 10 0 2 0 0 0 0 0 0
100 100 100 84 100 79 63 19 81 48 2 5 1 0 0 0 0 67 25 99 85 30 2 5 0 5 2 0 2 1 3 0 3 3 6 1 1 0 0 3 1 2 0
100 100 100 85 96 100 100 56 100 100 17 11 0 0 0 0 0 2 32 100 100 94 24 13 1 5 4 0 0 0 0 0 0 0 0 5 5 21 5 5 5 0 0
100 100 97 83 86 100 100 90 99 82 17 8 5 2 0 0 0 0 8 38 100 82 100 73 30 25 6 1 0 3 0 0 0 0 5 5 41 48 34 18 5 2 0
100 100 97 70 88 100 100 100 90 100 5 14 5 5 5 5 5 5 3 18 26 28 33 22 7 23 16 4 0 1 3 5 5 5 20 100 100 46 15 70 5 1 5
100 100 100 54 74 100 100 100 100 100 65 26 14 5 5 5 5 7 24 62 40 10 9 11 5 5 5 5 5 5 5 5 5 20 79 100 92 6 99 100 19 23 2
100 100 100 96 7 93 100 100 100 100 67 96 24 22 48 43 61 60 64 89 52 17 68 71 70 76 43 18 27 70 97 66 5 88 100 84 100 99 85 5 1 10 27
100 100 100 100 100 76 95 100 100 100 100 100 30 22 29 14 65 58 71 43 10 49 87 100 92 86 88 100 100 34 5 25 100 100 100 64 100 98 42 5 5 2 5
100 100 100 100 93 100 57 89 100 100 100 100 99 81 42 26 64 39 81 88 73 37 66 74 100 100 100 83 32 27 82 100 100 99 93 100 57 18 36 5 0 3 4
100 100 100 100 100 100 56 22 55 100 100 100 100 100 100 91 78 71 56 51 31 82 96 47 38 80 100 100 68 95 100 100 95 100 96 91 56 11 5 5 5 4 5
100 100 100 100 100 100 100 86 66 100 100 100 100 100 100 100 100 100 100 100 98 42 5 6 5 5 41 94 100 100 100 100 100 100 64 28 48 5 5 5 5 5 6
100 100 100 100 100 100 100 100 100 100 100 100 100 100 100 100 100 100 100 100 100 100 100 100 100 97 100 100 100 100 100 100 100 88 36 93 6 26 5 5 5 44 77
75 100 100 100 100 100 94 61 100 100 100 100 100 100 100 100 100 100 100 100 100 100 100 100 100 100 100 100 100 100 100 100 100 100 100 100 86 16 5 5 5 6 63
96 86 86 100 97 100 100 94 100 100 100 100 100 100 100 100 100 100 100 100 100 100 100 100 100 100 100 100 100 100 100 100 100 100 100 100 100 74 35 56 5 57 15
58 14 88 100 100 100 100 100 100 100 100 100 100 100 100 100 100 100 100 100 100 100 100 100 100 100 100 100 100 100 100 100 100 100 100 84 100 100 100 31 33 17 7
48 34 77 58 100 100 100 98 100 100 100 100 100 100 100 100 100 100 100 100 100 100 100 100 100 100 100 100 100 100 100 100 100 100 100 100 100 100 100 100 7 19 94

GFSSE_prec_cloud_096.txt.gz
Cloud_Cover
4 0 0 0 4 0 5 5 5 60 100 10 5 6 28 22 27 55 25 21 5 12 86 4 2 5 5 0 6 19 4 0 5 5 3 62 39 5 5 5 5 5 3
0 10 0 2 3 0 5 5 5 21 6 5 5 0 30 10 70 60 41 37 7 4 5 2 0 5 3 0 0 0 0 0 1 4 2 2 5 5 5 5 5 5 5
0 3 0 0 0 1 4 1 20 30 5 5 5 5 2 5 1 1 2 5 5 5 5 0 0 5 0 0 0 0 2 74 59 94 0 5 14 5 11 17 7 5 0
0 1 0 0 0 0 4 6 4 18 7 18 6 5 2 2 5 5 1 4 5 5 5 5 5 4 3 2 0 0 1 5 79 52 4 1 49 80 59 91 91 52 2
0 0 0 0 0 0 2 46 4 5 5 6 33 5 4 0 3 5 4 5 5 6 6 29 5 4 19 9 0 0 0 1 18 0 4 4 5 42 78 51 98 100 96
1 0 0 5 4 56 9 0 0 0 5 5 5 67 48 5 5 5 5 5 13 13 5 7 6 0 14 1 0 0 0 1 5 3 5 5 5 3 5 6 89 100 100
42 0 0 2 5 5 0 0 0 0 0 5 0 5 8 51 28 28 11 5 5 5 8 5 4 1 13 0 0 0 0 4 5 5 5 5 2 0 4 0 0 1 18
16 1 0 0 0 2 0 0 0 0 16 0 2 15 65 2 4 19 37 5 4 3 0 0 1 0 0 0 0 0 0 0 5 0 0 2 0 0 0 0 0 0 0
5 4 4 6 5 5 3 0 0 12 87 17 0 0 1 82 0 0 4 4 1 4 2 0 11 0 0 0 0 0 0 0 0 0 0 0 0 0 0 1 5 2 0
22 32 4 21 15 6 5 5 4 32 59 0 0 0 0 85 8 0 0 3 5 4 0 0 0 0 0 0 0 0 0 0 4 0 0 0 0 0 4 5 4 5 5
88 85 30 5 28 66 51 23 20 4 0 0 0 0 0 4 2 0 0 0 0 0 0 0 0 0 0 1 2 0 3 0 0 1 5 5 0 2 5 5 6 35 5
100 100 100 43 46 46 100 87 5 5 0 0 0 0 0 0 0 7 0 5 0 0 0 0 0 0 0 2 0 0 3 0 0 0 0 0 0 0 5 5 100 100 39
100 100 100 83 66 25 48 99 76 5 5 0 0 0 0 0 0 100 3 44 0 1 0 0 0 0 0 5 0 0 5 5 4 0 0 0 5 8 5 22 100 82 5
100 100 100 99 97 46 60 71 100 100 34 20 5 1 0 0 0 0 0 0 9 48 36 0 1 4 5 5 5 5 5 5 5 3 5 5 7 10 24 100 100 8 64
100 92 100 100 78 98 100 25 62 100 100 41 6 5 3 0 0 0 0 0 0 2 3 2 11 35 5 5 5 5 5 5 5 5 5 88 48 54 100 100 100 69 48
77 100 100 100 77 16 100 98 5 97 100 100 63 19 5 5 4 0 0 1 5 34 5 14 55 46 14 31 13 6 5 5 5 28 100 7 82 100 100 100 100 16 5
90 97 99 100 100 98 100 100 60 99 100 100 100 68 22 6 5 5 5 5 5 5 5 52 63 62 33 62 87 7 5 5 76 16 5 38 44 100 100 100 8 10 35
100 100 100 100 100 100 100 100 100 98 86 100 100 100 64 90 15 5 5 5 16 53 52 39 52 52 66 93 42 8 12 18 5 6 35 100 100 100 100 100 5 10 1
100 100 100 100 100 100 98 100 100 100 99 42 100 100 100 100 74 29 88 85 73 36 22 31 25 5 5 11 6 10 5 5 6 28 91 100 100 100 100 98 79 10 5
100 100 100 100 100 100 98 47 100 100 100 100 100 100 100 100 100 100 100 100 100 100 100 99 53 5 17 5 12 5 4 5 5 9 36 95 85 99 28 57 17 12 10
100 100 100 100 100 92 100 100 87 59 98 100 100 100 100 100 100 100 100 100 100 100 100 100 100 100 100 100 99 100 100 100 100 98 100 81 72 92 6 49 37 98 51
100 100 100 100 100 100 99 100 95 100 49 100 100 100 100 100 100 100 100 100 100 100 100 100 100 100 100 100 100 100 100 87 82 100 100 17 60 14 6 11 94 55 73
6 85 100 100 100 100 97 78 100 99 100 100 99 100 100 100 100 100 100 100 100 100 100 100 100 100 100 100 100 93 94 98 100 100 100 100 92 91 92 81 52 8 74
0 6 51 100 94 100 100 55 100 100 90 87 96 100 100 100 100 100 100 100 100 100 100 100 100 100 99 90 100 95 96 100 100 100 100 100 98 100 96 40 12 75 70
0 0 23 37 100 100 100 100 85 100 100 84 90 100 100 100 100 100 100 100 100 100 100 100 100 100 100 100 100 100 100 100 100 100 100 100 100 100 79 49 100 95 99
0 0 0 0 5 98 100 100 100 100 100 100 100 100 100 100 100 100 100 100 100 100 100 100 100 100 100 100 100 100 100 100 100 98 100 98 100 84 100 100 99 97 100

GFSSE_prec_cloud_099.txt.gz
Cloud_Cover
27 4 0 0 7 37 77 100 100 100 23 5 5 18 24 35 22 14 10 7 2 0 0 0 2 0 1 30 31 4 2 3 0 0 4 0 0 0 0 0 5 2 11
17 0 0 16 0 0 1 45 48 5 5 5 5 8 57 83 100 100 88 27 7 0 4 0 3 0 0 5 56 0 0 0 0 0 0 0 0 4 7 0 5 1 8
23 0 1 6 0 0 0 51 18 5 3 9 5 5 39 99 90 18 10 4 0 4 4 5 4 5 7 49 2 12 0 0 0 0 0 35 31 39 7 8 5 0 1
22 0 0 0 0 0 5 63 0 2 0 35 6 5 5 5 3 3 0 2 5 5 3 2 5 40 9 4 0 0 0 0 0 0 0 45 69 14 66 91 33 22 80
42 21 3 9 0 0 0 0 0 0 0 5 3 5 5 43 25 5 2 0 0 5 3 0 11 5 5 0 0 0 0 0 0 0 0 0 5 93 100 100 98 8 84
27 22 0 0 0 50 18 0 0 0 0 0 2 5 5 25 41 38 5 5 0 5 5 5 43 40 4 0 0 0 0 0 0 0 0 0 3 0 0 1 32 100 100
4 5 0 0 0 23 0 0 0 0 0 0 0 2 5 5 5 5 74 81 16 19 5 5 5 5 0 5 3 0 0 0 0 0 0 0 0 0 0 0 0 0 2
5 56 0 0 0 6 3 0 0 0 0 0 0 0 0 2 0 0 5 5 5 9 7 36 6 3 5 3 0 0 0 0 0 0 0 0 0 0 0 0 0 0 0
38 92 48 1 0 3 4 0 0 0 0 1 4 0 0 0 0 2 5 5 5 0 5 5 5 5 0 0 0 0 0 0 0 0 0 0 0 0 0 0 0 0 0
100 100 88 5 5 1 2 16 1 56 0 0 3 37 1 0 0 0 0 0 4 5 5 0 0 0 0 0 0 0 0 0 0 0 0 0 0 0 0 0 0 0 0
100 84 68 41 7 5 5 5 20 67 5 0 0 3 31 0 0 0 0 0 0 0 0 0 0 0 0 0 0 0 0 0 0 0 0 0 0 0 0 0 3 5 5
100 100 100 100 63 5 5 60 80 58 5 5 4 0 0 0 0 0 0 0 0 0 0 0 0 0 0 0 0 0 0 4 4 0 1 5 5 0 5 5 5 4 74
100 100 100 100 100 75 55 25 6 80 94 61 5 5 4 2 1 0 20 10 3 0 0 0 0 0 0 0 0 5 5 5 5 5 0 4 5 5 5 59 5 5 25
100 100 100 100 100 71 92 99 86 100 64 97 94 6 5 5 3 78 14 13 14 8 6 0 0 0 0 4 5 5 10 5 5 5 5 5 5 5 89 5 5 5 5
100 100 100 100 100 100 100 100 96 100 90 27 99 100 37 5 5 4 5 7 0 0 1 0 0 5 5 5 6 5 5 5 5 5 5 5 5 78 47 5 5 5 5
100 100 100 100 100 98 44 99 100 100 100 27 48 100 100 84 5 5 5 5 4 2 0 0 2 5 5 5 6 5 7 5 37 11 11 53 80 99 51 81 26 10 29
100 94 100 100 100 100 68 86 100 100 100 100 91 62 100 100 100 42 13 19 30 6 8 5 5 5 5 5 5 5 5 10 99 33 5 10 10 21 91 5 6 68 45
99 100 61 94 100 100 100 54 78 100 100 98 100 88 42 99 100 100 96 6 36 11 40 82 10 35 5 7 10 5 5 0 0 0 3 3 4 5 5 41 100 18 5
100 100 100 100 100 100 100 100 91 85 100 100 96 100 47 51 88 100 100 82 95 96 99 86 99 32 5 14 8 6 56 50 38 36 9 80 99 57 80 100 98 5 5
100 100 100 100 100 100 100 100 92 92 100 100 100 89 90 49 23 63 100 100 100 100 100 100 100 100 68 80 62 100 100 57 100 90 100 100 96 35 99 17 5 32 75
100 100 100 100 100 100 100 100 100 54 100 100 100 100 100 81 93 44 94 100 100 100 100 100 100 100 100 100 100 100 100 100 100 100 99 12 22 100 92 6 5 6 38
90 100 100 100 100 100 100 100 100 100 91 100 100 100 100 100 89 98 100 100 100 100 100 100 100 100 100 100 100 98 98 87 92 71 85 8 76 80 100 9 6 13 10
0 18 97 100 100 100 100 49 100 100 100 100 74 100 100 99 100 100 100 100 100 100 100 100 100 100 100 100 100 100 93 93 93 40 24 76 97 100 97 8 5 92 83
3 0 0 71 100 93 100 100 100 100 70 97 100 98 100 100 100 100 100 100 100 100 100 100 100 100 100 100 100 100 100 91 79 99 100 100 100 100 86 6 19 10 17
100 55 5 0 17 100 7 51 100 100 94 61 100 100 100 100 100 100 100 100 100 100 100 100 100 100 100 100 100 100 100 100 100 100 100 100 99 100 66 26 93 96 100
86 35 5 0 5 13 14 8 97 100 100 100 100 100 100 100 100 100 100 100 100 100 100 100 100 100 100 100 100 100 100 100 100 100 100 100 100 100 100 100 100 100 100

GFSSE_prec_cloud_102.txt.gz
Cloud_Cover
49 8 5 42 100 99 100 100 96 5 24 12 30 18 5 2 33 4 6 5 6 5 5 6 13 72 89 0 5 4 5 9 0 0 0 0 0 0 0 0 0 1 7
54 31 28 1 0 4 46 100 98 23 36 23 80 12 16 24 41 42 74 8 36 5 5 5 0 4 0 0 2 5 4 0 0 0 6 3 0 0 0 0 0 9 0
43 31 4 8 0 0 0 0 11 5 25 69 100 66 35 89 100 92 8 5 5 5 5 0 0 5 0 0 5 5 4 0 0 0 0 34 67 12 10 0 0 1 0
27 29 31 5 4 0 0 0 0 0 9 4 40 99 100 100 86 7 5 5 0 0 2 4 2 0 1 0 4 5 4 0 0 0 0 0 15 42 22 29 93 80 100
17 81 19 4 17 77 0 0 0 0 0 7 2 45 25 29 6 5 3 5 5 4 4 1 16 5 5 5 4 5 4 1 0 0 0 0 73 100 100 100 20 2 47
9 10 95 4 0 0 0 0 0 0 0 0 0 0 0 1 5 5 5 5 5 3 36 13 5 5 5 5 0 4 1 3 0 0 0 0 0 0 0 0 58 100 100
35 32 4 1 0 0 0 0 0 0 0 0 0 0 0 0 0 0 5 5 5 5 5 5 5 4 5 4 4 4 3 0 0 0 0 0 0 0 0 0 0 0 0
45 5 0 4 0 0 0 0 0 0 0 0 0 0 0 0 1 0 19 8 4 5 6 5 5 1 0 0 0 0 0 0 0 0 0 0 0 0 0 0 0 0 0
29 6 2 5 8 2 4 1 0 0 0 0 0 0 0 5 6 0 2 0 0 1 12 11 4 0 0 0 0 0 0 0 0 0 0 0 0 0 0 0 0 0 0
96 94 91 5 54 5 5 5 5 5 2 1 0 0 0 0 0 0 0 0 0 0 0 0 0 3 0 0 0 0 0 0 0 0 0 4 3 0 0 0 0 0 0
100 54 99 92 77 57 60 8 5 7 5 33 3 4 0 0 0 0 0 0 0 0 0 0 0 0 0 0 0 0 0 0 0 5 0 0 0 0 2 0 0 4 2
100 97 100 100 94 100 100 50 5 5 5 5 6 8 5 2 0 0 0 0 0 0 0 0 0 0 0 0 0 0 0 0 0 5 5 3 5 3 0 0 0 1 5
100 100 100 100 100 100 100 100 92 53 5 5 17 18 18 12 6 8 17 6 0 0 5 0 0 0 0 0 0 0 0 0 0 2 5 5 0 0 5 5 4 5 5
100 100 100 100 100 100 100 100 100 96 61 59 11 17 100 73 31 28 26 13 5 7 2 0 0 0 0 0 0 0 5 5 5 5 5 0 5 5 5 5 5 5 3
100 100 100 100 100 100 100 100 100 100 100 99 100 55 52 100 90 43 28 27 14 9 4 1 0 0 0 0 0 0 2 5 5 5 5 4 5 5 5 4 0 0 0
100 100 100 100 100 100 100 100 100 100 100 100 100 100 100 90 98 54 96 37 13 14 5 5 5 5 5 5 1 0 4 5 5 5 2 0 4 1 0 10 31 5 5
100 100 100 98 100 100 100 94 100 100 100 100 100 100 100 100 81 94 100 100 100 61 28 54 16 5 5 5 5 5 5 5 3 0 5 5 84 95 84 5 89 98 70
100 88 100 70 100 100 100 100 100 100 100 100 100 100 100 100 95 61 32 44 95 100 93 99 62 70 30 20 5 5 5 4 5 4 5 100 100 99 75 54 18 77 32
84 100 100 100 100 100 100 100 100 100 100 100 100 100 100 98 99 9 53 26 12 65 100 100 99 100 100 100 100 100 91 5 5 4 90 100 85 31 91 98 32 59 5
100 91 100 100 100 100 100 100 100 100 97 100 100 98 97 65 100 89 90 97 100 100 100 100 100 100 100 100 100 100 95 99 91 51 100 56 94 6 48 97 74 5 8
100 100 100 86 100 100 100 100 100 100 82 100 100 100 100 100 100 100 85 100 100 100 100 100 100 100 100 100 100 100 100 62 14 5 9 5 5 43 100 18 79 36 34
100 100 100 100 100 100 100 100 100 100 100 64 100 100 100 100 100 100 96 100 100 100 100 100 100 100 100 100 97 96 100 95 98 87 71 98 100 83 100 100 100 8 20
96 100 100 100 100 100 100 100 100 96 99 100 100 100 100 100 100 100 100 100 100 100 100 100 100 100 100 100 100 100 98 76 60 96 84 61 47 100 71 100 97 71 100
5 36 100 100 100 100 100 100 100 100 100 100 99 100 100 100 100 100 100 100 100 100 100 100 100 100 100 100 100 100 100 100 100 100 98 95 91 71 100 100 92 83 95
10 9 5 28 98 100 100 100 100 99 95 99 100 100 100 100 100 100 100 100 100 100 100 100 100 100 100 100 100 100 100 100 100 100 100 100 64 100 100 100 100 100 100
5 51 5 4 91 30 85 81 100 100 84 57 86 100 100 100 100 100 100 100 100 100 100 100 100 100 100 100 100 100 100 100 100 100 100 100 100 100 100 100 99 100 100

GFSSE_prec_cloud_105.txt.gz
Cloud_Cover
49 5 1 5 18 71 96 64 34 100 63 5 0 0 2 3 10 18 21 87 94 2 16 100 94 71 4 21 60 8 1 5 18 6 0 0 0 42 12 0 0 0 1
49 24 0 5 6 84 100 100 88 63 100 96 7 5 6 57 96 63 63 25 0 0 0 59 100 5 0 4 3 16 2 29 6 0 0 0 0 0 0 0 0 9 74
60 33 3 0 5 5 43 85 99 100 38 100 54 17 28 99 93 83 6 1 0 0 0 41 14 0 0 0 0 0 8 1 0 0 26 30 6 25 43 14 0 6 98
45 38 32 0 5 19 9 5 2 17 44 6 17 19 40 98 87 6 0 3 4 2 5 2 5 4 6 0 0 0 2 2 0 0 9 48 70 49 100 100 73 6 3
54 37 26 2 4 8 40 26 2 0 26 9 8 92 100 100 22 5 2 1 5 5 5 8 5 3 0 0 5 1 1 3 0 0 0 16 95 39 16 28 4 38 60
61 44 5 95 47 5 5 5 17 0 1 0 99 100 100 87 0 0 0 0 0 5 5 5 13 5 1 0 5 3 0 0 0 0 0 0 0 0 0 0 0 5 0
97 100 61 100 95 100 43 6 2 0 3 8 59 26 37 2 0 0 0 0 0 0 2 17 4 4 0 0 0 0 0 0 0 0 0 0 0 0 1 0 0 0 0
81 98 100 99 34 94 100 22 2 0 0 1 14 1 0 0 0 0 3 0 0 2 5 4 0 0 0 0 0 0 0 0 0 0 0 0 0 0 0 5 2 0 0
18 92 96 29 5 6 80 100 4 4 0 0 0 0 0 0 0 66 5 0 15 30 7 8 0 0 0 0 0 0 0 0 0 0 0 0 0 0 0 1 0 0 0
51 81 100 82 8 79 5 23 5 5 5 5 0 0 0 0 0 0 0 0 0 0 4 0 0 0 0 0 0 0 0 0 0 0 0 0 0 4 1 0 0 0 0
100 100 97 100 50 57 38 10 26 5 12 5 5 1 0 2 1 0 0 0 0 0 0 0 0 0 0 0 0 0 0 0 0 0 0 0 0 2 5 4 0 0 0
100 90 100 100 100 84 100 76 46 44 38 47 6 5 6 11 8 6 3 0 0 0 0 0 0 0 0 0 0 0 0 0 0 0 0 0 0 2 0 0 0 0 0
100 100 100 100 100 100 100 85 64 97 37 49 47 39 16 18 12 32 32 25 8 0 1 0 0 0 0 0 0 0 0 0 0 0 0 0 0 0 0 0 0 0 0
100 100 100 100 99 100 100 100 100 100 100 100 82 34 12 29 26 27 31 18 4 6 2 5 1 0 0 0 0 0 0 0 0 0 0 0 0 0 0 0 0 1 0
100 100 100 100 86 69 100 100 100 100 100 100 100 79 20 32 24 22 14 79 12 16 7 16 5 5 5 5 5 4 2 5 4 0 0 0 0 0 0 0 5 4 2
100 100 100 100 100 100 100 100 100 100 100 100 100 100 100 100 96 80 96 100 100 24 23 100 100 15 23 5 5 6 5 5 5 5 2 0 0 0 3 19 25 8 9
100 100 100 100 100 99 100 67 96 100 100 94 100 100 100 100 100 100 100 76 57 42 54 30 100 100 99 93 83 39 6 5 13 5 5 2 0 0 2 8 11 12 50
98 100 100 100 94 100 98 100 100 100 100 97 99 100 100 100 99 100 100 100 53 36 46 100 91 98 100 100 100 100 99 100 100 98 11 5 12 17 5 16 97 6 5
100 100 100 100 100 99 97 81 94 100 100 100 100 100 100 100 99 100 100 100 100 100 98 94 100 100 100 100 100 100 100 100 100 100 100 63 18 3 5 9 12 75 5
100 100 100 100 100 100 100 100 100 100 100 100 100 100 100 100 100 100 100 100 100 100 100 100 94 100 100 100 100 100 100 99 100 100 72 5 5 5 37 87 45 86 92
100 100 100 100 100 100 100 100 100 100 100 100 100 100 100 100 100 100 100 100 100 100 100 100 100 100 100 100 100 100 100 97 16 98 87 52 65 96 97 100 100 100 100
100 100 100 100 100 100 100 100 100 100 100 100 100 100 100 100 100 100 100 100 100 100 97 100 100 100 100 100 100 100 100 87 91 39 64 11 18 74 100 98 11 93 100
100 100 100 100 100 100 100 100 100 100 100 100 100 100 100 99 100 100 100 100 100 100 100 100 100 100 100 100 100 100 100 100 92 99 92 74 90 100 95 76 91 26 100
100 100 100 100 100 100 100 100 100 100 100 100 100 100 100 100 100 100 100 100 100 100 100 100 100 100 100 100 100 100 100 100 100 100 100 100 100 98 99 99 100 87 100
100 100 100 100 100 100 100 100 100 100 100 100 100 100 100 100 100 100 100 100 100 100 100 100 100 100 100 100 100 100 100 100 100 100 100 100 100 100 100 100 100 100 100
100 100 100 100 100 100 100 100 100 100 100 100 100 100 71 98 100 100 100 100 100 100 100 100 100 100 100 100 100 100 100 100 100 100 100 100 100 100 100 100 100 100 100

GFSSE_prec_cloud_108.txt.gz
Cloud_Cover
44 3 0 1 15 39 51 5 10 70 75 100 100 66 9 0 1 8 92 56 98 65 100 70 22 43 95 95 4 3 7 22 26 0 0 1 15 81 4 1 0 11 6
6 16 0 0 5 10 13 5 5 77 6 50 100 100 34 72 89 43 98 17 73 88 100 100 29 5 32 96 11 21 33 36 24 0 0 0 0 0 1 11 9 100 38
49 34 1 0 0 4 4 5 17 6 84 30 98 97 100 100 88 100 6 0 0 11 100 74 0 9 20 0 1 18 17 2 0 2 12 25 7 2 0 0 0 1 11
50 43 27 0 0 13 0 5 27 25 98 100 100 78 87 71 96 6 5 3 0 4 52 0 0 3 0 3 0 1 0 0 6 29 42 85 92 37 20 47 7 2 3
61 26 19 5 2 0 1 5 28 25 8 66 40 12 90 95 1 1 1 2 1 4 13 6 2 0 0 0 0 0 0 0 0 0 0 0 0 0 18 0 0 0 0
95 31 9 5 0 0 0 0 30 34 51 5 3 100 100 73 0 0 0 0 0 0 0 5 0 0 2 2 0 0 0 0 0 0 0 0 0 0 0 0 0 0 0
91 62 50 62 7 1 0 0 5 16 22 12 100 100 100 39 0 0 0 0 0 0 0 0 0 0 0 0 0 0 0 0 0 0 0 0 0 0 0 0 0 0 0
100 58 63 25 5 5 5 6 7 12 30 99 100 100 81 0 0 0 0 0 0 0 2 0 0 0 0 0 0 0 0 0 0 0 0 0 0 0 0 0 4 3 0
78 42 49 71 95 50 5 14 69 99 85 96 99 20 0 0 2 0 0 0 0 14 0 0 0 0 0 0 0 0 0 0 0 0 0 0 0 0 0 0 0 0 0
51 10 61 53 96 100 100 98 100 100 100 100 10 3 0 2 0 0 0 3 8 0 0 0 0 0 0 0 0 0 0 0 0 0 0 0 0 0 0 0 0 0 0
47 42 16 22 51 98 100 100 100 90 29 6 14 4 5 34 28 0 0 60 22 0 0 0 0 0 0 0 0 0 0 0 0 0 0 0 0 0 0 0 0 0 0
89 100 100 89 90 100 100 100 97 6 13 5 38 8 13 22 8 2 0 0 0 0 0 0 0 0 0 0 0 0 0 0 0 0 0 0 0 0 0 0 0 0 0
100 84 100 100 100 98 56 94 100 46 19 16 15 16 27 30 33 37 38 33 19 4 16 1 0 0 0 0 0 0 0 2 0 1 0 0 0 0 0 0 0 0 0
100 100 100 100 100 100 100 100 100 100 96 38 29 52 37 48 48 46 41 29 18 13 5 5 5 5 5 5 3 5 1 0 0 1 0 4 0 0 0 0 0 0 0
98 100 100 100 94 96 100 100 100 100 100 79 84 100 100 100 99 44 50 36 16 30 6 17 55 12 6 14 5 5 5 5 2 2 4 0 0 0 0 0 0 4 5
100 100 100 100 100 100 100 82 91 100 100 99 100 100 100 100 100 100 100 95 100 64 75 66 20 8 6 5 5 5 5 11 5 5 4 4 5 5 1 20 18 14 8
100 100 100 100 100 100 100 45 100 100 100 100 100 100 100 100 100 100 100 100 100 100 70 72 94 16 5 24 73 96 37 53 8 14 13 80 100 22 5 5 4 11 46
100 100 100 100 100 92 49 8 47 64 53 94 100 100 100 100 100 100 96 77 99 100 100 100 100 93 6 24 53 65 99 100 100 94 99 98 44 54 4 1 4 1 5
100 100 100 100 100 100 65 35 7 72 92 60 44 88 100 100 83 100 100 100 100 100 100 100 100 96 62 98 100 100 100 100 100 91 100 97 46 33 35 5 5 4 1
100 100 100 100 100 100 90 91 99 49 17 20 68 88 100 100 78 100 100 100 100 100 100 100 100 100 98 100 100 100 100 96 99 76 80 9 27 5 5 43 100 100 99
100 100 100 100 100 100 100 100 100 100 100 100 100 100 100 100 100 100 100 100 100 99 78 100 100 100 100 100 100 100 100 100 100 100 98 71 62 37 5 64 93 78 67
100 100 100 100 100 100 100 100 100 100 100 100 100 100 100 100 100 100 100 100 100 100 100 100 100 100 100 100 100 100 100 100 90 97 88 23 67 81 62 97 57 99 39
100 100 100 100 100 100 100 100 100 100 100 100 100 100 100 100 100 100 100 100 100 64 100 100 100 100 100 100 100 100 100 100 100 100 100 100 100 66 100 100 99 98 95
100 100 100 100 100 100 100 100 100 100 100 100 100 100 100 100 100 100 100 99 98 98 100 100 100 100 100 100 100 100 100 100 100 100 100 100 100 100 100 100 100 100 100
100 100 100 100 100 100 100 100 100 100 100 100 100 100 100 100 100 100 99 100 100 100 100 100 100 100 100 100 100 100 100 100 100 100 100 100 100 100 100 100 100 100 100
100 100 100 100 100 100 100 100 100 100 100 100 100 100 100 100 69 95 100 100 100 100 100 100 100 100 100 85 100 100 100 100 100 100 100 100 100 100 100 100 100 100 100

GFSSE_prec_cloud_111.txt.gz
Cloud_Cover
9 4 0 0 84 100 31 99 5 5 5 5 5 12 100 88 14 0 5 5 10 6 5 92 80 49 20 3 21 26 42 0 0 0 0 0 24 15 12 0 6 38 0
0 14 5 50 97 42 5 5 17 5 0 5 56 43 24 100 96 98 100 62 87 99 63 0 46 98 100 26 17 18 9 0 0 0 0 0 0 0 8 0 64 87 68
5 33 26 6 5 4 5 5 5 3 2 5 5 5 5 92 92 100 38 5 79 98 0 8 0 22 0 38 86 31 27 0 0 0 0 43 81 6 17 0 0 35 30
21 42 57 5 2 2 4 5 5 4 4 5 6 9 62 94 100 6 30 5 47 25 5 2 2 0 0 2 27 33 0 0 0 0 0 4 15 0 46 94 23 0 0
42 46 64 3 0 0 1 5 4 1 1 5 5 99 89 100 100 44 11 6 13 1 0 0 0 1 0 0 0 0 0 0 0 0 0 0 0 2 5 0 0 0 0
91 62 28 5 0 0 0 2 0 0 0 0 2 9 99 100 78 7 0 0 0 0 0 0 0 0 0 0 0 0 0 0 0 0 0 0 0 0 0 0 0 0 0
98 69 93 75 5 0 0 0 1 0 0 0 6 100 100 39 35 0 0 4 2 0 0 0 0 0 0 0 0 0 0 0 0 0 0 0 0 0 0 0 0 0 0
100 80 61 87 31 4 0 4 5 0 0 1 88 91 100 8 0 0 0 26 0 0 0 0 0 0 0 0 0 0 0 0 0 0 0 0 0 0 0 0 0 0 0
100 96 65 39 100 72 5 5 5 4 0 4 100 100 59 4 4 0 0 0 0 0 0 0 0 0 0 0 0 0 0 0 0 0 0 0 0 0 0 1 0 0 0
100 99 65 46 36 93 73 70 6 5 5 100 100 99 9 5 10 0 0 0 2 0 0 0 0 0 0 0 0 0 0 0 0 0 0 0 9 2 0 0 1 0 0
100 100 73 37 44 44 48 99 89 60 53 94 95 96 58 5 10 6 2 75 100 6 0 0 0 0 0 0 0 0 0 0 0 0 0 0 0 0 0 0 0 0 1
100 100 98 84 32 40 33 100 100 100 86 90 62 19 55 57 42 6 34 99 40 2 5 4 0 0 0 0 0 0 0 0 0 0 0 0 0 0 0 0 0 1 0
100 100 100 99 100 100 98 100 100 100 100 100 94 27 76 78 53 51 54 46 37 12 10 5 5 5 3 0 0 0 0 0 0 0 0 0 0 0 0 0 0 1 0
100 100 100 100 96 100 100 77 80 100 100 100 100 97 68 78 75 72 62 59 21 5 5 5 5 5 5 5 5 0 0 4 5 2 0 0 0 0 0 0 0 0 0
100 100 100 100 100 100 100 100 100 100 95 38 72 67 48 56 54 84 80 33 91 73 10 5 5 5 5 10 38 5 5 1 5 5 6 5 5 1 0 3 5 3 1
100 100 100 100 100 100 100 100 100 100 100 100 60 79 100 71 90 100 100 100 100 100 100 100 81 5 5 5 5 5 5 5 5 10 9 4 5 5 5 20 29 11 5
100 100 100 100 100 100 100 100 100 100 100 49 31 82 100 100 100 100 93 64 100 100 100 94 68 100 100 96 99 100 63 5 5 5 9 41 5 5 5 0 5 2 8
100 100 100 100 100 100 100 100 100 100 71 10 9 39 100 100 100 100 98 94 100 100 100 57 97 100 100 100 97 98 26 26 5 16 17 16 5 5 5 0 0 1 0
100 100 100 100 100 100 100 100 100 100 100 43 26 87 100 100 100 100 100 100 100 100 100 100 100 100 100 100 100 100 100 100 100 72 98 50 20 27 5 5 5 1 0
100 100 100 100 100 100 100 100 92 5 6 56 100 100 100 100 100 100 100 100 100 100 100 100 100 100 100 100 100 100 100 100 100 100 99 75 80 5 5 5 2 36 23
100 100 100 100 100 100 100 100 100 38 28 10 76 100 100 100 100 100 100 100 100 100 100 100 100 100 100 100 100 100 100 100 100 100 100 74 88 18 14 10 51 47 38
100 100 100 100 100 100 100 100 100 100 83 58 99 100 100 100 100 100 100 100 100 100 100 100 100 99 100 100 100 100 100 100 100 100 100 100 83 100 93 100 80 92 100
100 100 100 100 100 100 100 100 100 100 100 100 100 100 100 100 100 100 100 100 78 100 90 59 96 100 100 100 100 100 99 94 85 100 100 100 100 100 100 100 100 93 99
100 100 100 100 100 100 100 100 100 100 92 88 100 100 100 100 100 100 100 95 100 100 100 90 98 100 100 100 100 100 92 100 96 100 100 100 100 100 100 100 83 100 100
100 100 100 100 100 100 100 100 100 100 100 100 100 100 100 100 100 100 100 100 94 100 100 100 100 100 100 100 100 100 100 100 98 97 100 100 100 100 100 100 100 100 100
100 100 100 100 100 100 100 100 100 100 100 100 100 100 100 100 100 100 100 100 100 100 100 100 100 100 100 100 98 100 100 100 100 100 100 100 100 100 100 100 100 100 100

GFSSE_prec_cloud_114.txt.gz
Cloud_Cover
27 66 0 0 0 0 0 6 28 2 5 5 5 5 19 10 72 71 36 44 0 0 87 13 4 6 13 44 2 0 10 6 0 0 0 0 0 3 1 3 24 4 1
77 44 5 0 0 0 0 4 11 5 5 2 5 5 6 5 28 100 100 40 5 5 33 37 0 1 54 33 8 0 0 0 0 0 0 0 0 0 9 0 78 0 0
87 89 10 6 96 7 0 4 12 5 4 3 4 0 5 5 84 6 95 96 17 6 4 2 16 47 41 94 5 0 7 13 0 1 89 99 92 4 23 0 0 0 0
90 100 76 5 28 9 5 0 3 5 2 0 2 0 5 6 94 6 5 5 54 31 5 3 5 12 100 100 100 26 0 0 0 0 0 0 8 3 39 0 0 0 0
86 100 100 5 18 5 5 5 4 5 5 0 0 0 5 63 88 34 5 91 79 41 5 1 0 5 29 42 80 3 0 0 0 0 0 0 0 0 0 0 1 0 0
100 100 100 90 6 5 24 5 5 3 5 0 0 0 0 87 32 58 14 37 5 5 0 2 0 0 0 3 0 0 0 0 0 0 0 0 0 0 0 0 0 0 0
100 100 94 100 100 59 54 8 5 3 5 2 0 0 14 4 3 28 32 5 2 0 0 0 0 0 0 0 0 0 0 0 0 0 0 0 0 0 0 0 0 0 0
100 100 98 100 100 99 63 77 5 5 3 0 0 100 51 14 0 3 10 5 4 0 0 0 0 0 0 0 0 0 0 0 0 0 0 0 0 0 0 0 0 0 0
100 100 100 42 80 100 66 39 30 5 5 0 63 100 93 0 0 0 5 3 0 0 0 0 0 0 0 0 0 0 0 0 0 0 0 0 0 0 0 0 0 0 0
78 100 100 95 92 79 100 18 20 6 5 74 100 100 48 0 0 5 4 0 0 4 0 0 0 0 0 0 0 0 0 0 0 0 0 0 9 1 0 3 2 0 0
98 84 71 96 59 77 100 100 75 62 30 64 98 100 5 6 5 11 33 0 5 3 0 0 0 0 0 0 1 0 0 0 0 0 0 0 1 0 1 8 5 2 1
100 100 82 85 61 75 69 93 98 100 77 100 100 66 55 53 80 45 65 94 3 1 0 0 0 0 0 0 2 0 0 0 0 0 0 0 0 0 0 0 0 0 2
100 97 83 100 100 91 96 100 100 100 100 100 100 62 63 41 70 57 98 100 30 12 0 0 0 0 0 0 0 0 0 3 0 0 0 0 0 0 0 2 0 0 0
100 100 100 100 96 43 54 61 82 100 100 95 82 91 100 100 100 91 100 100 100 5 5 5 0 2 0 0 3 2 3 0 0 0 0 0 0 0 0 0 4 2 0
100 100 100 100 100 94 85 83 84 81 100 100 100 99 100 100 100 100 98 46 30 69 82 40 91 19 10 14 6 5 5 4 18 14 11 4 0 0 5 4 5 4 4
100 100 100 100 100 100 100 96 98 92 100 100 100 94 100 46 96 100 98 76 88 100 100 100 100 100 95 85 33 92 96 100 61 78 63 3 1 0 6 26 15 4 2
100 100 100 100 99 100 100 100 100 100 100 100 100 100 100 100 53 63 72 98 98 100 100 99 72 93 100 100 11 59 76 83 97 75 96 99 43 60 69 7 16 13 9
100 100 100 100 88 100 100 100 100 100 100 100 100 100 100 100 64 76 95 100 100 100 95 99 100 100 100 100 91 99 100 100 100 100 100 65 100 87 28 29 2 0 2
100 100 100 100 100 100 100 100 100 100 100 100 100 100 100 100 77 100 100 100 100 100 100 100 100 100 100 100 100 100 100 96 49 13 85 66 98 59 32 5 5 3 0
100 100 100 100 100 100 99 90 100 100 100 100 100 100 100 100 32 78 100 100 100 100 100 100 100 100 100 100 100 100 100 81 100 45 61 93 87 26 75 38 6 4 5
100 100 100 100 100 100 100 94 100 100 100 100 100 97 43 100 100 100 100 100 100 100 100 100 100 100 100 100 100 100 83 100 56 100 98 30 74 86 100 69 51 35 49
100 100 100 100 100 100 100 73 99 100 100 100 99 100 100 100 100 100 100 100 100 100 100 100 100 100 100 99 100 96 85 45 10 5 23 98 79 67 100 76 100 73 75
100 100 100 100 100 100 99 69 86 99 98 91 100 100 100 100 100 100 100 100 100 100 100 100 89 100 97 96 100 92 66 51 27 13 5 83 100 100 100 97 86 100 100
100 100 100 100 100 100 100 100 100 100 100 89 100 100 100 100 100 100 100 100 100 94 100 100 94 58 99 90 100 100 100 87 100 100 49 58 73 98 100 100 100 100 100
100 100 100 100 100 100 100 100 100 100 100 100 100 100 100 100 100 100 100 100 100 88 93 99 100 100 100 99 100 100 100 100 100 100 100 100 100 100 100 100 100 100 100
100 100 100 100 100 100 100 100 100 100 100 100 100 100 100 100 100 100 100 100 100 100 100 100 100 100 100 100 100 100 100 100 100 100 100 100 100 100 100 100 100 100 99

GFSSE_prec_cloud_117.txt.gz
Cloud_Cover
5 26 5 5 0 3 0 1 7 38 30 65 5 5 93 100 98 5 26 51 68 23 6 0 3 50 0 26 68 61 40 15 2 2 0 0 2 33 4 0 0 0 0
5 17 20 24 39 5 0 4 0 3 5 5 5 6 5 4 20 5 6 100 100 98 75 5 8 6 36 0 1 0 0 0 0 0 0 0 0 6 0 0 0 0 0
8 15 5 5 5 5 0 0 0 5 5 4 0 9 37 5 5 5 11 45 63 33 50 16 54 98 16 1 0 0 0 0 0 20 28 48 49 7 0 0 0 0 0
65 36 5 6 14 5 4 0 0 2 26 19 2 0 0 0 0 5 86 40 5 14 56 18 7 12 32 67 59 0 0 0 0 4 15 0 0 0 0 0 0 0 0
85 81 100 24 84 5 5 5 0 1 45 100 5 0 0 15 18 2 10 5 19 5 36 56 21 100 100 99 12 0 0 0 0 0 0 0 0 0 0 0 0 0 4
21 100 89 8 83 25 5 5 4 5 5 28 5 0 0 87 12 31 26 70 64 5 62 27 10 72 33 21 0 0 0 0 0 0 0 0 0 0 0 0 0 0 0
40 98 94 0 99 79 19 5 1 2 5 5 5 2 0 78 2 1 5 24 24 5 4 2 5 0 0 0 0 0 0 0 0 0 0 0 14 0 0 0 1 0 0
64 100 100 7 42 98 100 34 5 3 5 5 5 1 6 2 0 0 0 4 5 0 3 3 0 0 0 0 0 0 0 0 0 0 0 2 2 0 0 0 0 0 0
17 100 100 29 48 34 100 100 7 5 5 5 27 7 24 3 0 0 0 0 0 0 5 3 0 0 0 0 0 0 0 0 0 0 0 1 0 0 0 0 3 0 0
100 92 100 34 62 5 92 100 91 25 19 5 43 100 39 13 0 0 0 0 0 3 5 0 0 0 0 0 0 0 0 0 0 0 0 3 2 0 0 5 4 4 2
100 100 100 77 83 17 70 96 100 39 5 6 87 89 1 0 3 6 3 0 26 3 0 0 0 0 0 0 0 0 0 0 0 5 5 5 5 5 5 3 1 0 0
100 100 100 100 100 58 34 62 87 100 8 93 100 98 5 4 20 100 34 5 37 5 3 1 0 0 0 0 2 0 0 5 5 5 5 0 5 4 5 4 0 1 0
100 100 100 100 100 99 68 49 85 100 100 100 100 31 12 5 20 100 89 14 5 13 3 5 0 0 8 6 5 5 5 5 5 5 5 5 5 6 4 3 0 0 0
90 57 100 95 100 100 100 24 80 88 100 100 100 30 13 6 20 100 27 5 6 5 3 0 0 2 5 8 52 6 13 6 5 8 91 100 88 49 33 0 3 5 2
100 99 82 100 99 100 100 35 65 54 100 99 100 36 17 59 70 98 97 100 100 100 98 6 8 56 95 100 100 100 99 74 8 46 11 85 80 5 24 100 100 100 99
100 100 100 100 100 100 99 100 76 29 92 84 99 73 90 92 100 95 100 98 100 100 96 5 78 48 92 100 100 100 100 100 25 19 5 14 79 97 100 32 100 35 5
100 100 100 100 100 100 100 100 100 100 100 74 71 29 100 81 82 100 37 72 60 20 6 5 5 82 100 100 100 100 100 100 100 100 100 100 100 55 5 7 29 32 33
100 100 100 100 100 100 100 100 100 100 100 100 100 78 87 86 100 100 100 100 100 5 7 10 90 100 100 100 100 100 100 100 100 100 100 100 48 12 5 5 5 5 14
100 100 100 100 100 100 100 100 100 100 100 100 100 100 100 100 100 100 100 100 100 44 90 56 100 100 100 100 100 100 100 100 99 100 100 99 53 32 5 8 37 5 5
100 100 100 100 100 100 99 100 97 100 100 100 100 100 100 100 100 100 100 100 100 73 98 100 100 100 100 100 100 100 98 27 91 100 42 5 5 6 5 31 14 6 5
100 100 100 100 100 100 100 100 100 100 100 100 100 100 100 100 100 100 100 100 100 100 100 100 100 100 100 100 100 100 18 86 40 31 37 5 5 84 100 58 100 100 70
100 100 100 100 100 100 100 100 100 100 100 100 99 100 100 100 100 100 100 100 100 100 100 100 100 100 100 100 94 94 100 74 93 78 35 5 5 30 100 94 100 100 100
100 100 100 100 100 100 100 100 100 100 100 100 100 100 100 100 100 100 100 100 100 100 100 100 93 100 99 100 70 100 92 89 58 49 5 14 51 100 46 64 100 25 95
100 100 100 100 100 100 100 100 100 100 100 100 100 100 95 96 99 100 100 100 100 100 100 94 100 100 100 100 99 99 70 22 98 99 51 53 100 100 90 59 92 94 97
100 100 100 100 100 100 100 100 100 100 100 100 100 100 94 100 100 100 100 100 100 100 100 100 100 100 100 100 100 97 100 96 100 100 100 100 40 98 49 6 96 100 100
100 100 100 100 100 100 100 100 100 100 100 100 100 100 100 100 100 100 100 100 100 100 100 98 100 100 100 100 100 89 89 90 100 100 98 98 77 25 98 100 99 96 100

GFSSE_prec_cloud_120.txt.gz
Cloud_Cover
3 0 0 2 5 3 0 0 0 10 30 34 5 30 100 100 100 100 100 5 23 77 100 26 3 4 37 95 100 76 44 3 7 1 0 0 47 22 0 0 0 0 0
0 0 0 0 0 3 5 1 0 4 17 19 6 5 5 60 100 100 100 12 5 11 83 82 60 14 100 29 3 5 0 0 0 0 0 0 0 0 0 0 0 0 0
0 1 0 0 0 0 5 5 0 2 4 1 5 1 5 5 5 30 5 5 5 5 28 38 44 5 3 5 5 23 6 0 0 0 0 0 0 0 0 0 0 3 0
59 0 19 0 0 1 5 5 5 4 0 5 0 0 0 1 0 1 4 5 5 11 20 9 6 4 5 6 0 0 0 0 0 0 0 0 0 0 0 0 0 0 2
100 87 0 0 0 0 9 33 5 4 2 3 5 0 0 0 0 0 0 0 5 14 6 8 20 9 78 5 0 0 0 0 0 0 0 0 0 0 0 0 13 35 28
100 82 4 0 0 0 5 50 16 5 5 4 5 5 5 3 0 0 0 0 3 5 6 5 96 99 64 4 0 0 0 0 0 0 0 0 0 0 0 0 0 0 54
98 100 96 3 0 1 5 5 22 5 5 5 3 9 30 67 0 0 0 0 5 43 6 15 98 19 1 0 0 0 0 0 0 0 0 0 3 1 3 0 0 2 3
1 74 72 5 6 0 5 9 5 5 5 5 5 1 5 46 0 0 0 0 0 0 5 5 3 0 0 0 0 0 0 0 0 0 0 0 0 1 5 5 4 5 5
0 67 9 2 5 2 0 53 80 9 5 3 5 5 3 3 14 0 0 0 0 0 0 0 0 0 1 0 0 0 0 0 0 0 2 5 5 5 5 5 6 5 5
0 2 55 5 5 5 0 1 86 100 17 5 5 5 5 45 36 0 0 0 0 0 0 0 0 0 0 0 0 0 0 0 1 3 5 5 14 5 5 5 5 3 5
0 0 48 8 4 5 35 17 1 94 98 5 6 41 51 83 5 5 0 0 3 0 0 0 0 0 0 0 0 0 0 0 5 5 8 5 4 4 5 6 5 2 6
23 0 2 80 42 7 68 97 86 10 100 100 31 100 100 14 15 0 4 0 0 5 4 3 5 0 0 0 0 0 0 0 4 8 17 5 4 79 45 76 5 5 100
80 7 0 98 100 47 25 54 100 100 80 100 100 100 64 5 5 5 2 4 1 8 5 4 5 4 3 0 0 0 5 5 5 5 22 5 8 6 59 95 99 99 100
100 80 2 100 100 95 98 100 100 100 100 93 100 100 100 46 5 5 1 5 5 5 5 5 5 14 20 5 3 18 31 100 94 45 11 5 6 7 79 100 98 100 98
88 92 1 86 100 100 100 100 72 100 100 100 100 100 100 64 7 6 6 5 8 37 6 63 95 100 77 6 94 100 73 93 92 96 100 100 43 80 100 100 100 43 2
38 100 51 95 100 100 100 100 100 100 100 100 100 78 75 100 26 99 5 36 78 35 31 69 99 100 100 71 35 50 48 76 100 100 18 100 84 100 100 100 5 5 5
6 100 100 100 100 100 100 100 100 100 100 100 100 100 60 13 62 81 27 49 89 100 100 73 75 42 50 56 27 67 94 92 83 14 19 88 88 64 97 99 19 29 10
4 97 100 100 100 100 100 100 100 100 100 100 100 100 100 87 77 68 98 94 100 100 100 100 100 100 74 25 91 100 100 16 5 23 85 5 3 8 5 5 5 42 9
13 89 100 100 100 100 100 100 100 100 100 100 100 100 100 100 100 90 62 97 100 100 100 100 100 100 100 73 100 100 49 98 95 93 91 16 5 5 4 10 68 87 63
5 100 100 100 100 100 100 100 100 100 100 100 100 100 100 100 100 100 100 100 100 100 100 100 100 100 100 100 100 100 82 100 85 14 18 5 5 4 5 5 12 80 100
80 100 100 100 100 100 100 100 100 100 100 100 100 100 100 100 100 100 100 100 100 100 100 100 100 100 100 100 100 100 100 100 65 5 5 1 5 2 3 0 5 5 78
100 100 100 100 100 100 100 100 100 100 100 100 100 100 100 100 100 100 97 100 100 100 100 100 100 100 100 100 100 100 100 48 5 5 3 4 3 4 5 5 16 11 16
100 100 100 100 100 100 100 100 100 100 100 100 100 100 100 100 100 100 100 98 99 100 100 100 100 100 100 100 100 100 92 8 48 20 8 5 64 45 42 5 88 65 93
100 100 100 100 100 100 100 100 100 100 100 100 100 100 100 100 99 100 97 90 100 100 100 100 100 100 100 100 100 95 98 6 58 88 36 21 8 15 22 75 34 65 88
100 100 100 100 100 100 100 100 100 100 100 100 100 100 100 100 100 100 100 100 100 100 100 100 100 100 100 100 100 100 100 88 84 95 76 7 5 5 5 79 1 68 54
100 100 100 100 100 100 100 100 100 100 100 100 100 100 100 100 100 100 100 98 100 100 100 100 100 100 100 100 100 98 100 94 100 90 99 100 41 30 72 13 73 60 65

GFSSE_prec_cloud_123.txt.gz
Cloud_Cover
38 10 5 5 5 0 0 0 0 100 37 51 14 7 5 89 91 14 38 76 83 12 79 12 22 39 79 94 95 72 31 35 13 4 0 1 0 0 0 0 0 0 0
19 15 0 4 5 0 0 0 3 4 2 3 6 5 5 30 100 100 100 100 100 69 18 9 92 99 100 82 6 4 0 0 0 0 0 0 0 0 0 0 0 0 0
8 9 0 0 3 0 0 0 13 0 0 5 4 92 22 5 74 87 43 74 83 40 59 5 100 83 8 31 30 75 5 0 0 0 0 0 0 0 0 22 46 0 83
1 5 1 0 0 3 2 0 1 0 0 0 5 20 5 5 5 5 13 7 10 15 8 2 8 0 6 5 5 5 4 0 0 0 0 0 0 0 19 0 1 0 0
1 5 5 0 0 0 2 0 0 0 0 0 0 0 0 0 0 0 0 0 4 1 5 4 2 0 5 5 3 4 0 0 0 0 0 0 9 0 1 0 5 7 58
2 0 5 19 2 4 5 5 0 0 0 0 4 0 1 3 0 0 0 0 1 3 0 4 5 2 5 5 5 0 0 0 0 0 0 0 0 48 3 5 53 14 77
0 0 0 2 68 100 80 4 1 0 3 5 5 5 1 0 0 0 4 0 5 5 4 18 5 4 5 4 0 0 0 0 0 0 0 0 1 0 5 15 34 5 5
1 0 3 3 23 78 100 4 0 0 0 5 5 5 5 3 21 5 5 0 4 4 16 34 5 0 0 0 0 0 0 0 0 0 0 0 14 1 5 5 5 5 87
2 0 0 3 7 20 78 24 0 0 0 5 6 5 5 5 5 0 0 0 0 1 5 5 1 0 0 0 0 0 0 0 0 0 0 0 0 5 5 0 0 4 41
3 52 0 1 5 5 7 66 62 5 5 5 16 19 23 15 5 5 0 0 0 0 0 0 5 0 0 0 1 0 0 0 0 0 0 0 2 0 1 5 5 8 5
16 76 100 0 0 17 5 98 100 5 5 6 60 37 50 66 6 2 2 0 0 0 0 5 5 5 2 0 5 4 1 0 0 0 5 3 5 4 5 5 4 96 57
93 72 100 97 3 7 67 19 51 20 9 10 99 100 76 45 62 10 5 5 0 2 5 5 5 56 6 3 5 5 5 5 1 2 5 5 6 4 4 6 2 68 63
72 79 71 100 100 30 27 68 87 98 58 7 55 100 100 98 47 42 35 10 3 5 5 5 6 5 61 41 15 12 5 5 73 32 83 16 5 21 50 3 88 63 67
0 44 22 90 100 100 69 48 95 100 66 37 100 91 100 100 100 100 58 51 20 22 52 17 5 8 76 71 98 84 37 79 100 100 65 6 5 25 7 100 88 24 96
0 0 48 14 85 100 99 51 97 80 50 9 97 100 100 100 99 94 94 47 29 11 56 76 71 94 96 88 100 100 100 54 86 64 40 5 6 31 7 5 5 5 5
0 0 0 30 6 100 100 51 100 100 70 39 42 100 100 100 100 81 75 67 74 70 40 27 100 89 88 59 54 93 68 44 49 73 73 50 8 4 5 5 5 2 5
0 0 0 81 83 79 100 100 100 100 98 50 60 100 100 100 100 64 78 100 100 100 60 44 100 100 100 100 100 100 100 95 50 80 96 96 8 5 1 28 78 10 16
1 1 0 12 100 92 30 97 100 100 100 99 99 100 100 100 100 100 100 100 100 100 100 100 100 100 100 99 100 85 88 96 95 100 100 100 30 100 100 12 5 7 10
0 0 0 34 100 100 93 100 100 100 100 100 100 100 100 100 100 100 100 100 100 100 100 100 100 100 80 97 98 100 93 100 100 100 100 100 100 100 22 3 0 5 64
0 0 0 10 100 100 100 100 100 100 100 100 100 100 100 100 100 100 100 100 100 100 100 100 100 100 100 98 100 100 100 100 100 100 100 100 100 84 5 2 4 5 10
4 0 0 11 100 100 100 100 100 100 100 100 100 100 100 100 100 100 100 100 100 100 100 100 100 80 79 100 100 100 87 100 100 100 100 100 59 5 2 0 3 4 5
5 0 22 31 90 99 100 100 100 100 100 100 100 100 100 100 100 100 100 100 100 100 100 100 100 100 100 100 100 100 100 100 100 59 94 57 5 5 5 4 4 1 9
0 16 29 9 90 100 100 100 100 100 100 100 100 51 100 100 100 100 100 100 100 100 100 100 100 100 100 100 100 100 100 100 100 92 28 5 5 4 2 0 3 5 5
5 0 5 56 100 100 100 100 100 100 100 100 100 100 100 100 100 100 100 100 100 100 100 100 100 100 100 100 100 100 100 100 100 100 11 5 52 3 0 0 0 1 5
5 4 50 15 100 100 100 100 100 100 100 100 100 100 100 100 100 100 100 100 100 100 100 100 100 100 100 100 100 100 100 100 100 92 16 7 31 5 4 1 0 5 3
38 100 99 100 100 100 100 100 100 100 100 100 100 100 100 100 100 100 100 100 100 100 100 100 100 100 100 100 100 100 100 100 51 43 23 64 24 17 5 17 4 3 2

GFSSE_prec_cloud_126.txt.gz
Cloud_Cover
35 30 0 0 0 0 0 0 12 0 0 0 1 3 0 5 95 100 5 6 69 100 25 5 56 100 86 42 22 68 55 31 22 0 0 0 0 0 0 0 0 0 0
17 35 0 3 5 0 0 0 100 0 0 0 0 11 4 4 45 100 100 98 100 100 68 32 10 5 57 83 36 5 5 5 0 0 0 2 16 7 63 0 0 33 100
26 33 4 4 72 6 0 0 37 0 0 0 0 1 5 1 4 86 100 100 100 100 98 89 73 100 88 19 3 3 0 0 0 0 0 0 35 88 34 100 100 74 12
22 76 15 2 2 55 29 5 0 0 0 0 0 0 1 5 3 4 62 100 100 48 100 100 100 24 2 0 2 6 4 5 0 0 4 5 100 94 99 66 78 11 97
23 22 18 0 0 1 8 57 6 1 0 0 0 0 0 4 5 47 0 17 6 5 22 7 0 3 0 2 0 5 0 3 0 0 0 0 0 53 26 32 22 99 100
34 24 18 2 0 0 0 4 42 5 5 0 0 0 5 0 0 0 12 0 0 5 5 5 12 0 0 5 2 0 0 0 0 0 0 0 11 98 100 1 98 93 66
43 25 33 1 1 0 0 0 0 5 5 4 0 0 0 5 5 7 6 0 0 1 5 5 3 0 0 0 0 0 0 0 0 0 0 2 28 17 20 0 0 40 7
14 52 27 0 3 0 0 1 5 5 5 5 4 0 0 1 5 4 1 0 0 5 5 5 5 5 0 0 0 0 0 0 0 0 0 0 25 1 0 2 6 82 2
3 36 27 33 8 2 0 5 5 0 5 5 0 0 0 0 5 5 5 0 0 0 0 5 5 5 5 3 1 0 0 0 0 2 5 0 1 0 0 0 0 2 1
12 6 2 27 49 43 36 5 5 5 63 39 5 5 0 0 0 5 5 5 4 0 0 0 0 2 5 5 5 0 0 5 5 2 4 2 3 5 5 3 5 2 5
30 22 28 9 59 62 40 11 5 60 100 96 9 5 18 11 15 5 5 5 3 0 0 2 5 2 2 5 5 5 4 5 13 5 5 9 4 5 19 5 5 4 21
5 28 61 10 10 93 84 45 57 47 70 99 25 5 20 56 44 5 5 5 5 1 2 5 19 5 5 5 42 5 5 5 30 7 5 80 32 5 5 11 6 8 88
1 5 20 44 25 78 100 96 100 81 74 100 15 54 46 68 51 31 11 5 5 5 2 5 12 36 6 5 35 5 10 27 21 33 60 96 34 5 5 5 5 5 5
1 5 42 17 78 35 100 100 92 85 100 68 99 66 100 100 100 93 46 39 22 21 15 5 33 56 39 5 33 78 31 100 100 100 100 72 80 63 87 5 5 0 5
0 0 4 16 14 72 56 100 100 100 100 77 84 97 95 100 100 100 98 44 34 40 58 51 59 76 19 15 41 100 56 71 76 100 100 36 49 83 5 5 4 5 17
0 0 0 13 82 24 76 84 100 100 100 87 54 100 100 100 100 100 84 76 92 96 80 64 66 75 48 18 89 100 100 100 84 100 100 46 5 46 5 5 24 40 35
0 0 0 0 1 88 99 80 100 100 100 100 61 34 56 100 19 100 71 98 100 100 100 100 68 100 66 51 85 100 100 78 100 100 12 95 100 100 5 84 100 100 33
0 0 0 0 0 9 80 94 100 100 100 100 100 42 8 91 22 58 76 100 100 100 100 100 97 95 100 100 100 100 89 69 100 100 100 96 100 100 20 100 100 100 95
0 0 0 0 0 0 22 50 100 100 100 100 100 100 47 31 40 96 100 100 100 100 100 100 100 100 100 100 100 100 100 100 78 58 100 100 100 44 87 100 100 85 64
0 0 0 0 0 0 5 66 100 100 100 100 97 100 100 99 97 95 65 100 100 100 100 100 100 100 100 100 100 100 100 70 78 85 100 100 98 97 100 100 49 5 5
0 0 0 0 0 0 19 71 100 100 100 100 100 100 100 100 100 34 88 100 100 100 100 100 100 100 100 100 100 100 100 95 82 100 100 100 100 100 91 16 6 5 5
0 0 0 0 0 0 0 0 10 62 100 96 100 100 100 100 100 100 100 100 100 100 100 100 100 100 100 100 100 100 100 94 100 100 100 100 100 100 96 5 1 19 19
0 0 0 0 0 0 0 3 38 62 98 83 100 100 100 100 100 100 100 100 100 100 100 100 100 100 100 100 100 100 100 100 100 100 100 100 100 35 5 5 5 3 0
0 0 0 0 0 0 1 33 16 89 46 100 100 100 99 100 100 100 100 100 100 100 100 100 100 100 100 100 100 100 100 100 100 100 100 100 100 18 6 5 1 1 0
0 0 0 0 0 0 4 26 35 99 100 100 100 100 100 100 100 100 100 100 100 100 100 100 100 100 100 100 100 100 100 100 100 100 100 100 98 5 5 0 1 2 5
0 0 0 2 4 0 0 78 54 100 100 100 100 100 100 100 100 100 100 100 100 100 100 100 100 100 100 100 100 100 100 100 100 100 100 81 61 9 24 16 6 8 14